[[{"header":{"parameterUnit":"m.s-1","parameterCategory":1,"la1":31.0,"la2":29.5877,"lo1":-88.7671,"lo2":-86.6584,"dy":0.0162,"dx":0.0185,"nx":115,"ny":88,"refTime":"2024-09-14T06:00:00:Z","depth":0,"parameterNumber":2,"parameterNumberName":"U-component_of_WINDS"},"data":[0.0,0.0,0.0,0.0,0.0,0.0,0.0,0.0,0.0,0.0,0.0,0.0,0.0,0.0,0.0,0.0,0.0,0.0,0.0,0.0,0.0,0.0,0.0,0.0,0.0,0.0,0.0,0.0,0.0,0.0,0.0,0.0,0.0,0.0,0.0,0.0,0.0,0.0,0.0,0.0,0.0,0.0,0.0,0.0,0.0,0.0,0.0,0.0,0.0,0.0,0.0,0.0,0.0,0.0,0.0,0.0,0.0,0.0,0.0,0.0,0.0,0.0,0.0,0.0,0.0,0.0,0.0,0.0,0.0,0.0,0.0,0.0,0.0,0.0,0.0,0.0,0.0,0.0,0.0,0.0,0.0,0.0,0.0,0.0,0.0,0.0,0.0,0.0,0.0,0.0,0.0,0.0,0.0,0.0,0.0,0.0,0.0,0.0,0.0,0.0,0.0,0.0,0.0,0.0,0.0,0.0,0.0,0.0,0.0,0.0,0.0,0.0,0.0,0.0,0.0,0.0,0.0,0.0,0.0,0.0,0.0,0.0,0.0,0.0,0.0,0.0,0.0,0.0,0.0,0.0,0.0,0.0,0.0,0.0,0.0,0.0,0.0,0.0,0.0,0.0,0.0,0.0,0.0,0.0,0.0,0.0,0.0,0.0,0.0,0.0,0.0,0.0,0.0,0.0,0.0,0.0,0.0,0.0,0.0,0.0,0.0,0.0,0.0,0.0,0.0,0.0,0.0,0.0,0.0,0.0,0.0,0.0,0.0,0.0,0.0,0.0,0.0,0.0,0.0,0.0,0.0,0.0,0.0,0.0,0.0,0.0,0.0,0.0,0.0,0.0,0.0,0.0,0.0,0.0,0.0,0.0,0.0,0.0,0.0,0.0,0.0,0.0,0.0,0.0,0.0,0.0,0.0,0.0,0.0,0.0,0.0,0.0,0.0,0.0,0.0,0.0,0.0,0.0,0.0,0.0,0.0,0.0,0.0,0.0,0.0,0.0,0.0,0.0,0.0,0.0,0.0,0.0,0.0,0.0,0.0,0.0,0.0,0.0,0.0,0.0,0.0,0.0,0.0,0.0,0.0,0.0,0.0,0.0,0.0,0.0,0.0,0.0,0.0,0.0,0.0,0.0,0.0,0.0,0.0,0.0,0.0,0.0,0.0,0.0,0.0,0.0,0.0,0.0,0.0,0.0,0.0,0.0,0.0,0.0,0.0,0.0,0.0,0.0,0.0,0.0,0.0,0.0,0.0,0.0,0.0,0.0,0.0,0.0,0.0,0.0,0.0,0.0,0.0,0.0,0.0,0.0,0.0,0.0,0.0,0.0,0.0,0.0,0.0,0.0,0.0,0.0,0.0,0.0,0.0,0.0,0.0,0.0,0.0,0.0,0.0,0.0,0.0,0.0,0.0,0.0,0.0,0.0,0.0,0.0,0.0,0.0,0.0,0.0,0.0,0.0,0.0,0.0,0.0,0.0,0.0,0.0,0.0,0.0,0.0,0.0,0.0,0.0,0.0,0.0,0.0,0.0,0.0,0.0,0.0,0.0,0.0,0.0,0.0,0.0,0.0,0.0,0.0,0.0,0.0,0.0,0.0,0.0,0.0,0.0,0.0,0.0,0.0,0.0,0.0,0.0,0.0,0.0,0.0,0.0,0.0,0.0,0.0,0.0,0.0,0.0,0.0,0.0,0.0,0.0,0.0,0.0,0.0,0.0,0.0,0.0,0.0,0.0,0.0,0.0,0.0,0.0,0.0,0.0,0.0,0.0,0.0,0.0,0.0,0.0,0.0,0.0,0.0,0.0,0.0,0.0,0.0,0.0,0.0,0.0,0.0,0.0,0.0,0.0,0.0,0.0,0.0,0.0,0.0,0.0,0.0,0.0,0.0,0.0,0.0,0.0,0.0,0.0,0.0,0.0,0.0,0.0,0.0,0.0,0.0,0.0,0.0,0.0,0.0,0.0,0.0,0.0,0.0,0.0,0.0,0.0,0.0,0.0,0.0,0.0,0.0,0.0,0.0,0.0,0.0,0.0,0.0,0.0,0.0,0.0,0.0,0.0,0.0,0.0,0.0,0.0,0.0,0.0,0.0,0.0,0.0,0.0,0.0,0.0,0.0,0.0,0.0,0.0,0.0,0.0,0.0,0.0,0.0,0.0,0.0,0.0,0.0,0.0,0.0,0.0,0.0,0.0,0.0,0.0,0.0,0.0,0.0,0.0,0.0,0.0,0.0,0.0,0.0,0.0,0.0,0.0,0.0,0.0,0.0,0.0,0.0,0.0,0.0,0.0,0.0,0.0,0.0,0.0,0.0,0.0,0.0,0.0,0.0,0.0,0.0,0.0,0.0,0.0,0.0,0.0,0.0,0.0,0.0,0.0,0.0,0.0,0.0,0.0,0.0,0.0,0.0,0.0,0.0,0.0,0.0,0.0,0.0,0.0,0.0,0.0,0.0,0.0,0.0,0.0,0.0,0.0,0.0,0.0,0.0,0.0,0.0,0.0,0.0,0.0,0.0,0.0,0.0,0.0,0.0,0.0,0.0,0.0,0.0,0.0,0.0,0.0,0.0,0.0,0.0,0.0,0.0,0.0,0.0,0.0,0.0,0.0,0.0,0.0,0.0,0.0,0.0,0.0,0.0,0.0,0.0,0.0,0.0,0.0,0.0,0.0,0.0,0.0,0.0,0.0,0.0,0.0,0.0,0.0,0.0,0.0,0.0,0.0,0.0,0.0,0.0,0.0,0.0,0.0,0.0,0.0,0.0,0.0,0.0,0.0,0.0,0.0,0.0,0.0,0.0,0.0,0.0,0.0,0.0,0.0,0.0,0.0,0.0,0.0,0.0,0.0,0.0,0.0,0.0,0.0,0.0,0.0,0.0,0.0,0.0,0.0,0.0,0.0,0.0,0.0,0.0,0.0,0.0,0.0,0.0,0.0,0.0,0.0,0.0,0.0,0.0,0.0,0.0,0.0,0.0,0.0,0.0,0.0,0.0,0.0,0.0,0.0,0.0,0.0,0.0,0.0,0.0,0.0,0.0,0.0,0.0,0.0,0.0,0.0,0.0,0.0,0.0,0.0,0.0,0.0,0.0,0.0,0.0,0.0,0.0,0.0,0.0,0.0,0.0,0.0,0.0,0.0,0.0,0.0,0.0,0.0,0.0,0.0,0.0,0.0,0.0,0.0,0.0,0.0,0.0,0.0,0.0,0.0,0.0,0.0,0.0,0.0,0.0,0.0,0.0,0.0,0.0,0.0,0.0,0.0,0.0,0.0,0.0,0.0,0.0,0.0,0.0,0.0,0.0,0.0,0.0,0.0,0.0,0.0,0.0,0.0,0.0,0.0,0.0,0.0,0.0,0.0,0.0,0.0,0.0,0.0,0.0,0.0,0.0,0.0,0.0,0.0,0.0,0.0,0.0,0.0,0.0,0.0,0.0,0.0,0.0,0.0,0.0,0.0,0.0,0.0,0.0,0.0,0.0,0.0,0.0,0.0,0.0,0.0,0.0,0.0,0.0,0.0,0.0,0.0,0.0,0.0,0.0,0.0,0.0,0.0,0.0,0.0,0.0,0.0,0.0,0.0,0.0,0.0,0.0,0.0,0.0,0.0,0.0,0.0,0.0,0.0,0.0,0.0,0.0,0.0,0.0,0.0,0.0,0.0,0.0,0.0,0.0,0.0,0.0,0.0,0.0,0.0,0.0,0.0,0.0,0.0,0.0,0.0,0.0,0.0,0.0,0.0,0.0,0.0,0.0,0.0,0.0,0.0,0.0,0.0,0.0,0.0,0.0,0.0,0.0,0.0,0.0,0.0,0.0,0.0,0.0,0.0,0.0,0.0,0.0,0.0,0.0,0.0,0.0,0.0,0.0,0.0,0.0,0.0,0.0,0.0,0.0,0.0,0.0,0.0,0.0,0.0,0.0,0.0,0.0,0.0,0.0,0.0,0.0,0.0,0.0,0.0,0.0,0.0,0.0,0.0,0.0,0.0,0.0,0.0,0.0,0.0,0.0,0.0,0.0,0.0,0.0,0.0,0.0,0.0,0.0,0.0,0.0,0.0,0.0,0.0,0.0,0.0,0.0,0.0,0.0,0.0,0.0,0.0,0.0,0.0,0.0,0.0,0.0,0.0,0.0,0.0,0.0,0.0,0.0,0.0,0.0,0.0,0.0,0.0,0.0,0.0,0.0,0.0,0.0,0.0,0.0,0.0,0.0,0.0,0.0,0.0,0.0,0.0,0.0,0.0,0.0,0.0,0.0,0.0,0.0,0.0,0.8751,0.0,0.0,0.0,0.0,0.0,0.0,0.0,0.0,0.0,0.0,0.0,0.0,0.0,0.0,0.0,0.0,0.0,0.0,0.0,0.0,0.0,0.0,0.0,0.0,0.0,0.0,0.0,0.0,0.0,0.0,0.0,0.0,0.0,0.0,0.0,0.0,0.0,0.0,0.0,0.0,0.0,0.0,0.0,0.0,0.0,0.0,0.0,0.0,0.0,0.0,0.0,0.0,0.0,0.0,0.0,0.0,0.0,0.0,0.0,0.0,0.0,0.0,0.0,0.0,0.0,0.0,0.0,0.0,0.0,0.0,0.0,0.0,0.0,0.0,0.0,0.0,0.0,0.0,0.0,0.0,0.0,0.0,0.0,0.0,0.0,0.0,0.0,0.0,0.0,0.0,0.0,0.0,0.0,0.0,0.0,0.0,0.0,0.0,0.0,0.0,0.0,0.0,0.0,0.0,0.0,0.0,0.0,0.0,0.0,0.0,0.951,0.9263,0.9204,0.9113,0.8811,0.0,0.0,0.0,0.0,0.0,0.0,0.0,0.0,0.0,0.0,0.0,0.0,0.0,0.0,0.0,0.0,0.0,0.0,0.0,0.0,0.0,0.0,0.0,0.0,0.0,0.0,0.0,0.0,0.0,0.0,0.0,0.0,0.0,0.0,0.0,0.0,0.0,0.0,0.0,0.0,0.0,0.0,0.0,0.0,0.0,0.0,0.0,0.0,0.0,0.0,0.0,0.0,0.0,0.0,0.0,0.0,0.0,0.0,0.0,0.0,0.0,0.0,0.0,0.0,0.0,0.0,0.0,0.0,0.0,0.0,0.0,0.0,0.0,0.0,0.0,0.0,0.0,0.0,0.0,0.0,0.0,0.0,0.0,0.0,0.0,0.0,0.0,0.0,0.0,0.0,0.0,0.0,0.0,0.0,0.0,0.0,0.0,0.0,0.0,0.0,0.0,0.0,0.0,0.0,0.0,0.0,0.0,0.0,0.0,0.0,0.0,0.0,0.9621,0.9421,0.9005,0.0,0.0,0.0,0.0,0.0,0.0,0.0,0.0,0.0,0.0,0.0,0.0,0.0,0.0,0.0,0.0,0.0,0.0,0.0,0.0,0.0,0.0,0.0,0.0,0.0,0.0,0.0,0.0,0.0,0.0,0.0,0.0,0.0,0.0,0.0,0.0,0.0,0.0,0.0,0.0,0.0,0.0,0.0,0.0,0.0,0.0,0.0,0.0,0.0,0.0,0.0,0.0,0.0,0.0,0.0,0.0,0.0,0.0,0.0,0.0,0.0,0.0,0.0,0.0,0.0,0.0,0.0,0.0,0.0,0.0,0.0,0.0,0.0,0.0,0.0,0.0,0.0,0.0,0.0,0.0,0.0,0.0,0.0,0.0,0.0,0.0,0.0,0.0,0.0,0.0,0.0,0.0,0.0,0.0,0.0,0.0,0.0,0.0,0.0,0.0,0.0,0.0,0.0,0.0,0.0,0.0,0.0,0.0,0.0,0.0,0.9685,0.9701,0.9707,0.0,0.9606,0.0,0.0,0.0,0.0,0.0,0.0,0.0,0.0,0.0,0.0,0.0,0.0,0.0,0.0,0.0,0.0,0.0,0.0,0.0,0.0,0.0,0.0,0.0,0.0,0.0,0.0,0.0,0.0,0.0,0.0,0.0,0.0,0.0,0.0,0.0,0.0,0.0,0.0,0.0,0.0,0.0,0.0,0.0,0.0,0.0,0.0,0.0,0.0,0.0,0.0,0.0,0.0,0.0,0.0,0.0,0.0,0.0,0.0,0.0,0.0,0.0,0.0,0.0,0.0,0.0,0.0,0.0,0.0,0.0,0.0,0.0,0.0,0.0,0.0,0.0,0.0,0.0,0.0,0.0,0.0,0.0,0.0,0.0,0.0,0.0,0.0,0.0,0.0,0.0,0.0,0.0,0.0,0.0,0.0,0.0,0.0,0.0,0.0,0.0,0.0,0.0,0.0,0.0,0.0,0.0,0.0,0.0,0.0,0.0,0.0,1.1096,1.042,0.9584,0.9165,0.0,0.0,0.0,0.0,0.0,0.0,0.0,0.0,0.0,0.0,0.0,0.0,0.0,0.0,0.0,0.0,0.0,0.0,0.0,0.0,0.0,0.0,0.0,0.0,0.0,0.0,0.0,0.0,0.0,0.0,0.0,0.0,0.0,0.0,0.0,0.0,0.0,0.0,0.0,0.0,0.0,0.0,0.0,0.0,0.0,0.0,0.0,0.0,0.0,0.0,0.0,0.0,0.0,0.0,0.0,0.0,0.0,0.0,0.0,0.0,0.0,0.0,0.0,0.0,0.0,0.0,0.0,0.0,0.0,0.0,0.0,0.0,0.0,0.0,0.0,0.0,0.0,0.0,0.0,0.0,0.0,0.0,0.0,0.0,0.0,0.0,0.0,0.0,0.0,0.0,0.0,0.0,0.0,0.0,0.0,0.0,0.0,0.0,0.0,0.0,0.0,0.0,0.0,0.0,0.0,0.0,0.0,0.0,0.0,0.0,1.205,1.1598,1.0614,0.9673,0.9051,0.8818,0.0,0.0,0.0,0.0,0.0,0.0,0.0,0.0,0.0,0.0,0.0,0.0,0.0,0.0,0.0,0.0,0.0,0.0,0.0,0.0,0.0,0.0,0.0,0.0,0.0,0.0,0.0,0.0,0.0,0.0,0.0,0.0,0.0,0.0,0.0,0.0,0.0,0.0,0.0,0.0,0.0,0.0,0.0,0.0,0.0,0.0,0.0,0.0,0.0,0.0,0.0,0.0,0.0,0.0,0.0,0.0,0.0,0.0,0.0,0.0,0.0,0.0,0.0,0.0,0.0,0.0,0.0,0.0,0.0,0.0,0.0,0.0,0.0,0.0,0.0,0.0,0.0,0.0,0.0,0.0,0.0,0.0,0.0,0.0,0.0,0.0,0.0,0.0,0.0,0.0,0.0,0.0,0.0,0.0,0.0,0.0,0.0,0.0,0.0,0.0,0.0,0.0,0.0,0.0,0.0,0.0,0.0,0.0,0.0,1.0999,1.0203,0.9812,0.992,0.9659,0.0,0.0,0.0,0.0,0.0,0.0,0.0,0.0,0.0,0.0,0.0,0.0,0.0,0.0,0.0,0.0,0.0,0.0,0.0,0.0,0.0,0.0,0.0,0.0,0.0,0.0,0.0,0.0,0.0,0.0,0.0,0.0,0.0,0.0,0.0,0.0,0.0,0.0,0.0,0.0,0.0,0.0,0.0,0.0,0.0,0.0,0.0,0.0,0.0,0.0,0.0,0.0,0.0,0.0,0.0,0.0,0.0,0.0,0.0,0.0,0.0,0.0,0.0,0.0,0.0,0.0,0.0,0.0,0.0,0.0,0.0,0.0,0.0,0.0,0.0,0.0,0.0,0.0,0.0,0.0,0.0,0.0,0.0,0.0,0.0,0.0,0.0,0.0,0.0,0.0,0.0,0.0,0.0,0.0,0.0,0.0,0.0,0.0,0.0,0.0,0.0,0.0,0.0,0.0,0.0,0.0,0.0,0.0,0.0,1.0859,1.0226,1.0078,1.0543,0.9562,0.8938,0.0,0.0,0.0,0.0,0.0,0.0,0.0,0.0,0.0,0.0,0.0,0.0,0.0,0.0,0.0,0.0,0.0,0.0,0.0,0.0,0.0,0.0,0.0,0.0,0.0,0.0,0.0,0.0,0.0,0.0,0.0,0.0,0.0,0.0,0.0,0.0,0.0,0.0,0.0,0.0,0.0,0.0,0.0,0.0,0.0,0.0,0.0,0.0,0.0,0.0,0.0,0.0,0.0,0.0,0.0,0.0,0.0,0.0,0.0,0.0,0.0,0.0,0.0,0.0,0.0,0.0,0.0,0.0,0.0,0.0,0.0,0.0,0.0,0.0,0.0,0.0,0.0,0.0,0.0,0.0,0.0,0.0,0.0,0.0,0.0,0.0,0.0,0.0,0.0,0.0,0.0,0.0,0.0,0.0,0.0,0.0,0.0,0.0,0.0,0.0,0.0,0.0,0.0,0.0,0.0,0.0,0.0,0.0,0.0,1.015,0.0,1.0154,0.0,0.9288,0.8524,0.0,0.0,0.0,0.0,0.0,0.0,0.0,0.0,0.0,0.0,0.0,0.0,0.0,0.0,0.0,0.0,0.0,0.0,0.0,0.0,0.0,0.0,0.0,0.0,0.0,0.0,0.0,0.0,0.0,0.0,0.0,0.0,0.0,0.0,0.0,0.0,0.0,0.0,0.0,0.0,0.0,0.0,0.0,0.0,0.0,0.0,0.0,0.0,0.0,0.0,0.0,0.0,0.0,0.0,0.0,0.0,0.0,0.0,0.0,0.0,0.0,0.0,0.0,0.0,0.0,0.0,0.0,0.0,0.0,0.0,0.0,0.0,0.0,0.0,0.0,0.0,0.0,0.0,0.0,0.0,0.0,0.0,0.0,0.0,0.0,0.0,0.0,0.0,0.0,0.0,0.0,0.0,0.0,0.0,0.0,0.0,0.0,0.0,0.0,0.0,0.0,0.0,0.0,0.0,0.0,0.0,0.0,0.0,0.9839,1.0084,1.0706,1.0322,0.8884,0.9092,0.8493,0.0,0.0,0.0,0.0,0.0,0.0,0.0,0.0,0.0,0.0,0.0,0.0,0.0,0.0,0.0,0.0,0.0,0.0,0.0,0.0,0.0,0.0,0.0,0.0,0.0,0.0,0.0,0.0,0.0,0.0,0.0,0.0,0.0,0.0,0.0,0.0,0.0,0.0,0.0,0.0,0.0,0.0,0.0,0.0,0.0,0.0,0.0,0.0,0.0,0.0,0.0,0.0,0.0,0.0,0.0,0.0,0.0,0.0,0.0,0.0,0.0,0.0,0.0,0.0,0.0,0.0,0.0,0.0,0.0,0.0,0.0,0.0,0.0,0.0,0.0,0.0,0.0,0.0,0.0,0.0,0.0,0.0,0.0,0.0,0.0,0.0,0.0,0.0,0.0,0.0,0.0,0.0,0.0,0.0,0.0,0.0,0.0,0.0,0.0,0.0,0.0,0.0,0.0,0.0,0.0,0.0,0.0,0.0,0.0,0.9688,0.9967,1.0116,0.998,0.9319,0.8818,0.0,0.0,0.0,0.0,0.0,0.0,0.0,0.0,0.0,0.0,0.0,0.0,0.0,0.0,0.0,0.0,0.0,0.0,0.0,0.0,0.0,0.0,0.0,0.0,0.0,0.0,0.0,0.0,0.0,0.0,0.0,0.0,0.0,0.0,0.0,0.0,0.0,0.0,0.0,0.0,0.0,0.0,0.0,0.0,0.0,0.0,0.0,0.0,0.0,0.0,0.0,0.0,0.0,0.0,0.0,0.0,0.0,0.0,0.0,0.0,0.0,0.0,0.0,0.0,0.0,0.0,0.0,0.0,0.0,0.0,0.0,0.0,0.0,0.0,0.0,0.0,0.0,0.0,0.0,0.0,0.0,0.0,0.0,0.0,0.0,0.0,0.0,0.0,0.0,0.0,0.0,0.0,0.0,0.0,0.0,0.0,0.0,0.0,0.0,0.0,0.0,0.0,0.0,0.0,0.0,0.0,0.0,0.0,0.0,1.0086,1.0159,1.0241,1.0388,0.9579,0.9065,0.8905,0.0,0.0,0.0,0.0,0.0,0.0,0.0,0.0,0.0,0.0,0.0,0.0,0.0,0.0,0.0,0.0,0.0,0.0,0.0,0.0,0.0,0.0,0.0,0.0,0.0,0.0,0.0,0.0,0.0,0.0,0.0,0.0,0.0,0.0,0.0,0.0,0.0,0.0,0.0,0.0,0.0,0.0,0.0,0.0,0.0,0.0,0.0,0.0,0.0,0.0,0.0,0.0,0.0,0.0,0.0,0.0,0.0,0.0,0.0,0.0,0.0,0.0,0.0,0.0,0.0,0.0,0.0,0.0,0.0,0.0,0.0,0.0,0.0,0.0,0.0,0.0,0.0,0.0,0.0,0.0,0.0,0.0,0.0,0.0,0.0,0.0,0.0,0.0,0.0,0.0,0.0,0.0,0.0,0.0,0.0,0.0,0.0,0.0,0.0,0.0,0.0,0.0,0.0,0.0,0.0,0.0,0.0,0.0,1.0989,1.1056,1.0828,1.0287,0.992,0.9332,0.0,0.0,0.0,0.0,0.0,0.0,0.0,0.0,0.0,0.0,0.0,0.0,0.0,0.0,0.0,0.0,0.0,0.0,0.0,0.0,0.0,0.0,0.0,0.0,0.0,0.0,0.0,0.0,0.0,0.0,0.0,0.0,0.0,0.0,0.0,0.0,0.0,0.0,0.0,0.0,0.0,0.0,0.0,0.0,0.0,0.0,0.0,0.0,0.0,0.0,0.0,0.0,0.0,0.0,0.0,0.0,0.0,0.0,0.0,0.0,0.0,0.0,0.0,0.0,0.0,0.0,0.0,0.0,0.0,0.0,0.0,0.0,0.0,0.0,0.0,0.0,0.0,0.0,0.0,0.0,0.0,0.0,0.0,0.0,0.0,0.0,0.0,0.0,0.0,0.0,0.0,0.0,0.0,0.0,0.0,0.0,0.0,0.0,0.0,0.0,0.0,0.0,0.0,0.0,0.0,0.0,0.0,0.0,0.0,1.1002,1.1837,1.2111,1.1724,1.0822,1.012,0.0,0.0,0.0,0.0,0.0,0.0,0.0,0.0,0.0,0.0,0.0,0.0,0.0,0.0,0.0,0.0,0.0,0.0,0.0,0.0,0.0,0.0,0.0,0.0,0.0,0.0,0.0,0.0,0.0,0.0,0.0,0.0,0.0,0.0,0.0,0.0,0.0,0.0,0.0,0.0,0.0,0.0,0.0,0.0,0.0,0.0,0.0,0.0,0.0,0.0,0.0,0.0,0.0,0.0,0.0,0.0,0.0,0.0,0.0,0.0,0.0,0.0,0.0,0.0,0.0,0.0,0.0,0.0,0.0,0.0,0.0,0.0,0.0,0.0,0.0,0.0,0.0,0.0,0.0,0.0,0.0,0.0,0.0,0.0,0.0,0.0,0.0,0.0,0.0,0.0,0.0,0.0,0.0,0.0,0.0,0.0,0.0,0.0,0.0,0.0,0.0,0.0,0.0,0.0,0.0,0.0,0.0,0.0,1.1128,1.1724,1.2645,1.3039,1.2866,1.185,1.0915,0.0,0.0,0.0,0.0,0.0,0.0,0.0,0.0,0.0,0.0,0.0,0.0,0.0,0.0,0.0,0.0,0.0,0.0,0.0,0.0,0.0,0.0,0.0,0.0,0.0,0.0,0.0,0.0,0.0,0.0,0.0,0.0,0.0,0.0,0.0,0.0,0.0,0.0,0.0,0.0,0.0,0.0,0.0,0.0,0.0,0.0,0.0,0.0,0.0,0.0,0.0,0.0,0.0,0.0,0.0,0.0,0.0,0.0,0.0,0.0,0.0,0.0,0.0,0.0,0.0,0.0,0.0,0.0,0.0,0.0,0.0,0.0,0.0,0.0,0.0,0.0,0.0,0.0,0.0,0.0,0.0,0.0,0.0,0.0,0.0,0.0,0.0,0.0,0.0,0.0,0.0,0.0,0.0,0.0,0.0,0.0,0.0,0.0,0.0,0.0,0.0,0.0,0.0,0.0,0.0,0.0,0.0,0.0,1.1623,1.2802,1.336,1.3592,1.3621,1.2766,1.1643,0.0,0.0,0.0,0.0,0.0,0.0,0.0,0.0,0.0,0.0,0.0,0.0,0.0,0.0,0.0,0.0,0.0,0.0,0.0,0.0,0.0,0.0,0.0,0.0,0.0,0.0,0.0,0.0,0.0,0.0,0.0,0.0,0.0,0.0,0.0,0.0,0.0,0.0,0.0,0.0,0.0,0.0,0.0,0.0,0.0,0.0,0.0,0.0,0.0,0.0,0.0,0.0,0.0,0.0,0.0,0.0,0.0,0.0,0.0,0.0,0.0,0.0,0.0,0.0,0.0,0.0,0.0,0.0,0.0,0.0,0.0,0.0,0.0,0.0,0.0,0.0,0.0,0.0,0.0,0.0,0.0,0.0,0.0,0.0,0.0,0.0,0.0,0.0,0.0,0.0,0.0,0.0,0.0,0.0,0.0,0.0,0.0,0.0,0.0,0.0,0.0,0.0,0.0,0.0,0.0,0.0,0.0,0.0,1.2096,1.2815,1.3561,1.3881,1.3559,1.2772,1.183,0.0,0.0,0.0,0.0,0.0,0.0,0.0,0.0,0.0,0.0,0.0,0.0,0.0,0.0,0.0,0.0,0.0,0.0,0.0,0.0,0.0,0.0,0.0,0.0,0.0,0.0,0.0,0.0,0.0,0.0,0.0,0.0,0.0,0.0,0.0,0.0,0.0,0.0,0.0,0.0,0.0,0.0,0.0,0.0,0.0,0.0,0.0,0.0,0.9439,0.0,0.0,0.0,0.0,0.0,0.0,0.0,0.0,0.0,0.0,0.0,0.0,0.0,0.0,0.0,0.0,0.0,0.0,0.0,0.0,0.0,0.0,0.0,0.0,0.0,0.0,0.0,0.0,0.0,0.0,0.0,0.0,0.0,0.0,0.0,0.0,0.0,0.0,0.0,0.0,0.0,0.0,0.0,0.0,0.0,0.0,0.0,0.0,0.0,0.0,0.0,0.0,0.0,0.0,0.0,0.0,0.0,0.0,0.0,1.2245,1.3165,1.3652,1.3911,1.3828,1.312,1.2184,0.0,0.0,0.0,0.0,0.0,0.0,0.0,0.0,0.0,0.0,0.0,0.0,0.0,0.0,0.0,0.0,0.0,0.0,0.0,0.0,0.0,0.0,0.0,0.0,0.0,0.0,0.0,0.0,0.0,0.0,0.0,0.0,0.0,0.0,0.0,0.0,0.0,0.0,0.0,0.0,0.0,0.0,0.0,0.0,0.0,0.0,0.0,0.0,0.0,0.0,0.0,0.0,0.0,0.0,0.0,0.0,0.0,0.0,0.0,0.0,0.0,0.0,0.0,0.0,0.0,0.0,0.0,0.0,0.0,0.0,0.0,0.0,0.0,0.0,0.0,0.0,0.0,0.0,0.0,0.0,0.0,0.0,0.0,0.0,0.0,0.0,0.0,0.0,0.0,0.0,0.0,0.0,0.0,0.0,0.0,0.0,0.0,0.0,0.0,0.0,0.0,0.0,0.0,0.0,0.0,0.0,0.0,1.1694,1.2311,1.3635,1.3728,1.3802,1.4075,1.352,1.2532,1.1122,0.0,0.0,0.0,0.0,0.0,0.0,0.0,0.0,0.0,0.0,0.0,0.0,0.0,0.0,0.0,0.0,0.0,0.0,0.0,0.0,0.0,0.0,0.0,0.0,0.0,0.0,0.0,0.0,0.0,0.0,0.0,0.0,0.0,0.0,0.0,0.0,0.0,0.0,0.9166,0.99,0.0,0.0,0.0,0.0,0.0,0.0,0.0,0.0,1.0261,0.0,0.0,0.0,0.0,0.0,0.0,0.0,0.0,0.0,0.0,0.0,0.0,0.0,0.0,0.0,0.0,0.0,0.0,0.0,0.0,0.0,0.0,0.0,0.0,0.0,0.0,0.0,0.0,0.0,0.0,0.0,0.0,0.0,0.0,0.0,0.0,0.0,0.0,0.0,0.0,0.0,0.0,0.0,0.0,0.0,0.0,0.0,0.0,0.0,0.0,0.0,0.0,0.0,0.0,0.0,0.0,1.1778,1.1596,1.2319,1.3975,1.3795,1.3822,1.4068,1.352,1.2625,1.141,0.0,0.0,0.0,0.0,0.0,0.0,0.0,0.0,0.0,0.0,0.0,0.0,0.0,0.0,0.0,0.0,0.0,0.0,0.0,0.0,0.0,0.0,0.0,0.0,0.0,0.0,0.0,0.0,0.0,0.0,0.0,0.0,0.0,0.0,0.0,0.0,0.0,0.0,0.0,1.139,1.1977,0.0,0.0,0.0,0.0,0.0,0.0,0.0,0.0,1.0421,0.0,0.0,0.0,0.0,0.0,0.0,0.0,0.0,0.0,0.0,0.0,0.0,0.0,0.0,0.0,0.0,0.0,0.0,0.0,0.0,0.0,0.0,0.0,0.0,0.0,0.0,0.0,0.0,0.0,0.0,0.0,0.0,0.0,0.0,0.0,0.0,0.0,0.0,0.0,0.0,0.0,0.0,0.0,0.0,0.0,0.0,0.0,0.0,0.0,0.0,0.0,0.0,0.0,0.0,0.0,1.1221,1.1598,1.2355,1.3665,1.3574,1.3639,1.3893,1.3134,1.2325,0.0,0.0,0.0,0.0,0.0,0.0,0.0,0.0,0.0,0.0,0.0,0.0,0.0,0.0,0.0,0.0,0.0,0.0,0.0,0.0,0.0,0.0,0.0,0.0,0.0,0.0,0.0,0.0,0.0,0.0,0.0,0.0,0.0,0.0,0.0,0.0,0.0,0.0,0.0,0.0,1.1818,1.2191,1.2567,0.0,0.0,0.0,0.0,0.0,0.0,1.0942,1.0768,0.0,0.0,0.0,0.0,0.0,0.0,0.0,0.0,0.0,0.0,0.0,0.0,0.0,0.0,0.0,0.0,0.0,0.0,0.0,0.0,0.0,0.0,0.0,0.0,0.0,0.0,0.0,0.0,0.0,0.0,0.0,0.0,0.0,0.0,0.0,0.0,0.0,0.0,0.0,0.0,0.0,0.0,0.0,0.0,0.0,0.0,0.0,0.0,0.0,0.0,0.0,0.0,0.0,0.0,0.0,1.0837,1.1468,1.2286,1.3332,1.3398,1.3438,1.3633,1.2791,1.1992,0.0,0.0,0.0,0.0,0.0,0.0,0.0,0.0,0.0,0.0,0.0,0.0,0.0,0.0,0.0,0.0,0.0,0.0,0.0,0.0,0.0,0.0,0.0,0.0,0.0,0.0,0.0,0.0,0.0,0.0,0.0,0.0,0.0,0.0,0.0,0.0,0.0,0.0,0.0,0.0,0.0,1.2425,1.2775,1.2472,0.0,0.0,0.0,0.0,1.1817,1.1677,0.0,0.0,0.0,0.0,0.0,0.0,0.0,0.0,0.0,0.0,0.0,0.0,0.0,0.0,0.0,0.0,0.0,0.0,0.0,0.0,0.0,0.0,0.0,0.0,0.0,0.0,0.0,0.0,0.0,0.0,0.0,0.0,0.0,0.0,0.0,0.0,0.0,0.0,0.0,0.0,0.0,0.0,0.0,0.0,0.0,0.0,0.0,0.0,0.0,0.0,0.0,0.0,0.0,0.0,0.0,0.0,1.0696,1.1146,1.206,1.3307,1.3241,1.3187,1.3359,1.2739,1.1965,0.0,0.0,0.0,0.0,0.0,0.0,0.0,0.0,0.0,0.0,0.0,0.0,0.0,0.0,0.0,0.0,0.0,0.0,0.0,0.0,0.0,0.0,0.0,0.0,0.0,0.0,0.0,0.0,0.0,0.0,0.0,0.0,0.0,0.0,0.0,0.0,0.0,0.0,0.0,0.0,0.0,1.3567,1.2923,1.2926,1.3046,0.0,0.0,1.2739,1.33,1.328,0.0,0.0,0.0,0.0,0.0,0.0,0.0,0.0,0.0,0.0,0.0,0.0,0.0,0.0,0.0,0.0,0.0,0.0,0.0,0.0,0.0,0.0,0.0,0.0,0.0,0.0,0.0,0.0,0.0,0.0,0.0,0.0,0.0,0.0,0.0,0.0,0.0,0.0,0.0,0.0,0.0,0.0,0.0,0.0,0.0,0.0,0.0,0.0,0.0,0.0,0.0,0.0,0.0,0.0,0.0,0.9342,1.0424,1.1254,1.2117,1.2954,1.3064,1.3012,1.2991,1.228,1.1494,0.0,0.0,0.0,0.0,0.0,0.0,0.0,0.0,0.0,0.0,0.0,0.0,0.0,0.0,0.0,0.0,0.0,0.0,0.0,0.0,0.0,0.0,0.0,0.0,0.0,0.0,0.0,0.0,0.0,0.0,0.0,0.0,0.0,0.0,0.0,0.0,0.0,0.0,0.0,0.0,0.0,0.0,1.3734,1.3728,0.0,0.0,0.0,1.3407,1.3828,0.0,0.0,0.0,0.0,0.0,0.0,0.0,0.0,0.0,0.0,0.0,0.0,0.0,0.0,0.0,0.0,0.0,0.0,0.0,0.0,0.0,0.0,0.0,0.0,0.0,0.0,0.0,0.0,0.0,0.0,0.0,0.0,0.0,0.0,0.0,0.0,0.0,0.0,0.0,0.0,0.0,0.0,0.0,0.0,0.0,0.0,0.0,0.0,0.0,0.0,0.0,0.0,0.0,0.0,0.0,0.0,0.0,1.0337,1.1384,1.2174,1.2681,1.2881,1.2884,1.2543,1.1916,0.0,0.0,0.0,0.0,0.0,0.0,0.0,0.0,0.0,0.0,0.0,0.0,0.0,0.0,0.0,0.0,0.0,0.0,0.0,0.0,0.0,0.0,0.0,0.0,0.0,0.0,0.0,0.801,0.0,0.0,0.0,0.0,0.0,0.0,0.0,0.0,0.0,0.0,0.0,0.0,0.0,0.0,1.3581,1.4309,1.4349,1.4409,0.0,0.0,1.4075,1.4369,1.4289,1.3788,0.0,0.0,0.0,0.0,0.0,0.0,0.0,0.0,0.0,0.0,0.0,0.0,0.0,0.0,0.0,0.0,0.0,0.0,0.0,0.0,0.0,0.0,0.0,0.0,0.0,0.0,0.0,0.0,0.0,0.0,0.0,0.0,0.0,0.0,0.0,0.0,0.0,0.0,0.0,0.0,0.0,0.0,0.0,0.0,0.0,0.0,0.0,0.0,0.0,0.0,0.0,0.0,0.0,0.0,0.0,1.026,1.1384,1.218,1.2681,1.2705,1.2547,1.2197,1.1853,1.1051,0.0,0.0,0.0,0.0,0.0,0.0,0.0,0.0,0.0,0.0,0.0,0.0,0.0,0.0,0.0,0.0,0.0,0.0,0.0,0.0,0.0,0.0,0.0,0.0,0.0,0.0,0.0,0.0,0.0,0.0,0.0,0.0,0.0,0.0,0.0,0.0,0.0,0.0,0.0,0.0,0.0,1.3741,1.4068,1.4569,1.501,0.0,1.5077,1.4977,1.5264,1.5511,1.5003,1.3039,0.0,0.0,0.0,0.0,0.0,0.0,0.0,0.0,0.0,0.0,0.0,0.0,0.0,0.0,0.0,0.0,0.0,0.0,0.0,0.0,0.0,0.0,0.0,0.0,0.0,0.0,0.0,0.0,0.0,0.0,0.0,0.0,0.0,0.0,0.0,0.0,0.0,0.0,0.0,0.0,0.0,0.0,0.0,0.0,0.0,0.0,0.0,0.0,0.0,0.0,0.0,0.0,0.0,0.9232,1.0271,1.133,1.218,1.2668,1.2548,1.2288,1.2006,1.1621,1.0811,0.0,0.0,0.0,0.0,0.0,0.0,0.0,0.0,0.0,0.0,0.0,0.0,0.0,0.0,0.0,0.0,0.0,0.0,0.0,0.0,0.0,0.0,0.0,0.0,0.0,0.0,0.0,0.0,1.0303,1.0463,1.0569,0.0,0.0,0.0,0.0,0.0,0.0,0.0,0.0,0.0,0.0,1.4155,1.4803,1.509,0.0,0.0,1.5418,1.5331,1.5611,1.5304,1.4629,1.348,1.2739,0.0,0.0,0.0,0.0,0.0,0.0,0.0,0.0,0.0,0.0,0.0,0.0,0.0,0.0,0.0,0.0,0.0,0.0,0.0,0.0,0.0,0.0,0.0,0.0,0.0,0.0,0.0,0.0,0.0,0.0,0.0,0.0,0.0,0.0,0.0,0.0,0.0,0.0,0.0,0.0,0.0,0.0,0.0,0.0,0.0,0.0,0.0,0.0,0.0,0.0,0.0,0.0,0.916,1.0212,1.1187,1.2023,1.2463,1.2294,1.2071,1.1799,1.1477,1.0754,0.0,0.0,0.0,0.0,0.0,0.0,0.0,0.0,0.0,0.0,0.0,0.0,0.0,0.0,0.0,0.0,0.0,0.0,0.0,0.0,0.0,0.0,0.0,0.0,0.0,0.0,0.0,0.0,1.0785,1.0637,1.012,0.0,0.0,0.0,0.0,0.0,0.0,0.0,0.0,0.0,0.0,1.4442,1.5305,1.5431,1.5598,1.5704,1.5485,1.5471,1.5671,1.5093,1.4462,1.3715,0.0,0.0,0.0,0.0,0.0,0.0,0.0,0.0,0.0,0.0,0.0,0.0,0.0,0.0,0.0,0.0,0.0,0.0,0.0,0.0,0.0,0.0,0.0,0.0,0.0,0.0,0.0,1.0072,0.0,0.0,0.9092,0.0,0.0,0.0,0.0,0.0,0.0,0.0,0.0,0.0,0.0,0.0,0.0,0.0,0.0,0.0,0.0,0.0,0.0,0.0,0.0,0.0,0.0,0.9076,0.9874,1.1003,1.1679,1.1938,1.1932,1.1805,1.1552,1.1419,1.0978,1.006,0.0,0.0,0.0,0.0,0.0,0.0,0.0,0.0,0.0,0.0,0.0,0.0,0.0,0.0,0.0,0.0,0.0,0.0,0.0,0.0,0.0,0.0,0.0,0.0,0.0,0.0,1.1342,1.1066,1.0625,0.0,0.0,0.0,0.0,0.0,0.0,0.0,0.0,0.0,0.0,1.3783,1.4461,1.5308,1.5629,1.5724,1.554,1.5398,1.5404,1.5424,1.5186,1.4708,0.0,0.0,0.0,0.0,0.0,0.0,0.0,0.0,0.0,0.0,0.0,0.0,0.0,0.0,0.0,0.0,0.0,0.0,0.0,0.0,0.0,0.0,0.0,0.0,0.0,0.0,0.0,1.2137,1.1588,0.0,0.0,0.0,0.0,0.0,0.0,0.0,0.0,0.0,0.0,0.0,1.2558,1.3314,0.0,0.0,0.0,0.0,0.0,0.0,0.0,0.0,0.0,0.0,0.0,0.0,0.907,0.988,1.0917,1.1655,1.1908,1.1751,1.1618,1.1534,1.1248,1.0842,1.0164,0.0,0.0,0.0,0.0,0.0,0.0,0.0,0.0,0.0,0.0,0.0,0.0,0.0,0.0,0.0,0.0,0.0,0.0,0.0,0.0,0.0,0.0,0.0,0.0,0.0,1.0394,0.0,0.0,0.0,0.0,0.0,0.0,0.0,0.0,0.0,0.0,0.0,1.2459,1.3483,1.411,1.4635,1.5114,1.5267,1.5274,0.0,0.0,0.0,0.0,0.0,0.0,0.0,0.0,0.0,0.0,0.0,0.0,0.0,0.0,1.3736,1.1916,1.1432,1.1332,1.142,0.0,0.0,0.0,0.0,0.0,0.0,0.0,0.0,0.0,0.0,0.0,0.0,0.0,0.0,1.3667,1.3442,1.2505,0.0,0.0,0.0,0.0,0.0,0.0,0.0,0.0,1.3077,1.3645,1.3775,1.4427,1.4275,0.0,1.3485,1.218,0.0,0.0,0.0,0.0,0.0,0.0,0.0,0.0,0.916,0.988,1.0894,1.1467,1.1624,1.1473,1.1383,1.1377,1.1101,1.0854,1.049,1.03,1.0171,0.0,0.0,0.0,0.0,0.0,0.0,0.0,0.0,0.0,0.0,0.0,0.0,0.0,0.0,0.0,0.0,0.0,0.0,0.0,0.0,0.0,0.0,0.0,1.0569,0.0,0.0,0.0,0.0,0.0,0.0,0.0,0.0,0.0,1.139,1.2226,1.3109,1.3831,1.4327,1.4684,1.4962,0.0,0.0,0.0,0.0,0.0,0.0,0.0,1.4157,1.444,1.4172,1.3901,1.3894,1.4489,1.4911,1.452,0.0,0.0,1.3176,1.2692,1.2587,1.2692,1.3052,1.3318,1.3244,1.3369,1.3564,0.0,0.0,0.0,0.0,0.0,0.0,0.0,0.0,1.4911,1.4977,0.0,1.3761,0.0,0.0,0.0,0.0,1.2169,1.3554,0.0,0.0,1.5377,1.5677,1.4621,1.4965,1.4754,1.4141,1.478,1.39,1.1613,0.9533,0.0,0.0,0.0,0.0,0.0,0.0,0.9403,0.9892,1.0719,1.1117,1.1123,1.1123,1.1117,1.1111,1.1004,1.0962,1.1015,1.1361,1.1148,1.0327,1.0697,0.0,0.0,0.0,0.0,0.0,0.0,0.0,0.0,0.0,0.0,0.0,0.0,0.0,0.0,0.0,0.0,0.0,0.0,0.0,0.0,1.1094,0.0,0.0,0.0,0.0,0.0,0.0,0.0,0.0,0.0,0.0,1.2104,1.2828,1.3607,1.4223,0.0,0.0,0.0,0.0,1.4987,1.4706,1.4678,1.4697,1.4968,1.4802,1.4678,1.4943,0.0,0.0,1.4437,1.4781,1.4974,1.4455,1.4817,1.5029,1.4981,1.4472,1.4238,1.4478,1.4231,1.4328,1.4469,1.3713,1.3308,1.9522,0.0,0.0,0.0,0.0,1.7075,1.7664,1.8626,1.8338,1.7728,1.6918,1.6126,0.0,0.0,0.0,0.0,0.0,0.0,1.4596,1.4758,1.5034,1.5213,1.5369,1.5532,1.5453,1.5184,1.4947,1.4098,1.2691,1.1329,0.9824,0.8241,0.0,0.0,0.0,0.0,0.9687,1.0212,1.081,1.1117,1.1117,1.1117,1.1117,1.1111,1.0931,1.0783,1.0765,1.1163,1.1372,1.1368,1.1112,0.0,0.0,0.0,0.0,0.0,0.0,0.0,0.0,0.0,0.0,0.0,0.0,0.0,0.0,0.0,0.0,0.0,0.0,0.0,1.08,1.0651,1.0516,0.0,0.0,0.0,0.0,0.0,0.0,0.0,0.0,0.0,1.3256,1.3548,1.3902,0.0,0.0,1.44,1.4394,1.4496,1.4569,1.4667,1.4728,0.0,1.5034,1.4819,1.4783,1.505,1.5209,1.539,1.5427,1.5565,1.5614,1.5445,1.4931,1.4495,1.4467,1.399,1.3701,1.3746,1.3217,1.2683,1.2764,1.273,1.2661,2.2602,2.0636,1.9262,1.8987,1.9468,1.9468,1.9829,2.0406,2.0076,1.9506,1.8794,1.7871,1.6922,1.5875,1.5736,0.0,0.0,0.0,1.623,1.6561,1.6179,1.5929,1.5934,1.6007,1.5896,1.5707,1.53,1.4511,1.3425,1.2756,1.1506,0.9593,0.0,0.0,0.9082,0.9658,1.0209,1.0797,1.122,1.1383,1.128,1.1166,1.1117,1.1105,1.0954,1.0828,1.0713,1.1027,1.1347,1.1578,1.1526,1.1285,0.0,0.0,0.0,0.0,0.0,0.0,0.0,0.0,0.0,0.0,0.0,0.8562,0.7834,0.0,0.0,0.0,0.9392,1.018,1.1139,1.086,0.0,0.0,0.0,0.0,0.0,0.0,0.0,1.2227,1.2869,1.3404,1.3817,1.3987,1.4123,1.428,1.4298,1.4298,1.4298,0.0,1.4395,1.4672,1.4714,1.4642,1.4572,1.4401,1.4282,1.4014,1.4162,1.43,1.4443,1.4476,1.4476,1.4482,1.3943,1.3511,1.3511,1.2849,1.246,1.2885,1.2563,1.2224,1.2126,1.1896,1.176,2.523,2.4616,2.2092,2.1283,2.1596,2.1596,2.1596,2.1548,2.0701,2.0593,2.0862,1.9292,1.8862,1.9242,1.8082,0.0,1.8877,1.8489,1.8315,1.846,1.8128,1.7362,1.636,1.6242,1.6097,1.5721,1.569,1.5057,1.3959,1.3803,1.2899,1.1234,1.0212,0.9892,1.0381,1.0647,1.1045,1.1552,1.1793,1.1793,1.1534,1.128,1.1135,1.1117,1.1093,1.096,1.0725,1.0925,1.1129,1.1283,1.1875,1.1801,1.1089,0.0,0.0,0.0,0.0,0.0,0.0,0.0,0.0,0.0,0.0,0.0,0.0,0.0,0.0,0.0,1.0525,0.0,1.1768,1.141,0.0,0.0,0.0,1.1303,1.1432,1.2123,1.2673,1.2771,0.0,0.0,1.3936,1.4046,1.4196,1.4196,1.4202,1.4196,1.4196,1.4004,1.4201,1.4313,1.4447,1.4217,1.3739,1.3704,1.344,1.2665,1.2417,1.2516,1.2521,1.2526,1.2417,1.2526,1.2304,1.2309,1.2309,1.1311,1.0891,1.1851,1.1969,1.1973,1.1855,1.1101,1.0453,2.7171,2.6921,2.5473,2.4218,2.3207,2.3207,2.3207,2.3195,2.2675,2.218,2.1631,2.0986,2.0564,2.0468,2.0042,2.0138,2.0633,1.9013,1.8303,1.8274,1.6908,1.628,1.6228,1.5963,1.5902,1.6055,1.5801,1.5289,1.4599,1.4052,1.3342,1.2492,1.1698,1.1214,1.0948,1.1196,1.1504,1.1823,1.189,1.1793,1.154,1.1467,1.1329,1.1117,1.0918,1.0785,1.0719,1.0754,1.0896,1.1194,1.1584,1.1715,1.1456,1.0714,0.0,0.0,0.0,0.0,0.0,0.0,0.0,0.0,0.0,0.9706,0.8123,0.0,1.015,0.0,1.074,1.1338,1.1896,1.1358,0.0,0.0,1.2177,1.2157,1.2911,1.3291,1.3505,1.3592,1.3966,1.4201,1.4208,1.3573,1.3119,1.3125,1.3125,1.3119,1.3022,1.2436,1.2092,1.2451,1.2537,1.2595,1.2671,1.2768,1.2567,1.2408,1.2417,1.2417,1.2417,1.2417,1.2417,1.2309,1.1651,1.1214,1.1109,1.0014,0.914,0.9361,0.9467,0.9467,0.9471,0.9034,0.8702,2.7789,2.7709,2.6633,2.5679,2.4866,2.4594,2.4246,2.3839,2.3487,2.2844,2.1969,2.1654,2.1393,2.1177,2.1109,2.1231,2.1521,1.9952,1.9088,1.8824,1.7372,1.6635,1.6428,1.6238,1.6254,1.6436,1.6246,1.5825,1.5188,1.4545,1.3892,1.3248,1.2599,1.2119,1.1836,1.186,1.2005,1.2264,1.2155,1.1974,1.1715,1.1588,1.1341,1.0954,1.0797,1.061,1.0381,1.0244,1.0283,1.0588,1.0986,1.1207,1.1249,1.0822,1.0348,0.0,0.0,0.0,0.0,0.0,0.0,0.0,0.0,0.0,0.0,0.0,1.0329,1.0514,1.1084,1.1668,1.2253,1.2029,1.2167,1.3123,1.3018,1.3046,1.361,1.3884,1.4017,1.4063,1.4208,1.4298,1.4298,1.3414,1.2732,1.2732,1.1853,1.1458,1.195,1.156,1.1321,1.1718,1.1794,1.1731,1.1702,1.1219,1.0789,1.0895,1.0785,1.0899,1.0789,1.0789,1.0789,1.0789,1.0237,0.9688,0.9688,0.8923,0.8263,0.8263,0.8156,0.8156,0.8266,0.8156,0.8048,2.7908,2.7789,2.6769,2.6289,2.6151,2.5523,2.4778,2.4073,2.3664,2.3001,2.2165,2.1908,2.1767,2.1778,2.1697,2.1843,2.1921,2.0785,2.0004,1.9511,1.8399,1.7448,1.673,1.673,1.673,1.673,1.673,1.6402,1.5816,1.5151,1.4482,1.3822,1.3137,1.279,1.2693,1.2475,1.2475,1.2699,1.2481,1.2234,1.1974,1.1715,1.1323,1.0803,1.0707,1.0423,0.9844,0.9604,0.9605,0.981,1.0286,1.0593,1.0669,1.1035,1.0831,0.0,0.9485,0.0,0.0,0.0,0.0,0.0,0.0,0.0,0.0,1.0844,1.0791,1.1141,1.1688,1.219,1.2599,1.2881,1.3242,1.3532,1.3767,1.3918,1.396,1.4159,1.4298,1.4298,1.4196,1.41,1.401,1.3028,1.2242,1.2047,1.0583,0.9801,1.0583,1.0681,1.0726,1.1321,1.1426,1.0996,1.0498,0.9588,0.9047,0.8937,0.9044,0.8937,0.8933,0.8933,0.8933,0.8826,0.8709,0.8484,0.8484,0.8152,0.7934,0.7934,0.7715,0.7715,0.7826,0.7934,0.7934,2.8457,2.8327,2.731,2.6676,2.6321,2.5324,2.4802,2.4637,2.3895,2.3341,2.2802,2.2728,2.2665,2.2518,2.2285,2.219,2.1964,2.0313,1.9418,1.9265,1.7683,1.6894,1.6738,1.673,1.673,1.673,1.673,1.6656,1.6484,1.5816,1.5151,1.4489,1.3808,1.3222,1.2705,0.0,0.0,0.0,1.2656,1.2506,1.224,1.1986,1.1588,1.1051,1.0622,0.0,0.9586,0.9508,0.9421,0.9273,0.9965,0.0,0.0,0.0,0.0,0.0,0.0,0.0,0.0,0.0,0.0,0.0,1.1243,1.0834,1.0701,1.1603,1.2104,1.2009,1.2583,1.2972,1.3016,1.3031,1.3314,1.3773,1.3882,1.399,1.4195,1.4268,1.4298,1.4298,1.3511,1.3022,1.292,1.1361,1.0293,1.019,0.9118,0.8432,0.8627,0.8726,0.8751,0.9049,0.9411,0.9505,0.9251,0.9047,0.8937,0.8937,0.8937,0.8823,0.8598,0.8598,0.8488,0.8266,0.8156,0.8045,0.8156,0.7826,0.7718,0.7715,0.7493,0.7379,0.7604,0.749,0.7379,2.8587,2.8522,2.7723,2.7229,0.0,2.5453,2.4826,2.4683,2.3959,2.3372,2.3001,2.2927,2.2777,2.2703,2.2478,2.2327,2.2025,2.0294,1.9423,1.9186,1.7521,1.673,1.673,1.673,1.673,1.673,1.673,1.673,1.6648,1.5741,1.4985,1.4643,1.373,1.3045,1.2705,1.2705,1.2705,1.2705,1.2705,1.2572,1.2312,1.2053,1.1661,1.1129,1.0731,0.0,0.0,0.0,0.0,0.0,0.0,0.0,0.0,0.0,0.0,1.0214,1.0415,1.0639,1.0721,1.0794,1.1162,1.2048,1.2029,1.1686,1.1147,1.2051,1.2609,1.2475,1.3018,1.3423,1.3465,1.3628,1.3809,1.4063,1.4099,1.4159,1.4268,1.3806,1.3511,1.3414,1.263,1.195,1.1755,1.0391,0.941,0.9209,0.8326,0.7637,0.764,0.7839,0.8147,0.8438,0.874,0.8823,0.8712,0.8709,0.8602,0.8491,0.8491,0.838,0.8266,0.8263,0.8152,0.8045,0.7934,0.7826,0.7826,0.7604,0.7382,0.7382,0.7268,0.7268,0.7382,0.7268,0.7154,2.8912,2.8833,2.8252,2.7801,2.7465,2.5758,2.4791,2.4348,2.3728,0.0,0.0,2.2777,2.2703,2.2628,2.2402,2.2262,2.1949,2.0304,1.9423,1.9256,1.7529,1.673,1.673,1.673,1.673,1.673,1.673,1.673,1.6648,1.5477,1.4817,1.4566,1.3464,1.279,1.2705,1.2705,1.2705,1.2705,1.2705,1.2602,1.2385,1.2077,1.1685,1.1196,1.0882,1.0369,0.9586,0.9598,0.9394,0.8987,0.9361,0.965,0.9822,1.0259,1.0661,1.0994,1.1279,1.1538,1.1813,1.1655,1.1788,1.2217,1.2499,1.2482,1.2049,1.245,1.2826,1.2807,1.3296,1.3688,1.3948,1.4165,1.4298,1.4298,1.4298,1.4298,1.4202,1.3318,1.2635,1.2533,1.1556,1.0676,1.048,0.9509,0.8821,0.8513,0.773,0.7235,0.7244,0.7594,0.8021,0.8249,0.852,0.8602,0.8488,0.8374,0.8263,0.8045,0.8045,0.7937,0.7937,0.7934,0.7934,0.7823,0.7715,0.7604,0.7496,0.7379,0.7265,0.7154,0.7154,0.7154,0.7154,0.7154,0.7154,3.0147,3.0038,2.9012,2.8379,2.7846,2.5822,2.4371,2.3287,2.315,2.3075,2.3001,2.2777,2.2628,2.2402,2.2252,2.2035,2.1721,2.0138,1.9344,1.9177,1.7521,1.673,1.673,1.673,1.673,1.673,1.673,1.673,1.6566,1.5899,1.5318,1.4657,1.3899,1.3307,1.279,1.2705,1.2705,1.2705,1.2705,1.2687,1.2644,1.2174,1.1781,1.1473,1.0985,1.0459,0.985,1.0097,1.0012,0.973,1.005,1.0092,0.9916,1.0562,1.076,1.0226,1.1149,1.1791,1.1985,1.1857,1.1974,1.2265,1.2569,1.2798,1.3014,1.2983,1.3167,1.3375,1.3664,1.3954,1.4208,1.4274,1.4298,1.4298,1.4298,1.4298,1.4202,1.3125,1.2339,1.2145,1.0476,0.9103,0.9004,0.8223,0.7534,0.7434,0.7235,0.7135,0.7169,0.7443,0.7691,0.7778,0.7982,0.8134,0.8029,0.8042,0.8033,0.8048,0.7919,0.7793,0.7683,0.7584,0.7587,0.7371,0.726,0.7268,0.7268,0.7268,0.7154,0.7154,0.7154,0.7154,0.7154,0.7154,0.7154,3.0733,3.0378,2.982,2.9466,2.9082,2.7523,2.5816,2.4123,2.4048,2.3668,2.3001,2.2703,2.2478,2.2402,2.2101,2.1873,2.1721,2.006,1.9256,1.9177,1.7529,1.673,1.673,1.673,1.673,1.673,1.673,1.673,1.6648,1.5982,1.5401,1.465,1.3639,1.296,1.2705,1.2705,1.2705,1.2705,1.2705,1.2705,1.2693,1.2192,1.1866,1.1739,1.122,1.0755,1.0381,1.0478,1.0417,1.0164,1.0266,1.0339,1.0369,1.0682,1.083,1.0785,1.1345,1.1738,1.1908,1.2082,1.2228,1.2481,1.2632,1.2808,1.3101,1.3285,1.3381,1.3519,1.3876,1.4159,1.4286,1.4298,1.4298,1.4298,1.4298,1.41,1.3414,1.2436,1.1463,1.0681,0.9209,0.8028,0.7726,0.7335,0.6939,0.6836,0.6739,0.6736,0.6739,0.6893,0.7223,0.7458,0.7761,0.7801,0.7719,0.7716,0.7607,0.75,0.744,0.7297,0.7189,0.7231,0.7169,0.7177,0.7108,0.7152,0.7154,0.7154,0.7154,0.7154,0.7154,0.7154,0.7154,0.7154,0.7154,3.1716,3.1062,3.0911,3.0431,2.9728,2.8756,2.7262,2.5522,2.5096,2.431,2.3389,2.2671,2.2402,2.2327,2.1959,2.1807,2.1568,2.006,1.9256,1.9097,1.7521,1.673,1.673,1.673,1.673,1.673,1.673,1.673,1.6648,1.6041,1.5296,1.4475,1.347,1.2875,1.2705,1.2705,1.2705,1.2705,1.2705,1.2705,1.2687,1.2246,1.2005,1.198,1.1492,1.1111,1.0912,1.084,1.0713,1.0526,1.0497,1.0695,1.0888,1.0954,1.1178,1.157,1.1618,1.1733,1.1992,1.2252,1.2487,1.2687,1.2705,1.2825,1.3097,1.3363,1.3544,1.3646,1.4026,1.4292,1.4298,1.4298,1.4202,1.4004,1.3902,1.3318,1.2339,1.1263,1.019,0.9114,0.8031,0.7141,0.6842,0.6742,0.6642,0.6437,0.6437,0.6437,0.6448,0.6524,0.6777,0.7138,0.7518,0.757,0.7263,0.7263,0.7155,0.6942,0.6874,0.6834,0.6834,0.6893,0.6934,0.6953,0.7037,0.7095,0.7114,0.7141,0.7152,0.7154,0.7154,0.7154,0.7154,0.7154,0.7154,3.3786,3.2919,3.2414,3.0881,2.9061,2.8651,2.7875,2.6743,2.5408,2.4653,2.4389,2.3026,2.2338,2.2111,2.1883,2.1807,2.1645,2.0051,1.9335,1.9097,1.7529,1.673,1.673,1.673,1.673,1.673,1.673,1.673,1.6648,1.5988,1.5072,1.3893,1.3646,1.33,1.279,1.2705,1.2705,1.2705,1.2705,1.2705,1.2687,1.2427,1.2282,1.2276,1.1769,1.1486,1.1437,1.1214,1.1069,1.1063,1.1274,1.1425,1.1467,1.1673,1.183,1.1884,1.189,1.2005,1.2258,1.2524,1.2668,1.2699,1.2717,1.2843,1.3115,1.3375,1.3622,1.3857,1.4135,1.4292,1.4298,1.4202,1.3811,1.2926,1.263,1.2052,1.1072,0.9596,0.8609,0.8517,0.7332,0.6439,0.6439,0.6439,0.6439,0.6437,0.6437,0.6437,0.6439,0.6453,0.6472,0.6603,0.6763,0.6901,0.692,0.6817,0.6817,0.6817,0.6806,0.6774,0.6768,0.6787,0.682,0.6831,0.6918,0.6991,0.7021,0.7076,0.7254,0.7135,0.7141,0.7154,0.7154,0.7154,0.7154,3.4846,3.4013,3.3782,3.2982,3.1707,3.1199,3.0125,2.8756,2.768,2.6273,2.4751,2.4011,2.3166,2.2111,2.1883,2.1807,2.1731,2.0537,1.9737,1.9256,1.7997,1.7204,1.673,1.673,1.673,1.673,1.673,1.673,1.6566,1.6034,1.5448,1.4894,1.4489,1.3984,1.3307,1.3307,1.3137,1.2705,1.2705,1.2705,1.2687,1.2421,1.2284,1.2294,1.195,1.1763,1.1751,1.1648,1.1588,1.1594,1.1703,1.1757,1.1763,1.186,1.1992,1.2143,1.2306,1.2427,1.2536,1.2644,1.2705,1.2705,1.2856,1.3067,1.3243,1.3318,1.3386,1.3631,1.3765,1.3823,1.3727,1.313,1.2538,1.2052,1.1551,1.0769,0.969,0.9004,0.8414,0.763,0.7039,0.6539,0.6437,0.6437,0.6437,0.6437,0.6437,0.6437,0.6437,0.6437,0.6437,0.6448,0.6529,0.6608,0.6673,0.6695,0.6695,0.6681,0.663,0.6586,0.6603,0.666,0.6695,0.6695,0.6798,0.6869,0.6877,0.697,0.7054,0.6958,0.7127,0.7154,0.7154,0.7154,0.7154,3.593,3.5145,3.4633,3.4177,3.3728,3.296,3.1901,3.0533,2.9436,2.7728,2.5843,2.5304,2.422,2.2756,2.2088,2.1883,2.1721,2.0934,2.0216,1.9502,1.847,1.7691,1.7049,1.6812,1.673,1.673,1.673,1.673,1.6648,1.6229,1.5899,1.565,1.5235,1.465,1.4068,1.3815,1.347,1.3033,1.2784,1.2705,1.2699,1.2516,1.2427,1.2415,1.2168,1.2029,1.2023,1.1962,1.1926,1.1926,1.1986,1.2029,1.2029,1.2095,1.2222,1.2403,1.2596,1.2705,1.2705,1.2619,1.2534,1.2552,1.2638,1.2709,1.3001,1.294,1.2997,1.3204,1.3152,1.3152,1.3147,1.2457,1.1765,1.1268,1.0574,0.969,0.8414,0.8216,0.7723,0.6839,0.6642,0.6642,0.6439,0.6437,0.6437,0.6437,0.6437,0.6437,0.6437,0.6437,0.6437,0.6437,0.6439,0.6472,0.6551,0.657,0.6567,0.6556,0.6497,0.6461,0.6437,0.6526,0.657,0.6581,0.6684,0.6747,0.6658,0.6844,0.6521,0.6342,0.6401,0.6581,0.6038,0.6374,0.6596,3.7365,3.6261,3.4707,3.4109,3.3796,3.2861,3.2277,3.1852,2.9751,2.865,2.8175,2.6745,2.5302,2.3895,2.2724,2.2025,2.1731,2.0934,2.0537,2.0216,1.8789,1.7997,1.7925,1.7123,1.6738,1.6738,1.673,1.673,1.673,1.6656,1.6319,1.5733,1.565,1.5318,1.465,1.4068,1.3711,1.3516,1.3033,1.2705,1.2699,1.2699,1.2693,1.2644,1.2433,1.2294,1.2276,1.2059,1.1944,1.1938,1.2174,1.2294,1.2312,1.2524,1.265,1.2674,1.2687,1.2705,1.2619,1.2272,1.2015,1.202,1.1721,1.1641,1.2166,1.2189,1.2312,1.2818,1.2273,1.2175,1.2565,1.2268,1.1575,1.0194,0.9702,0.8715,0.7138,0.6836,0.6537,0.6437,0.6439,0.6437,0.6437,0.6437,0.6437,0.6437,0.6437,0.6437,0.6437,0.6437,0.6337,0.6337,0.6337,0.6339,0.6348,0.6472,0.6464,0.6461,0.6467,0.6437,0.6437,0.6442,0.645,0.6372,0.6463,0.6419,0.644,0.6198,0.5561,0.5306,0.5492,0.5433,0.5304,0.5238,0.5565,3.8092,3.7172,3.6461,3.5882,3.5255,3.438,3.363,3.2834,3.1468,3.0138,2.8875,2.7767,2.6402,2.5004,2.3497,2.2478,2.1797,2.1482,2.1011,2.0459,1.9904,1.9027,1.7997,1.7683,1.7212,1.673,1.673,1.673,1.673,1.673,1.6566,1.6402,1.6312,1.5989,1.5318,1.4657,1.4132,1.3678,1.3027,1.2705,1.2705,1.2705,1.2705,1.2699,1.262,1.256,1.2566,1.2469,1.2421,1.2427,1.2518,1.2566,1.2572,1.265,1.2705,1.2699,1.2443,1.2272,1.2186,1.1843,1.158,1.1505,1.1565,1.1593,1.1898,1.191,1.1947,1.2002,1.1292,1.09,1.0801,1.06,0.9805,0.8715,0.7925,0.7428,0.6736,0.6439,0.6437,0.6437,0.6437,0.6437,0.6437,0.6437,0.6437,0.6437,0.6437,0.6337,0.6337,0.6137,0.5934,0.5934,0.5934,0.5937,0.5834,0.6237,0.6439,0.6439,0.6437,0.6337,0.6337,0.6237,0.6245,0.5744,0.5795,0.5809,0.5734,0.5494,0.4851,0.4811,0.4884,0.48,0.4878,0.4804,0.5013,3.8723,3.7994,3.7796,3.7266,3.6415,3.5612,3.4751,3.3768,3.2932,3.1541,3.006,2.933,2.8125,2.639,2.4866,2.3512,2.2453,2.2022,2.1482,2.0934,2.0615,1.9904,1.8948,1.8559,1.7917,1.7204,1.6812,1.673,1.673,1.673,1.673,1.6648,1.673,1.6484,1.5982,1.5318,1.4803,1.4294,1.3457,1.3039,1.3033,1.2784,1.2705,1.2705,1.2534,1.2528,1.2705,1.2705,1.2705,1.2705,1.2528,1.2443,1.2448,1.2443,1.2448,1.2448,1.2015,1.1757,1.1757,1.1327,1.1063,1.1068,1.1128,1.1258,1.1543,1.146,1.1482,1.1405,1.0998,1.0314,0.962,0.9126,0.8528,0.773,0.7132,0.6634,0.6434,0.6437,0.6437,0.6437,0.6437,0.6437,0.6337,0.6237,0.6137,0.6137,0.6037,0.5837,0.5837,0.5634,0.5334,0.5336,0.5336,0.5336,0.5336,0.5534,0.6137,0.6237,0.5934,0.6034,0.5934,0.5934,0.5634,0.5231,0.4931,0.4935,0.4865,0.4716,0.4466,0.4315,0.4264,0.4087,0.4176,0.4269,0.4379,3.942,3.8723,3.8574,3.7994,3.71,3.6353,3.5458,3.4566,3.3851,3.289,3.1852,3.1516,3.0025,2.8362,2.6434,2.4997,2.383,2.2529,2.1828,2.1655,2.0934,2.0537,2.0216,1.958,1.8825,1.7968,1.7139,1.6738,1.6836,1.6738,1.673,1.673,1.673,1.6648,1.6656,1.5982,1.5658,1.5325,1.4314,1.3711,1.36,1.3112,1.279,1.2705,1.2272,1.2192,1.2619,1.2613,1.2528,1.2534,1.2186,1.2015,1.2015,1.2015,1.2015,1.1929,1.158,1.1322,1.1235,1.0895,1.0636,1.0554,1.0304,1.0327,1.0683,1.0686,1.0863,1.1011,1.09,1.0408,0.9023,0.8623,0.8226,0.773,0.7332,0.7033,0.6537,0.6437,0.6437,0.6437,0.6337,0.6337,0.6234,0.5934,0.5636,0.5534,0.5236,0.5035,0.5035,0.4935,0.4834,0.4834,0.4834,0.4834,0.4834,0.4832,0.5536,0.5937,0.5534,0.5331,0.4929,0.4728,0.4225,0.3823,0.3623,0.3626,0.3429,0.3263,0.2975,0.2908,0.3046,0.3276,0.326,0.3354,0.3582,4.0251,3.9332,3.9172,3.8723,3.7978,3.7128,3.6307,3.5522,3.4603,3.3837,3.2933,3.1711,3.0796,2.9658,2.7434,2.5977,2.5448,2.3588,2.2345,2.1818,2.1492,2.1021,2.0537,2.0226,1.9729,1.885,1.8036,1.7588,1.7499,1.7024,1.673,1.673,1.673,1.673,1.6648,1.6072,1.5711,1.5576,1.488,1.4371,1.4323,1.3704,1.3222,1.2875,1.2357,1.1923,1.1752,1.1752,1.1752,1.1757,1.1585,1.1494,1.1494,1.1494,1.1494,1.1499,1.1063,1.0809,1.0804,1.0467,1.0207,1.0212,1.0038,1.0243,1.0499,1.057,1.0566,1.044,0.9912,0.9023,0.8127,0.7431,0.7132,0.6833,0.6734,0.6736,0.6437,0.6337,0.6437,0.6337,0.6037,0.5837,0.5734,0.5334,0.5035,0.5035,0.4834,0.4734,0.4734,0.4435,0.4234,0.4234,0.4234,0.4234,0.4234,0.4332,0.4734,0.4933,0.4628,0.4427,0.4024,0.342,0.2918,0.2616,0.2416,0.2318,0.2119,0.1924,0.1834,0.1733,0.2051,0.2158,0.2156,0.2369,0.2693,4.1196,4.0477,4.0184,3.9664,3.9036,3.823,3.735,3.6415,3.5725,3.4912,3.3805,3.2667,3.1787,3.0868,2.8644,2.7262,2.6578,2.4711,2.3403,2.2639,2.1949,2.1482,2.0944,2.0644,2.0293,1.9696,1.8904,1.8487,1.8475,1.7661,1.7204,1.7204,1.6886,1.673,1.6656,1.6312,1.6116,1.5988,1.5455,1.5047,1.4942,1.4378,1.3893,1.3639,1.3033,1.2522,1.2015,1.1757,1.1585,1.1322,1.1322,1.1241,1.1063,1.1063,1.1063,1.0982,1.0636,1.0376,1.0376,1.0207,1.0038,1.0038,1.0038,1.0093,1.0395,1.0513,1.0453,1.0237,1.007,0.9217,0.8226,0.763,0.7033,0.6437,0.6437,0.6337,0.6137,0.6137,0.5937,0.5737,0.5536,0.5336,0.5236,0.4832,0.4533,0.4533,0.4334,0.4232,0.4133,0.3932,0.3833,0.3732,0.3732,0.3732,0.3732,0.3831,0.393,0.3828,0.3524,0.3321,0.312,0.2316,0.1712,0.1511,0.1209,0.131,0.111,0.111,0.1113,0.1109,0.1109,0.1315,0.1423,0.1623,0.1934,4.2162,4.1955,4.1508,4.0822,4.0,3.9527,3.8564,3.7338,3.6935,3.6072,3.4883,3.4143,3.3268,3.182,3.0167,2.8725,2.7434,2.5858,2.4885,2.3915,2.2852,2.2014,2.1568,2.0984,2.0692,2.0458,1.9752,1.9399,1.9325,1.847,1.8078,1.7836,1.7204,1.673,1.6738,1.6648,1.6648,1.6468,1.6064,1.5733,1.5733,1.5061,1.4734,1.4559,1.4048,1.3457,1.2699,1.2272,1.1837,1.1408,1.1235,1.0982,1.0722,1.0636,1.0549,1.0549,1.0207,1.012,1.0033,1.0038,1.0038,1.0038,1.0043,1.0045,1.0272,1.0475,1.0576,1.0619,1.0599,1.0105,0.892,0.8326,0.763,0.6634,0.6237,0.6137,0.5734,0.5636,0.5436,0.5035,0.4834,0.4734,0.4734,0.4332,0.4033,0.3932,0.3632,0.343,0.343,0.3432,0.323,0.323,0.3331,0.3432,0.3432,0.3531,0.363,0.3428,0.2922,0.2417,0.2014,0.1209,0.0504,0.0302,0.0202,0.0202,0.0202,0.0101,0.0202,0.0202,0.0303,0.0605,0.0806,0.1009,0.121,4.27,4.2139,4.1895,4.1429,4.0745,4.0133,3.9406,3.8613,3.7863,3.7084,3.6229,3.531,3.4455,3.3463,3.1375,3.0144,2.9186,2.7103,2.5849,2.5394,2.4123,2.282,2.2025,2.1589,2.1405,2.1334,2.0613,2.0198,2.0101,1.9358,1.8621,1.7997,1.7755,1.7286,1.6812,1.6648,1.673,1.673,1.6566,1.6402,1.6319,1.5733,1.5228,1.4887,1.421,1.3275,1.2174,1.1752,1.1494,1.1322,1.0977,1.0722,1.0549,1.0294,1.0207,1.0207,1.012,1.0038,1.0038,1.0038,1.0038,1.0038,1.0038,1.0133,1.0258,1.0456,1.0375,1.0101,0.9705,0.9118,0.8127,0.7431,0.6634,0.6037,0.5737,0.5737,0.5536,0.5233,0.4935,0.4834,0.4435,0.4232,0.4133,0.3831,0.3432,0.3432,0.3331,0.323,0.323,0.323,0.323,0.323,0.323,0.323,0.323,0.323,0.323,0.3128,0.2521,0.1513,0.0807,-0.0202,-0.0707,-0.1111,-0.0808,-0.0707,-0.0909,-0.1111,-0.0908,-0.0605,-0.0404,-0.0101,0.0101,0.0303,0.0605,4.3513,4.3086,4.2719,4.2315,4.1872,4.1163,4.0343,3.951,3.8896,3.8125,3.7306,3.626,3.5424,3.4655,3.2932,3.1397,3.0166,2.8392,2.7145,2.6103,2.5064,2.3779,2.2639,2.2347,2.214,2.1807,2.1252,2.1104,2.0871,2.0236,1.9335,1.863,1.8149,1.7529,1.664,1.6558,1.6566,1.6566,1.6566,1.6566,1.6566,1.6229,1.5899,1.5477,1.4894,1.4126,1.319,1.2345,1.1923,1.1746,1.1316,1.0722,1.0376,1.0125,1.0038,1.0038,1.0038,1.0038,1.0038,1.0038,1.0038,1.0038,1.0038,1.0012,1.0164,1.039,1.0361,0.9703,0.9166,0.8396,0.7329,0.6331,0.5636,0.5336,0.5035,0.4935,0.4933,0.4634,0.4334,0.4133,0.3831,0.363,0.3633,0.333,0.323,0.323,0.323,0.323,0.323,0.323,0.323,0.313,0.313,0.313,0.313,0.313,0.2927,0.2826,0.2118,0.1109,0.0404,-0.0707,-0.101,-0.1212,-0.1415,-0.1617,-0.1617,-0.1617,-0.1414,-0.1111,-0.101,-0.0909,-0.0707,-0.0404,-0.0101,4.4438,4.4355,4.368,4.3277,4.2959,4.2372,4.1358,4.0326,3.9934,3.9218,3.8181,3.7172,3.6384,3.5537,3.4321,3.2692,3.0416,2.9754,2.8257,2.6974,2.5861,2.4779,2.3519,2.3143,2.253,2.1883,2.1797,2.1711,2.1385,2.0779,2.0138,1.9344,1.863,1.7594,1.6878,1.6558,1.6476,1.6402,1.6402,1.6402,1.6402,1.6319,1.6154,1.5997,1.5575,1.5325,1.465,1.3717,1.2863,1.2845,1.1832,1.0982,1.0294,1.0207,1.0038,1.0038,1.0038,1.0038,1.0038,1.0038,1.0038,1.0038,1.0038,1.0057,1.0088,1.0371,1.0324,0.9746,0.932,0.8488,0.693,0.5634,0.4935,0.4736,0.4332,0.4033,0.3934,0.3934,0.3732,0.333,0.323,0.323,0.323,0.323,0.323,0.323,0.323,0.323,0.313,0.313,0.313,0.313,0.3029,0.3029,0.3029,0.2928,0.2725,0.2522,0.1613,0.0807,0.0605,-0.0101,-0.0505,-0.0808,-0.1313,-0.1617,-0.1617,-0.1617,-0.1617,-0.1516,-0.1313,-0.1415,-0.1515,-0.1212,-0.0908,4.4726,4.4465,4.4252,4.3757,4.3118,4.2923,4.2279,4.1313,4.0728,4.005,3.9129,3.8381,3.7381,3.6182,3.515,3.3917,3.2497,3.0925,2.9118,2.7468,2.7149,2.6183,2.4862,2.415,2.3001,2.2134,2.209,2.1959,2.1436,2.1128,2.0624,1.9825,1.9423,1.8709,1.7359,1.7123,1.6804,1.6327,1.6162,1.6245,1.6245,1.6162,1.6162,1.6004,1.5325,1.5075,1.5082,1.4314,1.3802,1.3288,1.2003,1.0977,1.1154,1.0559,1.0125,1.0038,1.0038,1.0038,1.0038,1.0038,1.0038,1.0038,1.0043,1.0114,1.0206,1.0419,1.0459,1.0143,0.9778,0.8407,0.6531,0.5434,0.4634,0.4234,0.4033,0.3833,0.3533,0.3432,0.3331,0.323,0.323,0.323,0.323,0.323,0.323,0.323,0.323,0.323,0.313,0.3029,0.3029,0.3029,0.2927,0.2725,0.2219,0.2118,0.1917,0.1715,0.1009,0.0101,-0.0101,-0.0303,-0.0909,-0.1212,-0.1516,-0.1617,-0.1617,-0.1617,-0.1617,-0.1617,-0.1617,-0.1617,-0.1617,-0.1617,-0.1617,4.5094,4.491,4.4695,4.4308,4.3886,4.3693,4.3103,4.2332,4.1884,4.1143,4.0182,3.9337,3.8404,3.7584,3.6384,3.5209,3.3543,3.1219,2.9483,2.8492,2.8106,2.7111,2.6102,2.5405,2.4541,2.2894,2.2521,2.2229,2.1809,2.1343,2.0712,1.9982,1.9894,1.9107,1.7997,1.7853,1.761,1.7212,1.673,1.6566,1.6484,1.6072,1.5839,1.5756,1.5166,1.509,1.5257,1.4573,1.4398,1.3971,1.2345,1.1154,1.151,1.1013,1.0497,1.0038,1.0038,1.0038,1.0038,1.0038,1.0038,1.0038,1.0038,0.999,1.0164,1.0273,0.9814,0.9136,0.8405,0.7419,0.5233,0.4533,0.3932,0.3732,0.363,0.3533,0.323,0.323,0.323,0.323,0.323,0.323,0.323,0.313,0.323,0.313,0.323,0.323,0.313,0.3029,0.2927,0.2826,0.2725,0.2321,0.1513,0.1109,0.0806,0.0706,0.0404,-0.0706,-0.1513,-0.1615,-0.1716,-0.1616,-0.1515,-0.1617,-0.1617,-0.1617,-0.1617,-0.1617,-0.1617,-0.1617,-0.1617,-0.1617,-0.1617,4.5456,4.5419,4.5052,4.4877,4.4751,4.4411,4.3856,4.3191,4.2905,4.2149,4.1303,4.0148,3.9443,3.8933,3.7857,3.618,3.4023,3.2095,3.0594,2.949,2.9041,2.8025,2.7072,2.6841,2.6289,2.4415,2.353,2.2971,2.2463,2.1876,2.1308,2.043,2.0216,1.9668,1.8727,1.8416,1.8256,1.7934,1.7196,1.687,1.6714,1.6064,1.559,1.5514,1.5431,1.5347,1.5264,1.4831,1.465,1.5173,1.3203,1.2089,1.1682,1.111,1.0784,1.0038,1.0038,1.0038,1.0038,1.0038,1.0038,1.0038,1.0038,0.9967,0.9989,0.9998,0.9528,0.8357,0.7423,0.6221,0.4031,0.3531,0.3432,0.323,0.323,0.323,0.323,0.323,0.323,0.323,0.313,0.3029,0.3029,0.3029,0.313,0.313,0.313,0.313,0.3029,0.2826,0.2523,0.2017,0.1714,0.0907,0.0101,-0.0504,-0.0705,-0.0605,-0.0706,-0.1513,-0.2623,-0.2523,-0.2221,-0.1615,-0.1414,-0.1616,-0.1617,-0.1617,-0.1617,-0.1617,-0.1617,-0.1617,-0.1617,-0.1617,-0.1617,4.5756,4.5642,4.5468,4.5207,4.4896,4.477,4.4392,4.3831,4.3279,4.2701,4.2132,4.1161,4.0312,3.9648,3.8826,3.6908,3.4873,3.3427,3.2134,3.0578,2.9946,2.9199,2.8271,2.8103,2.7469,2.6382,2.5099,2.4105,2.3416,2.2957,2.2188,2.1735,2.1441,2.0605,1.9599,1.9134,1.8886,1.8407,1.7513,1.7107,1.6862,1.6147,1.559,1.5514,1.5514,1.5431,1.5431,1.5264,1.5257,1.5347,1.4915,1.4223,1.3118,1.1424,1.0391,1.0125,1.0038,1.0038,1.0038,1.0038,1.0038,1.0038,0.9951,0.9976,0.9998,1.0003,0.9541,0.8764,0.7337,0.6121,0.5924,0.413,0.3331,0.323,0.323,0.323,0.323,0.323,0.313,0.313,0.3029,0.2927,0.2927,0.2826,0.2826,0.2826,0.2826,0.2826,0.2826,0.2321,0.1614,0.1008,0.0403,-0.0503,-0.151,-0.2116,-0.2521,-0.2218,-0.2219,-0.2422,-0.3128,-0.313,-0.2726,-0.2321,-0.2018,-0.2019,-0.202,-0.1818,-0.1717,-0.1818,-0.1718,-0.1617,-0.1617,-0.1617,-0.1617,4.5839,4.5742,4.5645,4.5451,4.5223,4.5096,4.48,4.4383,4.396,4.348,4.2832,4.2055,4.1332,4.0629,3.9834,3.8215,3.6467,3.4701,3.3485,3.2094,3.1323,3.0286,2.924,2.9052,2.8258,2.7311,2.642,2.5205,2.3875,2.3254,2.301,2.2489,2.2048,2.1375,2.0682,2.0157,1.9766,1.9116,1.8479,1.7997,1.7827,1.6788,1.6147,1.5989,1.5582,1.5431,1.5431,1.5431,1.5431,1.5347,1.4915,1.4314,1.3197,1.1918,1.0636,1.0641,1.0294,1.0038,1.0038,1.0038,1.0038,0.9951,0.9873,0.9855,0.9804,0.9709,0.9202,0.8053,0.6764,0.5329,0.463,0.3831,0.3331,0.323,0.323,0.313,0.3029,0.313,0.313,0.3029,0.2927,0.2826,0.2826,0.2725,0.2522,0.2522,0.2624,0.2624,0.2624,0.1917,0.1211,0.0101,-0.0604,-0.1208,-0.2214,-0.3022,-0.353,-0.3328,-0.3328,-0.3531,-0.3632,-0.3732,-0.3632,-0.3328,-0.3026,-0.2725,-0.2523,-0.2424,-0.2222,-0.202,-0.1818,-0.1717,-0.1617,-0.1617,-0.1617,4.592,4.5856,4.5808,4.5675,4.5545,4.5437,4.5163,4.4849,4.4606,4.4186,4.3619,4.2869,4.2297,4.1732,4.0775,3.9479,3.772,3.5436,3.4315,3.312,3.2234,3.1087,3.0286,2.9662,2.9108,2.8072,2.7525,2.6607,2.5264,2.448,2.3818,2.3305,2.2638,2.1983,2.1614,2.0857,2.0799,2.0411,1.9775,1.9213,1.8727,1.7594,1.6698,1.6617,1.5816,1.5347,1.5431,1.5347,1.5347,1.5257,1.4824,1.4132,1.3275,1.218,1.1499,1.1322,1.0549,1.012,1.0038,1.0038,0.9975,0.9953,0.9763,0.9602,0.9171,0.866,0.8027,0.6569,0.5429,0.4634,0.4131,0.343,0.323,0.323,0.323,0.313,0.2928,0.2927,0.2927,0.2826,0.2725,0.2624,0.2624,0.2323,0.212,0.2222,0.2323,0.2322,0.2221,0.1715,0.0807,-0.0705,-0.1511,-0.1913,-0.2618,-0.3423,-0.3828,-0.3828,-0.393,-0.4033,-0.4234,-0.4332,-0.4232,-0.4031,-0.3932,-0.363,-0.333,-0.2927,-0.2726,-0.2424,-0.2121,-0.202,-0.2222,-0.2121,-0.202,4.6067,4.6064,4.5998,4.588,4.5764,4.5675,4.5486,4.5203,4.4862,4.4516,4.4184,4.3553,4.3105,4.2564,4.1568,3.9515,3.7531,3.6259,3.4886,3.3308,3.2471,3.1864,3.1218,3.0615,2.9846,2.8941,2.8322,2.7736,2.6925,2.6488,2.5603,2.4589,2.3818,2.3243,2.2155,2.1328,2.0944,2.0876,1.9766,1.8798,1.8238,1.735,1.6944,1.646,1.5816,1.5257,1.534,1.5173,1.5173,1.534,1.5257,1.5173,1.4831,1.3241,1.2369,1.1752,1.0971,1.0038,0.9951,0.9979,0.9962,0.9897,0.9867,0.9167,0.8602,0.7818,0.7164,0.6498,0.5532,0.4834,0.4334,0.3732,0.3331,0.323,0.323,0.3029,0.2826,0.2826,0.2826,0.2523,0.2424,0.2423,0.2423,0.202,0.1718,0.192,0.2022,0.2021,0.1716,0.111,0.0605,-0.0705,-0.2416,-0.2919,-0.292,-0.3827,-0.4128,-0.4228,-0.4331,-0.4433,-0.4533,-0.4634,-0.4734,-0.4533,-0.4435,-0.4234,-0.3732,-0.343,-0.313,-0.2928,-0.2726,-0.2827,-0.3029,-0.2827,-0.2423,4.5967,4.6055,4.6013,4.5933,4.586,4.5813,4.5711,4.5503,4.5241,4.4995,4.4624,4.4039,4.3435,4.272,4.1374,3.9909,3.8258,3.6903,3.5626,3.4085,3.326,3.2516,3.1875,3.1203,3.048,2.9827,2.9407,2.9268,2.8593,2.7378,2.6183,2.5673,2.4684,2.3818,2.283,2.1939,2.1328,2.0867,2.0079,1.9381,1.8966,1.8238,1.7594,1.7017,1.6139,1.5567,1.5159,1.4908,1.4915,1.4992,1.4999,1.4748,1.4153,1.2881,1.1935,1.1235,1.0289,0.9689,0.9703,0.9707,0.9821,0.9827,0.9748,0.9334,0.8646,0.8222,0.7645,0.7316,0.6326,0.5532,0.4734,0.3833,0.3432,0.323,0.313,0.2927,0.2725,0.2826,0.2725,0.2424,0.2121,0.2121,0.2121,0.1919,0.1718,0.1718,0.1819,0.1819,0.1111,0.0101,-0.0202,-0.0605,-0.2416,-0.3927,-0.3827,-0.4029,-0.4431,-0.4531,-0.4531,-0.4634,-0.4734,-0.4734,-0.4832,-0.4832,-0.4634,-0.4332,-0.4033,-0.3833,-0.3632,-0.3531,-0.3432,-0.3432,-0.3432,-0.313,-0.2726,4.577,4.5838,4.5952,4.5954,4.5941,4.5941,4.587,4.5738,4.558,4.538,4.5011,4.4444,4.3675,4.2687,4.1411,4.0222,3.914,3.7204,3.6019,3.5103,3.4207,3.3298,3.2594,3.1875,3.1102,3.0524,2.9917,2.9794,2.9233,2.826,2.7136,2.6595,2.5463,2.4469,2.3768,2.2809,2.1928,2.1108,2.0489,2.0177,1.9932,1.9134,1.8327,1.7594,1.678,1.6049,1.547,1.5068,1.4985,1.5151,1.4817,1.4489,1.3893,1.3039,1.2009,1.1144,1.0202,0.9519,0.9486,0.9495,0.9642,0.9588,0.9287,0.8913,0.8914,0.8966,0.8326,0.6927,0.6329,0.5329,0.4531,0.3533,0.3331,0.313,0.313,0.2826,0.2523,0.2523,0.2424,0.2121,0.1819,0.192,0.1819,0.1718,0.1617,0.1617,0.1617,0.1617,0.0808,-0.0202,0.0,0.0,-0.2115,-0.3726,-0.3828,-0.3929,-0.4431,-0.4732,-0.4732,-0.4832,-0.4832,-0.4832,-0.4832,-0.4832,-0.4832,-0.4634,-0.4433,-0.4334,-0.4234,-0.4133,-0.4033,-0.3831,-0.3732,-0.343,-0.2826,4.5509,4.5393,4.5726,4.5899,4.5971,4.5992,4.5955,4.5861,4.5735,4.5534,4.5285,4.4711,4.3998,4.3171,4.1885,4.0402,3.8816,3.7398,3.6219,3.5191,3.4251,3.385,3.3303,3.2524,3.1762,3.1435,3.0689,3.0054,2.9623,2.9373,2.8233,2.7326,2.6488,2.5276,2.4348,2.3526,2.251,2.17,2.1088,2.0779,2.0313,1.9529,1.8656,1.8336,1.7521,1.6952,1.7107,1.6049,1.556,1.5726,1.5061,1.465,1.4146,1.3197,1.2169,1.1483,1.0279,0.9611,0.9336,0.9311,0.947,0.9206,0.8825,0.8496,0.8619,0.7381,0.6318,0.6016,0.6016,0.5033,0.4033,0.323,0.3331,0.3029,0.2826,0.2624,0.2423,0.2223,0.2021,0.1718,0.1617,0.1718,0.1718,0.1617,0.1617,0.1617,0.1617,0.1617,0.1212,0.0,0.0,0.0,0.0,-0.3021,-0.3325,-0.3627,-0.413,-0.4431,-0.4632,-0.4732,-0.4832,-0.4832,-0.4832,-0.4832,-0.4832,-0.4832,-0.4734,-0.4634,-0.4533,-0.4634,-0.4634,-0.4332,-0.393,-0.3629,-0.2823,4.4773,4.4692,4.4855,4.5205,4.5736,4.5913,4.6007,4.6007,4.5889,4.5668,4.5343,4.4405,4.3731,4.3025,4.1459,4.0159,3.8972,3.7637,3.6575,3.5827,3.5157,3.4512,3.3903,3.3235,3.2501,3.2033,3.1364,3.1131,3.119,3.0297,2.9889,2.8947,2.7604,2.6612,2.5566,2.4302,2.3231,2.2424,2.1745,2.1354,2.0557,1.9687,1.8816,1.8167,1.7375,1.655,1.6131,1.5801,1.5643,1.5477,1.4894,1.465,1.4314,1.3197,1.2345,1.174,1.0366,0.9551,0.925,0.9249,0.9303,0.9444,0.9158,0.8777,0.8691,0.8376,0.808,0.7514,0.6688,0.5717,0.4929,0.413,0.353,0.2925,0.2624,0.2523,0.2323,0.2223,0.192,0.1617,0.1617,0.1617,0.1617,0.1617,0.1617,0.1617,0.1617,0.1516,0.1212,0.0908,0.0,0.0,0.0,-0.2015,-0.2318,-0.3022,-0.3726,-0.413,-0.4331,-0.4531,-0.4732,-0.4832,-0.4832,-0.4832,-0.4832,-0.4832,-0.4832,-0.4832,-0.4832,-0.4832,-0.4832,-0.4734,-0.4331,-0.3927,-0.2922,4.38,4.3769,4.3785,4.4342,4.5148,4.5426,4.5572,4.5611,4.5605,4.5609,4.5355,4.4165,4.3509,4.2805,4.0996,3.9749,3.8939,3.784,3.7079,3.644,3.5899,3.5278,3.4607,3.4005,3.3463,3.2749,3.2176,3.1992,3.1921,3.1043,3.0569,2.986,2.8821,2.7788,2.6189,2.5075,2.3745,2.2947,2.2553,2.1876,2.0944,2.0391,1.9687,1.8957,1.8095,1.7521,1.6944,1.6453,1.5726,1.5387,1.4887,1.4391,1.3802,1.3118,1.2266,1.1316,1.0472,0.9574,0.9114,0.9132,0.9204,0.9518,0.934,0.92,0.9252,0.9124,0.8427,0.8021,0.7517,0.6886,0.571,0.483,0.4433,0.4031,0.3226,0.2924,0.2624,0.2323,0.192,0.1617,0.1617,0.1617,0.1617,0.1617,0.1516,0.1516,0.1415,0.1516,0.1515,0.1111,0.0,0.0,0.0,-0.0806,-0.121,-0.2016,-0.2821,-0.3525,-0.3927,-0.4331,-0.4531,-0.4632,-0.4732,-0.4832,-0.4832,-0.4832,-0.4832,-0.4832,-0.4832,-0.4832,-0.4832,-0.4834,-0.4531,-0.3927,-0.2922,4.2632,4.2558,4.2627,4.3292,4.4077,4.4407,4.4512,4.4723,4.4944,4.5169,4.5203,4.4081,4.3143,4.2393,3.9823,3.8693,3.821,3.7259,3.6878,3.69,3.6586,3.6096,3.5514,3.4905,3.4252,3.3633,3.2955,3.247,3.221,3.1564,3.1073,3.0718,2.986,2.8566,2.6463,2.5004,2.3959,2.3434,2.3526,2.2861,2.1993,2.1659,2.1038,2.0216,1.9353,1.8709,1.8158,1.7115,1.6378,1.5951,1.5054,1.4391,1.3893,1.347,1.2528,1.1149,1.0722,0.9694,0.834,0.8792,0.9268,0.9421,0.9111,0.8917,0.8905,0.8555,0.8026,0.7442,0.6946,0.6429,0.5887,0.5334,0.5033,0.4331,0.3426,0.3025,0.2623,0.2623,0.2221,0.1717,0.1617,0.1617,0.1617,0.1617,0.1516,0.1415,0.1313,0.1313,0.1414,0.1212,0.0909,0.0808,0.0303,0.0101,-0.0303,-0.1109,-0.1915,-0.2719,-0.3324,-0.3726,-0.413,-0.4331,-0.4431,-0.4632,-0.4832,-0.4832,-0.4832,-0.4832,-0.4832,-0.4832,-0.4832,-0.4732,-0.4431,-0.4128,-0.3224,4.0561,4.0027,4.0256,4.0294,4.0591,4.2862,4.4039,4.4472,4.4605,4.455,4.4194,4.3149,4.098,3.9003,3.7262,3.6071,3.5713,3.5314,3.5126,3.7292,3.6822,3.6405,3.5762,3.5062,3.4693,3.4235,3.3569,3.2997,3.2986,3.212,3.1986,3.1751,3.066,2.9275,2.809,2.7111,2.6748,2.566,2.5368,2.4933,2.3526,2.2818,2.2125,2.1048,2.0119,1.9571,1.9125,1.7925,1.7098,1.6601,1.5628,1.481,1.4307,1.3971,1.2869,1.1923,1.1499,1.0367,0.9798,1.0044,0.9708,0.9224,0.8825,0.8585,0.837,0.7663,0.7053,0.6596,0.6294,0.5503,0.4307,0.4022,0.3626,0.3025,0.2422,0.2521,0.2422,0.2722,0.2621,0.1918,0.1617,0.1415,0.1415,0.1414,0.1313,0.1212,0.101,0.101,0.1111,0.101,0.0808,0.101,0.0909,0.0808,0.0504,-0.0303,-0.0908,-0.1612,-0.2217,-0.2822,-0.3225,-0.3728,-0.413,-0.4331,-0.4632,-0.4832,-0.4832,-0.4832,-0.4832,-0.4832,-0.4832,-0.4832,-0.4632,-0.4431,-0.4028,3.8368,3.7841,3.7841,3.7704,3.7894,4.0594,4.1995,4.2134,4.2124,4.1769,4.0813,3.9392,3.7313,3.4794,3.3108,3.2263,3.2045,3.202,3.3421,3.5861,3.5908,3.5046,3.4516,3.4267,3.3458,3.3277,3.2911,3.2642,3.3416,3.2467,3.1867,3.1484,3.1356,3.082,2.9742,2.8807,2.7178,2.6089,2.5755,2.5463,2.4325,2.3503,2.2955,2.179,2.0884,2.0324,1.9562,1.8691,1.7721,1.7163,1.6281,1.5311,1.4727,1.4139,1.3209,1.2607,1.1413,1.0397,0.9876,0.9609,0.9047,0.8558,0.8524,0.8448,0.8048,0.7475,0.7145,0.6584,0.5839,0.5167,0.4362,0.3983,0.3414,0.2814,0.2618,0.2717,0.2521,0.2923,0.2521,0.1818,0.1516,0.1414,0.1212,0.1111,0.1111,0.0909,0.0808,0.0808,0.0808,0.0707,0.0808,0.0909,0.1111,0.101,0.0808,0.0606,0.0,-0.0504,-0.1109,-0.1916,-0.242,-0.2922,-0.3426,-0.3929,-0.4029,-0.413,-0.4632,-0.4832,-0.4832,-0.4832,-0.4832,-0.4832,-0.4832,-0.4632,-0.4431,3.603,3.5906,3.5437,3.5521,3.6172,3.7355,3.7833,3.758,3.7562,3.6981,3.5879,3.388,3.2301,3.0863,2.8881,2.809,2.7972,2.836,3.0346,3.2199,3.2686,3.2264,3.1972,3.1794,3.1234,3.0577,3.0377,3.1174,3.311,3.126,3.0299,3.0571,3.1063,3.0958,3.0102,2.8983,2.7305,2.6935,2.6773,2.6283,2.5216,2.4755,2.4146,2.3198,2.2307,2.1714,2.0864,1.9759,1.8559,1.7527,1.6265,1.522,1.4489,1.4159,1.3548,1.2595,1.1042,1.0392,0.9887,0.9683,0.907,0.896,0.8978,0.8654,0.7938,0.7138,0.6621,0.6394,0.5831,0.5839,0.5637,0.5023,0.4388,0.3997,0.3506,0.3313,0.292,0.2622,0.2019,0.1617,0.1516,0.1414,0.1111,0.0909,0.0808,0.0606,0.0505,0.0505,0.0505,0.0404,0.0505,0.0707,0.0808,0.101,0.0808,0.0707,0.0404,-0.0202,-0.0403,-0.1009,-0.1513,-0.2017,-0.2418,-0.2821,-0.3123,-0.3627,-0.4431,-0.4732,-0.4832,-0.4832,-0.4832,-0.4832,-0.4832,-0.4732,-0.4431,3.4153,3.3281,3.3336,3.2818,3.1874,3.1358,3.2167,3.3858,3.349,3.2735,3.1996,3.1951,2.9366,2.6087,2.5877,2.5072,2.4517,2.4621,2.633,2.7765,2.8821,2.8327,2.8236,2.8387,2.8222,2.8285,2.8398,2.8662,2.8914,2.812,2.7695,2.738,2.9072,2.9419,2.936,2.8829,2.8404,2.8283,2.8196,2.7683,2.6938,2.6625,2.5832,2.4826,2.4013,2.3345,2.1985,2.0881,1.9703,1.8585,1.7577,1.6624,1.5809,1.5123,1.4273,1.3124,1.2522,1.2381,1.2181,1.1679,1.0819,0.9818,0.9512,0.8317,0.7344,0.652,0.6099,0.5877,0.547,0.5186,0.5158,0.4741,0.4417,0.4155,0.377,0.3583,0.3099,0.2618,0.2017,0.1414,0.1313,0.1111,0.0808,0.0707,0.0606,0.0404,0.0202,0.0303,0.0,0.0,0.0202,0.0505,0.0606,0.0707,0.0606,0.0505,0.0404,0.0202,-0.0101,-0.0303,-0.0807,-0.121,-0.1512,-0.2016,-0.272,-0.3626,-0.4632,-0.4732,-0.4832,-0.4832,-0.4832,-0.4832,-0.4832,-0.4732,-0.4431,3.2072,3.1083,3.0771,2.9507,2.7706,2.6327,2.6922,2.8363,2.8986,2.8691,2.768,2.7393,2.534,2.2268,2.1867,2.1327,2.0183,2.0676,2.2431,2.4768,2.4615,2.5058,2.5146,2.4946,2.4871,2.5227,2.5623,2.592,2.5948,2.6249,2.6012,2.5343,2.66,2.7264,2.7585,2.7599,2.7749,2.8303,2.8873,2.9127,2.8719,2.8042,2.71,2.6413,2.5693,2.4696,2.3727,2.2687,2.1838,2.0954,2.0178,1.8761,1.7974,1.7162,1.6129,1.5148,1.5058,1.4483,1.3776,1.2741,1.1804,1.0733,0.9522,0.8278,0.7406,0.6693,0.6166,0.5831,0.4963,0.4362,0.4221,0.4173,0.4142,0.4008,0.3924,0.3741,0.3278,0.2808,0.2114,0.1312,0.0909,0.0707,0.0606,0.0505,0.0404,0.0202,0.0101,0.0101,0.0,0.0,0.0,0.0202,0.0303,0.0404,0.0303,0.0303,0.0303,0.0202,0.0101,-0.0202,-0.0303,-0.0403,-0.0706,-0.1512,-0.2519,-0.3324,-0.4029,-0.4632,-0.4832,-0.4734,-0.4734,-0.4732,-0.4732,-0.4832,-0.4331,2.9845,2.9087,2.7883,2.6153,2.3985,2.2854,2.2328,2.2187,2.4434,2.4653,2.3245,2.1998,2.0863,1.9542,1.9145,1.8241,1.7742,1.7935,1.9164,2.232,2.1212,2.1242,2.1606,2.1889,2.1362,2.1452,2.186,2.2458,2.3801,2.3739,2.3228,2.3507,2.4426,2.5062,2.5579,2.562,2.5785,2.6416,2.7683,2.8487,2.8502,2.8028,2.7621,2.7301,2.7007,2.6629,2.6455,2.5946,2.5274,2.4378,2.3277,2.1393,2.0473,1.9657,1.8592,1.7877,1.746,1.6734,1.5584,1.4407,1.259,1.1,0.9052,0.8636,0.8136,0.7115,0.6591,0.64,0.5809,0.5473,0.5339,0.5194,0.5071,0.4763,0.4416,0.4155,0.3803,0.3247,0.2378,0.1591,0.1199,0.0901,0.0303,0.0,0.0,0.0,0.0,0.0,0.0,0.0,0.0,0.0,0.0,0.0,0.0202,0.0202,0.0202,0.0101,0.0101,0.0101,-0.0101,0.0,0.0202,-0.0807,-0.1915,-0.2621,-0.3325,-0.3929,-0.4431,-0.4533,-0.4533,-0.4632,-0.4732,-0.4531,-0.3827,2.7136,2.6503,2.5047,2.3743,2.2611,2.1747,2.0781,1.9991,2.0401,2.0867,2.075,2.073,1.9944,1.831,1.8141,1.7423,1.655,1.6108,1.6493,1.7353,1.7255,1.7657,1.7379,1.8109,1.7633,1.7494,1.7849,1.8594,1.9291,1.9262,1.8955,1.8514,2.0064,2.1773,2.2574,2.2692,2.3457,2.3849,2.4741,2.656,2.7601,2.8588,2.8862,2.9041,2.9011,2.7801,2.7475,2.7075,2.6385,2.5629,2.532,2.4178,2.2767,2.1933,2.0968,2.0043,1.985,1.9269,1.825,1.6862,1.5264,1.3734,1.2161,1.0656,0.9309,0.8051,0.7272,0.7163,0.6897,0.6656,0.6415,0.6184,0.6048,0.5573,0.5076,0.4742,0.4401,0.3567,0.2723,0.2056,0.1577,0.0995,0.0402,0.0,0.0,0.0,0.0,0.0,0.0,0.0,0.0,0.0,0.0,0.0,0.0,0.0,0.0,0.0,-0.0101,0.0,0.0,0.0202,0.0101,-0.0403,-0.121,-0.1915,-0.2621,-0.3325,-0.3728,-0.393,-0.4332,-0.4431,-0.3927,-0.3726,-0.3022,2.5408,2.467,2.2942,2.1896,2.131,2.0625,1.9913,1.945,1.9125,1.8966,1.8886,1.9107,1.8541,1.7359,1.7334,1.6838,1.5643,1.5082,1.5367,1.5184,1.4734,1.4993,1.4949,1.5101,1.4991,1.486,1.4752,1.5018,1.5599,1.5598,1.561,1.5928,1.7519,1.8256,1.8967,1.9806,2.0294,2.0597,2.1041,2.2555,2.4869,2.5704,2.6505,2.7184,2.7278,2.6847,2.7971,2.7887,2.8777,2.8656,2.8802,2.7503,2.6324,2.5564,2.4759,2.4038,2.3504,2.2783,2.1596,2.0223,1.8545,1.6725,1.4241,1.2149,1.2318,1.1,0.83,0.7933,0.7234,0.6815,0.6989,0.684,0.7005,0.6813,0.6492,0.6261,0.5359,0.4258,0.3342,0.2601,0.1945,0.1281,0.0697,0.0,0.0,0.0,0.0,0.0,0.0,0.0,0.0,0.0,0.0,0.0,0.0,-0.0605,-0.0202,-0.0202,-0.0202,0.0,0.0,0.0,0.0,-0.0303,-0.0706,-0.121,-0.1915,-0.2519,-0.2923,-0.3024,-0.3627,-0.4232,-0.3627,-0.2922,-0.2318,2.384,2.2979,2.1208,2.0304,1.9932,1.9381,1.9045,1.9045,1.8798,1.8149,1.7334,1.6927,1.6453,1.6124,1.5462,1.497,1.4559,1.4321,1.4475,1.421,1.3626,1.3691,1.3769,1.3756,1.3523,1.3161,1.294,1.3483,1.4235,1.3932,1.4112,1.5213,1.5462,1.5471,1.5838,1.5986,1.6149,1.6294,1.6661,1.7437,1.9057,2.1019,2.2752,2.3449,2.3728,2.4683,2.6301,2.7782,2.9624,2.9747,2.9115,2.7711,2.7357,2.6688,2.7045,2.6394,2.706,2.6245,2.5173,2.37,2.1481,1.9077,1.5973,1.4808,1.5238,1.3654,1.0952,0.9365,0.8582,0.7738,0.7914,0.794,0.812,0.7735,0.7504,0.7262,0.6093,0.5007,0.4208,0.3305,0.2582,0.194,0.1281,0.0698,0.0301,0.0201,0.0,0.0,0.0,0.0,0.0,0.0,0.0,0.0,0.0,-0.0806,-0.0202,-0.0303,0.0,0.0,0.0,0.0,0.0,0.0101,-0.0303,0.0,0.0,-0.1613,-0.1916,-0.2214,-0.2924,-0.3426,-0.3122,-0.2518,-0.1914,2.1134,2.0272,1.9213,1.8532,1.823,1.8086,1.7602,1.7033,1.6952,1.6378,1.5538,1.4713,1.4455,1.5321,1.3995,1.351,1.386,1.3542,1.3184,1.2996,1.3021,1.2838,1.248,1.2202,1.2378,1.2031,1.1519,1.1837,1.2359,1.2318,1.2369,1.2869,1.3613,1.3438,1.2923,1.3165,1.3484,1.3224,1.3056,1.3725,1.5176,1.7679,2.1229,2.2148,2.2596,2.2657,2.2981,2.3338,2.3927,2.4349,2.4938,2.4378,2.4694,2.5721,2.626,2.6434,2.7348,2.7624,2.6176,2.5355,2.315,2.1583,1.9401,1.9085,1.8788,1.747,1.5118,1.3169,1.2056,1.0277,1.0043,0.9557,0.9459,0.8243,0.7656,0.73,0.6505,0.6071,0.5644,0.4695,0.3914,0.3232,0.2626,0.1867,0.109,0.0796,0.03,0.0,0.0,0.0,0.0,0.0,0.0,0.0,-0.0301,-0.0402,-0.0101,-0.0202,0.0,0.0,0.0,0.0,0.0,0.0,0.0,0.0,0.0,-0.1,-0.1204,-0.1502,-0.2115,-0.2521,-0.2317,-0.2014,-0.1411]},{"header":{"parameterUnit":"m.s-1","parameterCategory":1,"la1":31.0,"la2":29.5877,"lo1":-88.7671,"lo2":-86.6584,"dy":0.0162,"dx":0.0185,"nx":115,"ny":88,"refTime":"2024-09-14T06:00:00:Z","depth":0,"parameterNumber":3,"parameterNumberName":"V-component_of_WINDS"},"data":[0.0,0.0,0.0,0.0,0.0,0.0,0.0,0.0,0.0,0.0,0.0,0.0,0.0,0.0,0.0,0.0,0.0,0.0,0.0,0.0,0.0,0.0,0.0,0.0,0.0,0.0,0.0,0.0,0.0,0.0,0.0,0.0,0.0,0.0,0.0,0.0,0.0,0.0,0.0,0.0,0.0,0.0,0.0,0.0,0.0,0.0,0.0,0.0,0.0,0.0,0.0,0.0,0.0,0.0,0.0,0.0,0.0,0.0,0.0,0.0,0.0,0.0,0.0,0.0,0.0,0.0,0.0,0.0,0.0,0.0,0.0,0.0,0.0,0.0,0.0,0.0,0.0,0.0,0.0,0.0,0.0,0.0,0.0,0.0,0.0,0.0,0.0,0.0,0.0,0.0,0.0,0.0,0.0,0.0,0.0,0.0,0.0,0.0,0.0,0.0,0.0,0.0,0.0,0.0,0.0,0.0,0.0,0.0,0.0,0.0,0.0,0.0,0.0,0.0,0.0,0.0,0.0,0.0,0.0,0.0,0.0,0.0,0.0,0.0,0.0,0.0,0.0,0.0,0.0,0.0,0.0,0.0,0.0,0.0,0.0,0.0,0.0,0.0,0.0,0.0,0.0,0.0,0.0,0.0,0.0,0.0,0.0,0.0,0.0,0.0,0.0,0.0,0.0,0.0,0.0,0.0,0.0,0.0,0.0,0.0,0.0,0.0,0.0,0.0,0.0,0.0,0.0,0.0,0.0,0.0,0.0,0.0,0.0,0.0,0.0,0.0,0.0,0.0,0.0,0.0,0.0,0.0,0.0,0.0,0.0,0.0,0.0,0.0,0.0,0.0,0.0,0.0,0.0,0.0,0.0,0.0,0.0,0.0,0.0,0.0,0.0,0.0,0.0,0.0,0.0,0.0,0.0,0.0,0.0,0.0,0.0,0.0,0.0,0.0,0.0,0.0,0.0,0.0,0.0,0.0,0.0,0.0,0.0,0.0,0.0,0.0,0.0,0.0,0.0,0.0,0.0,0.0,0.0,0.0,0.0,0.0,0.0,0.0,0.0,0.0,0.0,0.0,0.0,0.0,0.0,0.0,0.0,0.0,0.0,0.0,0.0,0.0,0.0,0.0,0.0,0.0,0.0,0.0,0.0,0.0,0.0,0.0,0.0,0.0,0.0,0.0,0.0,0.0,0.0,0.0,0.0,0.0,0.0,0.0,0.0,0.0,0.0,0.0,0.0,0.0,0.0,0.0,0.0,0.0,0.0,0.0,0.0,0.0,0.0,0.0,0.0,0.0,0.0,0.0,0.0,0.0,0.0,0.0,0.0,0.0,0.0,0.0,0.0,0.0,0.0,0.0,0.0,0.0,0.0,0.0,0.0,0.0,0.0,0.0,0.0,0.0,0.0,0.0,0.0,0.0,0.0,0.0,0.0,0.0,0.0,0.0,0.0,0.0,0.0,0.0,0.0,0.0,0.0,0.0,0.0,0.0,0.0,0.0,0.0,0.0,0.0,0.0,0.0,0.0,0.0,0.0,0.0,0.0,0.0,0.0,0.0,0.0,0.0,0.0,0.0,0.0,0.0,0.0,0.0,0.0,0.0,0.0,0.0,0.0,0.0,0.0,0.0,0.0,0.0,0.0,0.0,0.0,0.0,0.0,0.0,0.0,0.0,0.0,0.0,0.0,0.0,0.0,0.0,0.0,0.0,0.0,0.0,0.0,0.0,0.0,0.0,0.0,0.0,0.0,0.0,0.0,0.0,0.0,0.0,0.0,0.0,0.0,0.0,0.0,0.0,0.0,0.0,0.0,0.0,0.0,0.0,0.0,0.0,0.0,0.0,0.0,0.0,0.0,0.0,0.0,0.0,0.0,0.0,0.0,0.0,0.0,0.0,0.0,0.0,0.0,0.0,0.0,0.0,0.0,0.0,0.0,0.0,0.0,0.0,0.0,0.0,0.0,0.0,0.0,0.0,0.0,0.0,0.0,0.0,0.0,0.0,0.0,0.0,0.0,0.0,0.0,0.0,0.0,0.0,0.0,0.0,0.0,0.0,0.0,0.0,0.0,0.0,0.0,0.0,0.0,0.0,0.0,0.0,0.0,0.0,0.0,0.0,0.0,0.0,0.0,0.0,0.0,0.0,0.0,0.0,0.0,0.0,0.0,0.0,0.0,0.0,0.0,0.0,0.0,0.0,0.0,0.0,0.0,0.0,0.0,0.0,0.0,0.0,0.0,0.0,0.0,0.0,0.0,0.0,0.0,0.0,0.0,0.0,0.0,0.0,0.0,0.0,0.0,0.0,0.0,0.0,0.0,0.0,0.0,0.0,0.0,0.0,0.0,0.0,0.0,0.0,0.0,0.0,0.0,0.0,0.0,0.0,0.0,0.0,0.0,0.0,0.0,0.0,0.0,0.0,0.0,0.0,0.0,0.0,0.0,0.0,0.0,0.0,0.0,0.0,0.0,0.0,0.0,0.0,0.0,0.0,0.0,0.0,0.0,0.0,0.0,0.0,0.0,0.0,0.0,0.0,0.0,0.0,0.0,0.0,0.0,0.0,0.0,0.0,0.0,0.0,0.0,0.0,0.0,0.0,0.0,0.0,0.0,0.0,0.0,0.0,0.0,0.0,0.0,0.0,0.0,0.0,0.0,0.0,0.0,0.0,0.0,0.0,0.0,0.0,0.0,0.0,0.0,0.0,0.0,0.0,0.0,0.0,0.0,0.0,0.0,0.0,0.0,0.0,0.0,0.0,0.0,0.0,0.0,0.0,0.0,0.0,0.0,0.0,0.0,0.0,0.0,0.0,0.0,0.0,0.0,0.0,0.0,0.0,0.0,0.0,0.0,0.0,0.0,0.0,0.0,0.0,0.0,0.0,0.0,0.0,0.0,0.0,0.0,0.0,0.0,0.0,0.0,0.0,0.0,0.0,0.0,0.0,0.0,0.0,0.0,0.0,0.0,0.0,0.0,0.0,0.0,0.0,0.0,0.0,0.0,0.0,0.0,0.0,0.0,0.0,0.0,0.0,0.0,0.0,0.0,0.0,0.0,0.0,0.0,0.0,0.0,0.0,0.0,0.0,0.0,0.0,0.0,0.0,0.0,0.0,0.0,0.0,0.0,0.0,0.0,0.0,0.0,0.0,0.0,0.0,0.0,0.0,0.0,0.0,0.0,0.0,0.0,0.0,0.0,0.0,0.0,0.0,0.0,0.0,0.0,0.0,0.0,0.0,0.0,0.0,0.0,0.0,0.0,0.0,0.0,0.0,0.0,0.0,0.0,0.0,0.0,0.0,0.0,0.0,0.0,0.0,0.0,0.0,0.0,0.0,0.0,0.0,0.0,0.0,0.0,0.0,0.0,0.0,0.0,0.0,0.0,0.0,0.0,0.0,0.0,0.0,0.0,0.0,0.0,0.0,0.0,0.0,0.0,0.0,0.0,0.0,0.0,0.0,0.0,0.0,0.0,0.0,0.0,0.0,0.0,0.0,0.0,0.0,0.0,0.0,0.0,0.0,0.0,0.0,0.0,0.0,0.0,0.0,0.0,0.0,0.0,0.0,0.0,0.0,0.0,0.0,0.0,0.0,0.0,0.0,0.0,0.0,0.0,0.0,0.0,0.0,0.0,0.0,0.0,0.0,0.0,0.0,0.0,0.0,0.0,0.0,0.0,0.0,0.0,0.0,0.0,0.0,0.0,0.0,0.0,0.0,0.0,0.0,0.0,0.0,0.0,0.0,0.0,0.0,0.0,0.0,0.0,0.0,0.0,0.0,0.0,0.0,0.0,0.0,0.0,0.0,0.0,0.0,0.0,0.0,0.0,0.0,0.0,0.0,0.0,0.0,0.0,0.0,0.0,0.0,0.0,0.0,0.0,0.0,0.0,0.0,0.0,0.0,0.0,0.0,0.0,0.0,0.0,0.0,0.0,0.0,0.0,0.0,0.0,0.0,0.0,0.0,0.0,0.0,0.0,0.0,0.0,0.0,0.0,0.0,0.0,0.0,0.0,0.0,0.0,0.0,0.0,0.0,0.0,0.0,0.0,0.0,0.0,0.0,0.0,0.0,0.0,0.0,0.0,0.0,0.0,0.0,0.0,0.0,0.0,0.0,0.0,0.0,0.0,0.0,0.0,0.0,0.0,0.0,0.0,0.0,0.0,0.0,0.0,0.0,0.0,0.0,0.0,0.0,0.0,0.0,0.0,0.0,0.0,0.0,0.0,0.0,0.0,0.0,0.0,0.0,0.0,0.0,0.0,0.0,0.0,0.0,0.0,0.0,0.0,2.4043,0.0,0.0,0.0,0.0,0.0,0.0,0.0,0.0,0.0,0.0,0.0,0.0,0.0,0.0,0.0,0.0,0.0,0.0,0.0,0.0,0.0,0.0,0.0,0.0,0.0,0.0,0.0,0.0,0.0,0.0,0.0,0.0,0.0,0.0,0.0,0.0,0.0,0.0,0.0,0.0,0.0,0.0,0.0,0.0,0.0,0.0,0.0,0.0,0.0,0.0,0.0,0.0,0.0,0.0,0.0,0.0,0.0,0.0,0.0,0.0,0.0,0.0,0.0,0.0,0.0,0.0,0.0,0.0,0.0,0.0,0.0,0.0,0.0,0.0,0.0,0.0,0.0,0.0,0.0,0.0,0.0,0.0,0.0,0.0,0.0,0.0,0.0,0.0,0.0,0.0,0.0,0.0,0.0,0.0,0.0,0.0,0.0,0.0,0.0,0.0,0.0,0.0,0.0,0.0,0.0,0.0,0.0,0.0,0.0,0.0,2.3837,2.3976,2.3978,2.4054,2.4208,0.0,0.0,0.0,0.0,0.0,0.0,0.0,0.0,0.0,0.0,0.0,0.0,0.0,0.0,0.0,0.0,0.0,0.0,0.0,0.0,0.0,0.0,0.0,0.0,0.0,0.0,0.0,0.0,0.0,0.0,0.0,0.0,0.0,0.0,0.0,0.0,0.0,0.0,0.0,0.0,0.0,0.0,0.0,0.0,0.0,0.0,0.0,0.0,0.0,0.0,0.0,0.0,0.0,0.0,0.0,0.0,0.0,0.0,0.0,0.0,0.0,0.0,0.0,0.0,0.0,0.0,0.0,0.0,0.0,0.0,0.0,0.0,0.0,0.0,0.0,0.0,0.0,0.0,0.0,0.0,0.0,0.0,0.0,0.0,0.0,0.0,0.0,0.0,0.0,0.0,0.0,0.0,0.0,0.0,0.0,0.0,0.0,0.0,0.0,0.0,0.0,0.0,0.0,0.0,0.0,0.0,0.0,0.0,0.0,0.0,0.0,0.0,2.4423,2.4543,2.474,0.0,0.0,0.0,0.0,0.0,0.0,0.0,0.0,0.0,0.0,0.0,0.0,0.0,0.0,0.0,0.0,0.0,0.0,0.0,0.0,0.0,0.0,0.0,0.0,0.0,0.0,0.0,0.0,0.0,0.0,0.0,0.0,0.0,0.0,0.0,0.0,0.0,0.0,0.0,0.0,0.0,0.0,0.0,0.0,0.0,0.0,0.0,0.0,0.0,0.0,0.0,0.0,0.0,0.0,0.0,0.0,0.0,0.0,0.0,0.0,0.0,0.0,0.0,0.0,0.0,0.0,0.0,0.0,0.0,0.0,0.0,0.0,0.0,0.0,0.0,0.0,0.0,0.0,0.0,0.0,0.0,0.0,0.0,0.0,0.0,0.0,0.0,0.0,0.0,0.0,0.0,0.0,0.0,0.0,0.0,0.0,0.0,0.0,0.0,0.0,0.0,0.0,0.0,0.0,0.0,0.0,0.0,0.0,0.0,0.0,2.4587,2.6295,2.6313,0.0,2.6392,0.0,0.0,0.0,0.0,0.0,0.0,0.0,0.0,0.0,0.0,0.0,0.0,0.0,0.0,0.0,0.0,0.0,0.0,0.0,0.0,0.0,0.0,0.0,0.0,0.0,0.0,0.0,0.0,0.0,0.0,0.0,0.0,0.0,0.0,0.0,0.0,0.0,0.0,0.0,0.0,0.0,0.0,0.0,0.0,0.0,0.0,0.0,0.0,0.0,0.0,0.0,0.0,0.0,0.0,0.0,0.0,0.0,0.0,0.0,0.0,0.0,0.0,0.0,0.0,0.0,0.0,0.0,0.0,0.0,0.0,0.0,0.0,0.0,0.0,0.0,0.0,0.0,0.0,0.0,0.0,0.0,0.0,0.0,0.0,0.0,0.0,0.0,0.0,0.0,0.0,0.0,0.0,0.0,0.0,0.0,0.0,0.0,0.0,0.0,0.0,0.0,0.0,0.0,0.0,0.0,0.0,0.0,0.0,0.0,0.0,2.4349,2.547,2.5296,2.5181,0.0,0.0,0.0,0.0,0.0,0.0,0.0,0.0,0.0,0.0,0.0,0.0,0.0,0.0,0.0,0.0,0.0,0.0,0.0,0.0,0.0,0.0,0.0,0.0,0.0,0.0,0.0,0.0,0.0,0.0,0.0,0.0,0.0,0.0,0.0,0.0,0.0,0.0,0.0,0.0,0.0,0.0,0.0,0.0,0.0,0.0,0.0,0.0,0.0,0.0,0.0,0.0,0.0,0.0,0.0,0.0,0.0,0.0,0.0,0.0,0.0,0.0,0.0,0.0,0.0,0.0,0.0,0.0,0.0,0.0,0.0,0.0,0.0,0.0,0.0,0.0,0.0,0.0,0.0,0.0,0.0,0.0,0.0,0.0,0.0,0.0,0.0,0.0,0.0,0.0,0.0,0.0,0.0,0.0,0.0,0.0,0.0,0.0,0.0,0.0,0.0,0.0,0.0,0.0,0.0,0.0,0.0,0.0,0.0,0.0,2.365,2.4179,2.5157,2.5199,2.4869,2.4226,0.0,0.0,0.0,0.0,0.0,0.0,0.0,0.0,0.0,0.0,0.0,0.0,0.0,0.0,0.0,0.0,0.0,0.0,0.0,0.0,0.0,0.0,0.0,0.0,0.0,0.0,0.0,0.0,0.0,0.0,0.0,0.0,0.0,0.0,0.0,0.0,0.0,0.0,0.0,0.0,0.0,0.0,0.0,0.0,0.0,0.0,0.0,0.0,0.0,0.0,0.0,0.0,0.0,0.0,0.0,0.0,0.0,0.0,0.0,0.0,0.0,0.0,0.0,0.0,0.0,0.0,0.0,0.0,0.0,0.0,0.0,0.0,0.0,0.0,0.0,0.0,0.0,0.0,0.0,0.0,0.0,0.0,0.0,0.0,0.0,0.0,0.0,0.0,0.0,0.0,0.0,0.0,0.0,0.0,0.0,0.0,0.0,0.0,0.0,0.0,0.0,0.0,0.0,0.0,0.0,0.0,0.0,0.0,0.0,2.4135,2.4482,2.642,2.7255,2.6539,0.0,0.0,0.0,0.0,0.0,0.0,0.0,0.0,0.0,0.0,0.0,0.0,0.0,0.0,0.0,0.0,0.0,0.0,0.0,0.0,0.0,0.0,0.0,0.0,0.0,0.0,0.0,0.0,0.0,0.0,0.0,0.0,0.0,0.0,0.0,0.0,0.0,0.0,0.0,0.0,0.0,0.0,0.0,0.0,0.0,0.0,0.0,0.0,0.0,0.0,0.0,0.0,0.0,0.0,0.0,0.0,0.0,0.0,0.0,0.0,0.0,0.0,0.0,0.0,0.0,0.0,0.0,0.0,0.0,0.0,0.0,0.0,0.0,0.0,0.0,0.0,0.0,0.0,0.0,0.0,0.0,0.0,0.0,0.0,0.0,0.0,0.0,0.0,0.0,0.0,0.0,0.0,0.0,0.0,0.0,0.0,0.0,0.0,0.0,0.0,0.0,0.0,0.0,0.0,0.0,0.0,0.0,0.0,0.0,2.2388,2.324,2.4787,2.6936,2.5575,2.4557,0.0,0.0,0.0,0.0,0.0,0.0,0.0,0.0,0.0,0.0,0.0,0.0,0.0,0.0,0.0,0.0,0.0,0.0,0.0,0.0,0.0,0.0,0.0,0.0,0.0,0.0,0.0,0.0,0.0,0.0,0.0,0.0,0.0,0.0,0.0,0.0,0.0,0.0,0.0,0.0,0.0,0.0,0.0,0.0,0.0,0.0,0.0,0.0,0.0,0.0,0.0,0.0,0.0,0.0,0.0,0.0,0.0,0.0,0.0,0.0,0.0,0.0,0.0,0.0,0.0,0.0,0.0,0.0,0.0,0.0,0.0,0.0,0.0,0.0,0.0,0.0,0.0,0.0,0.0,0.0,0.0,0.0,0.0,0.0,0.0,0.0,0.0,0.0,0.0,0.0,0.0,0.0,0.0,0.0,0.0,0.0,0.0,0.0,0.0,0.0,0.0,0.0,0.0,0.0,0.0,0.0,0.0,0.0,0.0,2.1644,0.0,2.5451,0.0,2.4677,2.3419,0.0,0.0,0.0,0.0,0.0,0.0,0.0,0.0,0.0,0.0,0.0,0.0,0.0,0.0,0.0,0.0,0.0,0.0,0.0,0.0,0.0,0.0,0.0,0.0,0.0,0.0,0.0,0.0,0.0,0.0,0.0,0.0,0.0,0.0,0.0,0.0,0.0,0.0,0.0,0.0,0.0,0.0,0.0,0.0,0.0,0.0,0.0,0.0,0.0,0.0,0.0,0.0,0.0,0.0,0.0,0.0,0.0,0.0,0.0,0.0,0.0,0.0,0.0,0.0,0.0,0.0,0.0,0.0,0.0,0.0,0.0,0.0,0.0,0.0,0.0,0.0,0.0,0.0,0.0,0.0,0.0,0.0,0.0,0.0,0.0,0.0,0.0,0.0,0.0,0.0,0.0,0.0,0.0,0.0,0.0,0.0,0.0,0.0,0.0,0.0,0.0,0.0,0.0,0.0,0.0,0.0,0.0,0.0,2.0061,2.3472,2.6007,2.6372,2.441,2.4979,2.3492,0.0,0.0,0.0,0.0,0.0,0.0,0.0,0.0,0.0,0.0,0.0,0.0,0.0,0.0,0.0,0.0,0.0,0.0,0.0,0.0,0.0,0.0,0.0,0.0,0.0,0.0,0.0,0.0,0.0,0.0,0.0,0.0,0.0,0.0,0.0,0.0,0.0,0.0,0.0,0.0,0.0,0.0,0.0,0.0,0.0,0.0,0.0,0.0,0.0,0.0,0.0,0.0,0.0,0.0,0.0,0.0,0.0,0.0,0.0,0.0,0.0,0.0,0.0,0.0,0.0,0.0,0.0,0.0,0.0,0.0,0.0,0.0,0.0,0.0,0.0,0.0,0.0,0.0,0.0,0.0,0.0,0.0,0.0,0.0,0.0,0.0,0.0,0.0,0.0,0.0,0.0,0.0,0.0,0.0,0.0,0.0,0.0,0.0,0.0,0.0,0.0,0.0,0.0,0.0,0.0,0.0,0.0,0.0,0.0,2.3828,2.5798,2.7057,2.742,2.5603,2.4226,0.0,0.0,0.0,0.0,0.0,0.0,0.0,0.0,0.0,0.0,0.0,0.0,0.0,0.0,0.0,0.0,0.0,0.0,0.0,0.0,0.0,0.0,0.0,0.0,0.0,0.0,0.0,0.0,0.0,0.0,0.0,0.0,0.0,0.0,0.0,0.0,0.0,0.0,0.0,0.0,0.0,0.0,0.0,0.0,0.0,0.0,0.0,0.0,0.0,0.0,0.0,0.0,0.0,0.0,0.0,0.0,0.0,0.0,0.0,0.0,0.0,0.0,0.0,0.0,0.0,0.0,0.0,0.0,0.0,0.0,0.0,0.0,0.0,0.0,0.0,0.0,0.0,0.0,0.0,0.0,0.0,0.0,0.0,0.0,0.0,0.0,0.0,0.0,0.0,0.0,0.0,0.0,0.0,0.0,0.0,0.0,0.0,0.0,0.0,0.0,0.0,0.0,0.0,0.0,0.0,0.0,0.0,0.0,0.0,2.6275,2.7354,2.8136,2.8539,2.6319,2.4905,2.4465,0.0,0.0,0.0,0.0,0.0,0.0,0.0,0.0,0.0,0.0,0.0,0.0,0.0,0.0,0.0,0.0,0.0,0.0,0.0,0.0,0.0,0.0,0.0,0.0,0.0,0.0,0.0,0.0,0.0,0.0,0.0,0.0,0.0,0.0,0.0,0.0,0.0,0.0,0.0,0.0,0.0,0.0,0.0,0.0,0.0,0.0,0.0,0.0,0.0,0.0,0.0,0.0,0.0,0.0,0.0,0.0,0.0,0.0,0.0,0.0,0.0,0.0,0.0,0.0,0.0,0.0,0.0,0.0,0.0,0.0,0.0,0.0,0.0,0.0,0.0,0.0,0.0,0.0,0.0,0.0,0.0,0.0,0.0,0.0,0.0,0.0,0.0,0.0,0.0,0.0,0.0,0.0,0.0,0.0,0.0,0.0,0.0,0.0,0.0,0.0,0.0,0.0,0.0,0.0,0.0,0.0,0.0,0.0,3.0191,3.0375,2.9751,2.8264,2.7255,2.564,0.0,0.0,0.0,0.0,0.0,0.0,0.0,0.0,0.0,0.0,0.0,0.0,0.0,0.0,0.0,0.0,0.0,0.0,0.0,0.0,0.0,0.0,0.0,0.0,0.0,0.0,0.0,0.0,0.0,0.0,0.0,0.0,0.0,0.0,0.0,0.0,0.0,0.0,0.0,0.0,0.0,0.0,0.0,0.0,0.0,0.0,0.0,0.0,0.0,0.0,0.0,0.0,0.0,0.0,0.0,0.0,0.0,0.0,0.0,0.0,0.0,0.0,0.0,0.0,0.0,0.0,0.0,0.0,0.0,0.0,0.0,0.0,0.0,0.0,0.0,0.0,0.0,0.0,0.0,0.0,0.0,0.0,0.0,0.0,0.0,0.0,0.0,0.0,0.0,0.0,0.0,0.0,0.0,0.0,0.0,0.0,0.0,0.0,0.0,0.0,0.0,0.0,0.0,0.0,0.0,0.0,0.0,0.0,0.0,3.0228,3.2522,3.3275,3.221,2.9732,2.7805,0.0,0.0,0.0,0.0,0.0,0.0,0.0,0.0,0.0,0.0,0.0,0.0,0.0,0.0,0.0,0.0,0.0,0.0,0.0,0.0,0.0,0.0,0.0,0.0,0.0,0.0,0.0,0.0,0.0,0.0,0.0,0.0,0.0,0.0,0.0,0.0,0.0,0.0,0.0,0.0,0.0,0.0,0.0,0.0,0.0,0.0,0.0,0.0,0.0,0.0,0.0,0.0,0.0,0.0,0.0,0.0,0.0,0.0,0.0,0.0,0.0,0.0,0.0,0.0,0.0,0.0,0.0,0.0,0.0,0.0,0.0,0.0,0.0,0.0,0.0,0.0,0.0,0.0,0.0,0.0,0.0,0.0,0.0,0.0,0.0,0.0,0.0,0.0,0.0,0.0,0.0,0.0,0.0,0.0,0.0,0.0,0.0,0.0,0.0,0.0,0.0,0.0,0.0,0.0,0.0,0.0,0.0,0.0,3.0369,3.221,3.4743,3.5826,3.5349,3.2559,2.9989,0.0,0.0,0.0,0.0,0.0,0.0,0.0,0.0,0.0,0.0,0.0,0.0,0.0,0.0,0.0,0.0,0.0,0.0,0.0,0.0,0.0,0.0,0.0,0.0,0.0,0.0,0.0,0.0,0.0,0.0,0.0,0.0,0.0,0.0,0.0,0.0,0.0,0.0,0.0,0.0,0.0,0.0,0.0,0.0,0.0,0.0,0.0,0.0,0.0,0.0,0.0,0.0,0.0,0.0,0.0,0.0,0.0,0.0,0.0,0.0,0.0,0.0,0.0,0.0,0.0,0.0,0.0,0.0,0.0,0.0,0.0,0.0,0.0,0.0,0.0,0.0,0.0,0.0,0.0,0.0,0.0,0.0,0.0,0.0,0.0,0.0,0.0,0.0,0.0,0.0,0.0,0.0,0.0,0.0,0.0,0.0,0.0,0.0,0.0,0.0,0.0,0.0,0.0,0.0,0.0,0.0,0.0,0.0,3.1935,3.4935,3.6707,3.7599,3.7422,3.5073,3.199,0.0,0.0,0.0,0.0,0.0,0.0,0.0,0.0,0.0,0.0,0.0,0.0,0.0,0.0,0.0,0.0,0.0,0.0,0.0,0.0,0.0,0.0,0.0,0.0,0.0,0.0,0.0,0.0,0.0,0.0,0.0,0.0,0.0,0.0,0.0,0.0,0.0,0.0,0.0,0.0,0.0,0.0,0.0,0.0,0.0,0.0,0.0,0.0,0.0,0.0,0.0,0.0,0.0,0.0,0.0,0.0,0.0,0.0,0.0,0.0,0.0,0.0,0.0,0.0,0.0,0.0,0.0,0.0,0.0,0.0,0.0,0.0,0.0,0.0,0.0,0.0,0.0,0.0,0.0,0.0,0.0,0.0,0.0,0.0,0.0,0.0,0.0,0.0,0.0,0.0,0.0,0.0,0.0,0.0,0.0,0.0,0.0,0.0,0.0,0.0,0.0,0.0,0.0,0.0,0.0,0.0,0.0,0.0,3.301,3.4972,3.7257,3.8138,3.7507,3.5092,3.2504,0.0,0.0,0.0,0.0,0.0,0.0,0.0,0.0,0.0,0.0,0.0,0.0,0.0,0.0,0.0,0.0,0.0,0.0,0.0,0.0,0.0,0.0,0.0,0.0,0.0,0.0,0.0,0.0,0.0,0.0,0.0,0.0,0.0,0.0,0.0,0.0,0.0,0.0,0.0,0.0,0.0,0.0,0.0,0.0,0.0,0.0,0.0,0.0,2.5933,0.0,0.0,0.0,0.0,0.0,0.0,0.0,0.0,0.0,0.0,0.0,0.0,0.0,0.0,0.0,0.0,0.0,0.0,0.0,0.0,0.0,0.0,0.0,0.0,0.0,0.0,0.0,0.0,0.0,0.0,0.0,0.0,0.0,0.0,0.0,0.0,0.0,0.0,0.0,0.0,0.0,0.0,0.0,0.0,0.0,0.0,0.0,0.0,0.0,0.0,0.0,0.0,0.0,0.0,0.0,0.0,0.0,0.0,0.0,3.3642,3.5926,3.7764,3.8481,3.7991,3.6046,3.3476,0.0,0.0,0.0,0.0,0.0,0.0,0.0,0.0,0.0,0.0,0.0,0.0,0.0,0.0,0.0,0.0,0.0,0.0,0.0,0.0,0.0,0.0,0.0,0.0,0.0,0.0,0.0,0.0,0.0,0.0,0.0,0.0,0.0,0.0,0.0,0.0,0.0,0.0,0.0,0.0,0.0,0.0,0.0,0.0,0.0,0.0,0.0,0.0,0.0,0.0,0.0,0.0,0.0,0.0,0.0,0.0,0.0,0.0,0.0,0.0,0.0,0.0,0.0,0.0,0.0,0.0,0.0,0.0,0.0,0.0,0.0,0.0,0.0,0.0,0.0,0.0,0.0,0.0,0.0,0.0,0.0,0.0,0.0,0.0,0.0,0.0,0.0,0.0,0.0,0.0,0.0,0.0,0.0,0.0,0.0,0.0,0.0,0.0,0.0,0.0,0.0,0.0,0.0,0.0,0.0,0.0,0.0,3.0867,3.4054,3.7209,3.8235,3.8707,3.867,3.7147,3.4431,3.0558,0.0,0.0,0.0,0.0,0.0,0.0,0.0,0.0,0.0,0.0,0.0,0.0,0.0,0.0,0.0,0.0,0.0,0.0,0.0,0.0,0.0,0.0,0.0,0.0,0.0,0.0,0.0,0.0,0.0,0.0,0.0,0.0,0.0,0.0,0.0,0.0,0.0,0.0,2.5014,2.72,0.0,0.0,0.0,0.0,0.0,0.0,0.0,0.0,2.8191,0.0,0.0,0.0,0.0,0.0,0.0,0.0,0.0,0.0,0.0,0.0,0.0,0.0,0.0,0.0,0.0,0.0,0.0,0.0,0.0,0.0,0.0,0.0,0.0,0.0,0.0,0.0,0.0,0.0,0.0,0.0,0.0,0.0,0.0,0.0,0.0,0.0,0.0,0.0,0.0,0.0,0.0,0.0,0.0,0.0,0.0,0.0,0.0,0.0,0.0,0.0,0.0,0.0,0.0,0.0,0.0,3.1503,3.2298,3.4549,3.8395,3.8688,3.8762,3.8652,3.7147,3.4688,3.1347,0.0,0.0,0.0,0.0,0.0,0.0,0.0,0.0,0.0,0.0,0.0,0.0,0.0,0.0,0.0,0.0,0.0,0.0,0.0,0.0,0.0,0.0,0.0,0.0,0.0,0.0,0.0,0.0,0.0,0.0,0.0,0.0,0.0,0.0,0.0,0.0,0.0,0.0,0.0,3.1292,3.2908,0.0,0.0,0.0,0.0,0.0,0.0,0.0,0.0,2.8631,0.0,0.0,0.0,0.0,0.0,0.0,0.0,0.0,0.0,0.0,0.0,0.0,0.0,0.0,0.0,0.0,0.0,0.0,0.0,0.0,0.0,0.0,0.0,0.0,0.0,0.0,0.0,0.0,0.0,0.0,0.0,0.0,0.0,0.0,0.0,0.0,0.0,0.0,0.0,0.0,0.0,0.0,0.0,0.0,0.0,0.0,0.0,0.0,0.0,0.0,0.0,0.0,0.0,0.0,0.0,2.8306,3.2753,3.6398,3.8859,3.887,3.8785,3.8695,3.6332,3.3862,0.0,0.0,0.0,0.0,0.0,0.0,0.0,0.0,0.0,0.0,0.0,0.0,0.0,0.0,0.0,0.0,0.0,0.0,0.0,0.0,0.0,0.0,0.0,0.0,0.0,0.0,0.0,0.0,0.0,0.0,0.0,0.0,0.0,0.0,0.0,0.0,0.0,0.0,0.0,0.0,3.1821,3.3495,3.4293,0.0,0.0,0.0,0.0,0.0,0.0,3.0063,2.9586,0.0,0.0,0.0,0.0,0.0,0.0,0.0,0.0,0.0,0.0,0.0,0.0,0.0,0.0,0.0,0.0,0.0,0.0,0.0,0.0,0.0,0.0,0.0,0.0,0.0,0.0,0.0,0.0,0.0,0.0,0.0,0.0,0.0,0.0,0.0,0.0,0.0,0.0,0.0,0.0,0.0,0.0,0.0,0.0,0.0,0.0,0.0,0.0,0.0,0.0,0.0,0.0,0.0,0.0,0.0,2.553,3.284,3.7533,3.8995,3.891,3.8752,3.8497,3.5625,3.3172,0.0,0.0,0.0,0.0,0.0,0.0,0.0,0.0,0.0,0.0,0.0,0.0,0.0,0.0,0.0,0.0,0.0,0.0,0.0,0.0,0.0,0.0,0.0,0.0,0.0,0.0,0.0,0.0,0.0,0.0,0.0,0.0,0.0,0.0,0.0,0.0,0.0,0.0,0.0,0.0,0.0,3.4137,3.4862,3.4037,0.0,0.0,0.0,0.0,3.2467,3.2082,0.0,0.0,0.0,0.0,0.0,0.0,0.0,0.0,0.0,0.0,0.0,0.0,0.0,0.0,0.0,0.0,0.0,0.0,0.0,0.0,0.0,0.0,0.0,0.0,0.0,0.0,0.0,0.0,0.0,0.0,0.0,0.0,0.0,0.0,0.0,0.0,0.0,0.0,0.0,0.0,0.0,0.0,0.0,0.0,0.0,0.0,0.0,0.0,0.0,0.0,0.0,0.0,0.0,0.0,0.0,0.0,2.88,3.26,3.6044,3.8921,3.9005,3.857,3.7724,3.5975,3.3556,0.0,0.0,0.0,0.0,0.0,0.0,0.0,0.0,0.0,0.0,0.0,0.0,0.0,0.0,0.0,0.0,0.0,0.0,0.0,0.0,0.0,0.0,0.0,0.0,0.0,0.0,0.0,0.0,0.0,0.0,0.0,0.0,0.0,0.0,0.0,0.0,0.0,0.0,0.0,0.0,0.0,3.7276,3.5265,3.5514,3.5844,0.0,0.0,3.5,3.6541,3.6736,0.0,0.0,0.0,0.0,0.0,0.0,0.0,0.0,0.0,0.0,0.0,0.0,0.0,0.0,0.0,0.0,0.0,0.0,0.0,0.0,0.0,0.0,0.0,0.0,0.0,0.0,0.0,0.0,0.0,0.0,0.0,0.0,0.0,0.0,0.0,0.0,0.0,0.0,0.0,0.0,0.0,0.0,0.0,0.0,0.0,0.0,0.0,0.0,0.0,0.0,0.0,0.0,0.0,0.0,0.0,2.752,3.1154,3.413,3.6745,3.8998,3.9044,3.8608,3.7728,3.5164,3.2458,0.0,0.0,0.0,0.0,0.0,0.0,0.0,0.0,0.0,0.0,0.0,0.0,0.0,0.0,0.0,0.0,0.0,0.0,0.0,0.0,0.0,0.0,0.0,0.0,0.0,0.0,0.0,0.0,0.0,0.0,0.0,0.0,0.0,0.0,0.0,0.0,0.0,0.0,0.0,0.0,0.0,0.0,3.7734,3.7716,0.0,0.0,0.0,3.6835,3.7991,0.0,0.0,0.0,0.0,0.0,0.0,0.0,0.0,0.0,0.0,0.0,0.0,0.0,0.0,0.0,0.0,0.0,0.0,0.0,0.0,0.0,0.0,0.0,0.0,0.0,0.0,0.0,0.0,0.0,0.0,0.0,0.0,0.0,0.0,0.0,0.0,0.0,0.0,0.0,0.0,0.0,0.0,0.0,0.0,0.0,0.0,0.0,0.0,0.0,0.0,0.0,0.0,0.0,0.0,0.0,0.0,0.0,3.2538,3.5299,3.7466,3.9027,3.9064,3.8507,3.7488,3.4607,0.0,0.0,0.0,0.0,0.0,0.0,0.0,0.0,0.0,0.0,0.0,0.0,0.0,0.0,0.0,0.0,0.0,0.0,0.0,0.0,0.0,0.0,0.0,0.0,0.0,0.0,0.0,1.4986,0.0,0.0,0.0,0.0,0.0,0.0,0.0,0.0,0.0,0.0,0.0,0.0,0.0,0.0,3.7312,3.9313,3.9423,3.9588,0.0,0.0,3.867,3.9478,3.9258,3.7881,0.0,0.0,0.0,0.0,0.0,0.0,0.0,0.0,0.0,0.0,0.0,0.0,0.0,0.0,0.0,0.0,0.0,0.0,0.0,0.0,0.0,0.0,0.0,0.0,0.0,0.0,0.0,0.0,0.0,0.0,0.0,0.0,0.0,0.0,0.0,0.0,0.0,0.0,0.0,0.0,0.0,0.0,0.0,0.0,0.0,0.0,0.0,0.0,0.0,0.0,0.0,0.0,0.0,0.0,0.0,3.2542,3.5299,3.7485,3.9027,3.9101,3.8331,3.6719,3.4918,3.2096,0.0,0.0,0.0,0.0,0.0,0.0,0.0,0.0,0.0,0.0,0.0,0.0,0.0,0.0,0.0,0.0,0.0,0.0,0.0,0.0,0.0,0.0,0.0,0.0,0.0,0.0,0.0,0.0,0.0,0.0,0.0,0.0,0.0,0.0,0.0,0.0,0.0,0.0,0.0,0.0,0.0,3.7753,3.8652,4.0029,4.124,0.0,4.1423,4.1148,4.1937,4.2616,4.1222,3.5826,0.0,0.0,0.0,0.0,0.0,0.0,0.0,0.0,0.0,0.0,0.0,0.0,0.0,0.0,0.0,0.0,0.0,0.0,0.0,0.0,0.0,0.0,0.0,0.0,0.0,0.0,0.0,0.0,0.0,0.0,0.0,0.0,0.0,0.0,0.0,0.0,0.0,0.0,0.0,0.0,0.0,0.0,0.0,0.0,0.0,0.0,0.0,0.0,0.0,0.0,0.0,0.0,0.0,2.8626,3.2087,3.5132,3.7485,3.899,3.8618,3.7819,3.6679,3.4481,3.1621,0.0,0.0,0.0,0.0,0.0,0.0,0.0,0.0,0.0,0.0,0.0,0.0,0.0,0.0,0.0,0.0,0.0,0.0,0.0,0.0,0.0,0.0,0.0,0.0,0.0,0.0,0.0,0.0,1.9275,2.0206,2.1791,0.0,0.0,0.0,0.0,0.0,0.0,0.0,0.0,0.0,0.0,3.8891,4.0671,4.146,0.0,0.0,4.2359,4.2121,4.2892,4.2047,4.0194,3.7037,3.5,0.0,0.0,0.0,0.0,0.0,0.0,0.0,0.0,0.0,0.0,0.0,0.0,0.0,0.0,0.0,0.0,0.0,0.0,0.0,0.0,0.0,0.0,0.0,0.0,0.0,0.0,0.0,0.0,0.0,0.0,0.0,0.0,0.0,0.0,0.0,0.0,0.0,0.0,0.0,0.0,0.0,0.0,0.0,0.0,0.0,0.0,0.0,0.0,0.0,0.0,0.0,0.0,2.8403,3.1429,3.4686,3.7002,3.8358,3.7838,3.7151,3.6315,3.4303,3.1681,0.0,0.0,0.0,0.0,0.0,0.0,0.0,0.0,0.0,0.0,0.0,0.0,0.0,0.0,0.0,0.0,0.0,0.0,0.0,0.0,0.0,0.0,0.0,0.0,0.0,0.0,0.0,0.0,2.05,2.1104,2.1702,0.0,0.0,0.0,0.0,0.0,0.0,0.0,0.0,0.0,0.0,3.995,4.2338,4.2687,4.2855,4.344,4.2834,4.2506,4.3057,4.175,4.0005,3.8198,0.0,0.0,0.0,0.0,0.0,0.0,0.0,0.0,0.0,0.0,0.0,0.0,0.0,0.0,0.0,0.0,0.0,0.0,0.0,0.0,0.0,0.0,0.0,0.0,0.0,0.0,0.0,1.3246,0.0,0.0,1.2514,0.0,0.0,0.0,0.0,0.0,0.0,0.0,0.0,0.0,0.0,0.0,0.0,0.0,0.0,0.0,0.0,0.0,0.0,0.0,0.0,0.0,0.0,2.8143,3.0615,3.3863,3.5943,3.6742,3.6723,3.6333,3.5553,3.4631,3.2575,2.9215,0.0,0.0,0.0,0.0,0.0,0.0,0.0,0.0,0.0,0.0,0.0,0.0,0.0,0.0,0.0,0.0,0.0,0.0,0.0,0.0,0.0,0.0,0.0,0.0,0.0,0.0,2.1332,2.1718,2.1546,0.0,0.0,0.0,0.0,0.0,0.0,0.0,0.0,0.0,0.0,3.8921,4.0835,4.3229,4.3529,4.3495,4.3582,4.2886,4.2323,4.2378,4.2298,4.1535,0.0,0.0,0.0,0.0,0.0,0.0,0.0,0.0,0.0,0.0,0.0,0.0,0.0,0.0,0.0,0.0,0.0,0.0,0.0,0.0,0.0,0.0,0.0,0.0,0.0,0.0,0.0,1.5675,1.5308,0.0,0.0,0.0,0.0,0.0,0.0,0.0,0.0,0.0,0.0,0.0,2.3495,2.504,0.0,0.0,0.0,0.0,0.0,0.0,0.0,0.0,0.0,0.0,0.0,0.0,2.8124,3.0634,3.3849,3.5869,3.6649,3.6166,3.5757,3.5497,3.4111,3.1713,2.8309,0.0,0.0,0.0,0.0,0.0,0.0,0.0,0.0,0.0,0.0,0.0,0.0,0.0,0.0,0.0,0.0,0.0,0.0,0.0,0.0,0.0,0.0,0.0,0.0,0.0,1.9757,0.0,0.0,0.0,0.0,0.0,0.0,0.0,0.0,0.0,0.0,0.0,3.5928,3.8881,4.0689,4.2202,4.3586,4.3719,4.3738,0.0,0.0,0.0,0.0,0.0,0.0,0.0,0.0,0.0,0.0,0.0,0.0,0.0,0.0,4.0466,3.5103,3.3679,3.3383,3.3642,0.0,0.0,0.0,0.0,0.0,0.0,0.0,0.0,0.0,0.0,0.0,0.0,0.0,0.0,1.7651,1.7677,1.6671,0.0,0.0,0.0,0.0,0.0,0.0,0.0,0.0,2.3836,2.5394,2.632,2.7566,2.7865,0.0,2.7344,2.5394,0.0,0.0,0.0,0.0,0.0,0.0,0.0,0.0,2.8403,3.0634,3.3528,3.5293,3.5776,3.5312,3.5033,3.5014,3.3666,3.1523,2.8627,2.5982,2.3817,0.0,0.0,0.0,0.0,0.0,0.0,0.0,0.0,0.0,0.0,0.0,0.0,0.0,0.0,0.0,0.0,0.0,0.0,0.0,0.0,0.0,0.0,0.0,2.0744,0.0,0.0,0.0,0.0,0.0,0.0,0.0,0.0,0.0,3.2847,3.5761,3.8617,4.0744,4.2205,4.3259,4.3763,0.0,0.0,0.0,0.0,0.0,0.0,0.0,4.1706,4.2538,4.2051,4.1545,4.1526,4.3304,4.4564,4.4035,0.0,0.0,3.9378,3.7933,3.7618,3.7933,3.9007,3.9804,3.9581,4.1144,4.2374,0.0,0.0,0.0,0.0,0.0,0.0,0.0,0.0,1.9085,1.9256,0.0,1.8682,0.0,0.0,0.0,0.0,1.8739,2.1586,0.0,0.0,2.7317,2.9025,2.885,2.953,2.9592,2.9154,3.0472,2.9809,2.7194,2.3596,0.0,0.0,0.0,0.0,0.0,0.0,2.894,3.0671,3.299,3.4216,3.4234,3.4234,3.4216,3.4197,3.3369,3.2064,3.0265,2.9028,2.6585,2.2531,2.2553,0.0,0.0,0.0,0.0,0.0,0.0,0.0,0.0,0.0,0.0,0.0,0.0,0.0,0.0,0.0,0.0,0.0,0.0,0.0,0.0,2.201,0.0,0.0,0.0,0.0,0.0,0.0,0.0,0.0,0.0,0.0,3.5658,3.834,4.0963,4.2508,0.0,0.0,0.0,0.0,4.3837,4.3952,4.3241,4.2987,4.3781,4.392,4.4188,4.4985,0.0,0.0,4.4432,4.5491,4.6085,4.4488,4.5602,4.6601,4.6452,4.4872,4.4147,4.4891,4.4457,4.4426,4.5201,4.5926,4.6797,2.3266,0.0,0.0,0.0,0.0,2.1855,2.2609,2.384,2.3471,2.3103,2.276,2.1694,0.0,0.0,0.0,0.0,0.0,0.0,2.5537,2.6901,2.888,3.0346,3.1336,3.1496,3.186,3.2378,3.1691,3.1115,3.064,2.8578,2.6103,2.3271,0.0,0.0,0.0,0.0,2.9813,3.1429,3.3268,3.4216,3.4216,3.4216,3.4216,3.4197,3.3393,3.2701,3.2173,2.9856,2.7972,2.662,2.4105,0.0,0.0,0.0,0.0,0.0,0.0,0.0,0.0,0.0,0.0,0.0,0.0,0.0,0.0,0.0,0.0,0.0,0.0,0.0,2.0205,2.1598,2.281,0.0,0.0,0.0,0.0,0.0,0.0,0.0,0.0,0.0,3.9618,4.1086,4.247,0.0,0.0,4.3992,4.3974,4.3961,4.4183,4.4809,4.4665,0.0,4.5593,4.5273,4.5162,4.5978,4.681,4.7367,4.7478,4.7906,4.8054,4.7534,4.8087,4.8546,4.8453,4.7229,4.6255,4.6405,4.6863,4.7334,4.7636,4.8352,4.8956,2.6698,2.5712,2.4434,2.4302,2.4918,2.4918,2.5379,2.6118,2.5929,2.5652,2.5284,2.4484,2.3724,2.3098,2.3004,0.0,0.0,0.0,2.8112,2.9877,3.108,3.2301,3.3406,3.3371,3.3705,3.4267,3.3379,3.3176,3.3651,3.2802,3.0979,2.826,0.0,0.0,2.8161,2.9946,3.1656,3.3231,3.4531,3.5033,3.4717,3.4364,3.4216,3.4179,3.3714,3.3324,3.2971,3.0925,2.9368,2.8478,2.604,2.3527,0.0,0.0,0.0,0.0,0.0,0.0,0.0,0.0,0.0,0.0,0.0,1.6987,1.521,0.0,0.0,0.0,1.9257,2.0872,2.2838,2.4391,0.0,0.0,0.0,0.0,0.0,0.0,0.0,3.6544,3.9027,4.0948,4.1902,4.273,4.3466,4.3949,4.4005,4.4005,4.4005,0.0,4.4302,4.5157,4.5287,4.5741,4.693,4.6738,4.6713,4.7691,4.8197,4.8665,4.9152,4.9265,4.9265,4.9283,4.9439,4.9558,4.9558,4.8805,4.818,4.8089,4.8577,4.9026,4.9091,4.9549,4.9943,2.9411,2.9597,2.7649,2.7118,2.7642,2.7642,2.7642,2.758,2.7223,2.7328,2.7811,2.7047,2.7064,2.7608,2.6557,0.0,2.8118,2.9303,3.0784,3.2462,3.3562,3.4446,3.5084,3.5031,3.5119,3.5311,3.5239,3.5472,3.5897,3.5957,3.544,3.4321,3.1429,3.0671,3.1949,3.2767,3.3993,3.5553,3.6296,3.6296,3.5497,3.4717,3.4271,3.4216,3.4141,3.3733,3.3008,3.1954,3.0577,2.8828,2.7975,2.5895,2.2363,0.0,0.0,0.0,0.0,0.0,0.0,0.0,0.0,0.0,0.0,0.0,0.0,0.0,0.0,0.0,2.3364,0.0,2.7064,2.8966,0.0,0.0,0.0,3.3537,3.4668,3.6764,3.8433,3.9305,0.0,0.0,4.289,4.3553,4.4017,4.4017,4.4036,4.4017,4.4017,4.4079,4.4364,4.5395,4.5475,4.6141,4.7913,4.8187,4.8464,4.9418,4.9803,4.9738,4.9757,4.9776,4.9803,4.9776,4.9811,4.983,4.983,4.9986,5.0159,4.9841,4.9853,4.9872,4.986,5.0073,5.0252,3.0044,3.0163,3.0357,3.0175,2.9704,2.9704,2.9704,2.9689,2.9819,2.9703,2.9501,2.9557,2.9781,3.0061,2.9853,3.0282,3.1173,3.2277,3.302,3.3482,3.4475,3.5315,3.6025,3.5438,3.5508,3.606,3.5489,3.5372,3.5684,3.5903,3.5923,3.5772,3.5217,3.4513,3.3696,3.4457,3.5404,3.6389,3.6593,3.6296,3.5516,3.5293,3.4866,3.4216,3.3603,3.3194,3.299,3.1455,3.0349,2.9741,2.8139,2.6468,2.485,2.2089,0.0,0.0,0.0,0.0,0.0,0.0,0.0,0.0,0.0,2.058,1.6747,0.0,2.1644,0.0,2.4849,2.7373,2.8897,2.9783,0.0,0.0,3.4869,3.6073,3.9444,4.0306,4.0956,4.1832,4.2983,4.3708,4.3726,4.405,4.4289,4.4308,4.4308,4.4289,4.4318,4.4465,4.5127,4.6466,4.6787,4.7418,4.8993,4.9372,4.9484,4.9765,4.9803,4.9803,4.9803,4.9803,4.9803,4.983,4.9968,5.0068,5.0111,5.0342,5.0547,5.0507,5.0467,5.0467,5.0486,5.0586,5.0644,3.0326,3.0372,3.1321,3.1429,3.0982,3.1198,3.1173,3.1068,3.131,3.1155,3.08,3.1069,3.1273,3.1396,3.1443,3.1925,3.2669,3.3537,3.426,3.485,3.5618,3.6291,3.6899,3.647,3.6506,3.6916,3.6488,3.6396,3.6666,3.6926,3.7156,3.7411,3.7655,3.7299,3.6426,3.65,3.6946,3.7745,3.7411,3.6853,3.6055,3.5665,3.4903,3.3714,3.3231,3.2655,3.1949,3.0617,2.9654,2.909,2.7538,2.6242,2.5265,2.3077,2.1334,0.0,0.0,0.0,0.0,0.0,0.0,0.0,0.0,0.0,0.0,0.0,2.3898,2.5072,2.8318,3.1002,3.2556,3.3968,3.5843,3.8385,3.8627,3.9565,4.1887,4.2414,4.2823,4.328,4.3726,4.4005,4.4005,4.4221,4.4402,4.4402,4.4624,4.4707,4.4599,4.4701,4.5407,4.6999,4.7302,4.7941,4.9695,5.0087,5.0221,5.0178,5.0202,5.0197,5.0221,5.0221,5.0221,5.0221,5.0317,5.0425,5.0425,5.0606,5.0738,5.0738,5.0775,5.0775,5.0757,5.0775,5.0812,3.019,3.0326,3.1204,3.161,3.1724,3.2231,3.2292,3.1945,3.2273,3.2247,3.1951,3.2176,3.2271,3.2287,3.2318,3.269,3.3435,3.4084,3.4999,3.6122,3.6701,3.7206,3.7577,3.7577,3.7577,3.7577,3.7577,3.7721,3.7949,3.8219,3.8478,3.8762,3.8979,3.9073,3.9064,3.8395,3.8395,3.9082,3.8414,3.7652,3.6853,3.6055,3.4847,3.325,3.2953,3.208,3.0522,2.9779,2.8915,2.7896,2.6972,2.6054,2.5134,2.4076,2.2835,0.0,2.0575,0.0,0.0,0.0,0.0,0.0,0.0,0.0,0.0,2.5548,2.7048,2.9406,3.2555,3.5153,3.6851,3.9064,4.0754,4.1646,4.237,4.2835,4.2965,4.3578,4.4005,4.4005,4.4017,4.4048,4.4097,4.4336,4.4519,4.4572,4.4943,4.514,4.4943,4.4919,4.5551,4.7156,4.7593,4.8596,4.9924,5.0504,5.0663,5.0683,5.0644,5.0683,5.0664,5.0664,5.0664,5.0702,5.0683,5.0701,5.0701,5.0756,5.081,5.081,5.0863,5.0863,5.0846,5.081,5.081,2.9727,2.9851,3.0732,3.1233,3.1507,3.2413,3.2765,3.2694,3.3192,3.3489,3.3646,3.3696,3.3761,3.386,3.399,3.4169,3.4477,3.5362,3.595,3.6232,3.7073,3.7503,3.7594,3.7577,3.7577,3.7577,3.7577,3.7631,3.7685,3.7949,3.8219,3.8496,3.8725,3.895,3.9101,0.0,0.0,0.0,3.8952,3.8488,3.7671,3.6891,3.5665,3.4011,3.2692,0.0,2.9723,2.9481,2.8996,2.812,2.8338,0.0,0.0,0.0,0.0,0.0,0.0,0.0,0.0,0.0,0.0,0.0,2.836,2.7682,2.6157,2.9646,3.259,3.3913,3.5782,3.7673,3.9472,4.0104,4.0977,4.2389,4.2723,4.3058,4.3689,4.3912,4.4005,4.4005,4.4192,4.4318,4.4327,4.4732,4.503,4.5033,4.5322,4.5495,4.5438,4.5419,4.6091,4.7664,4.8987,5.0063,5.0527,5.0663,5.0683,5.0683,5.0683,5.0683,5.0702,5.0702,5.072,5.0757,5.0775,5.0793,5.0775,5.0846,5.0883,5.0863,5.0897,5.0893,5.088,5.0877,5.0893,2.9602,2.9665,3.0387,3.0777,0.0,3.2287,3.2796,3.2904,3.3435,3.3848,3.4101,3.4151,3.425,3.43,3.4448,3.4546,3.4739,3.5688,3.6147,3.6274,3.715,3.7577,3.7577,3.7577,3.7577,3.7577,3.7577,3.7577,3.7613,3.8002,3.8285,3.8396,3.8773,3.8989,3.9101,3.9101,3.9101,3.9101,3.9101,3.8692,3.7894,3.7095,3.5887,3.4253,3.3027,0.0,0.0,0.0,0.0,0.0,0.0,0.0,0.0,0.0,0.0,2.6958,2.6441,2.6499,2.7391,2.8304,2.946,3.0982,3.2389,3.2327,3.0216,3.3109,3.5607,3.7017,3.8627,4.0118,4.1441,4.1943,4.25,4.328,4.3392,4.3578,4.3912,4.4121,4.4192,4.4221,4.4411,4.4599,4.465,4.5007,4.5243,4.5264,4.5475,4.5635,4.5654,4.562,4.6201,4.7855,4.9567,5.0683,5.0702,5.0683,5.0721,5.074,5.074,5.0758,5.0757,5.0738,5.0756,5.0793,5.081,5.0846,5.0846,5.088,5.0913,5.0913,5.0909,5.0909,5.0913,5.0909,5.0906,2.994,2.9989,3.0297,3.0606,3.0908,3.2094,3.2749,3.3055,3.3575,0.0,0.0,3.425,3.43,3.4349,3.4497,3.4611,3.4787,3.5705,3.6147,3.6215,3.7167,3.7577,3.7577,3.7577,3.7577,3.7577,3.7577,3.7577,3.7613,3.8068,3.835,3.8446,3.8826,3.9073,3.9101,3.9101,3.9101,3.9101,3.9101,3.8785,3.8116,3.7169,3.5962,3.4457,3.3491,3.1912,2.9723,2.976,2.9128,2.7659,2.7576,2.7827,2.8326,2.8378,2.8897,3.0002,3.0167,3.0655,3.1594,3.2463,3.3059,3.334,3.5542,3.6251,3.4747,3.6159,3.7785,3.9417,4.0921,4.2129,4.2927,4.3596,4.4005,4.4005,4.4005,4.4005,4.4036,4.425,4.443,4.4438,4.4682,4.49,4.4947,4.5222,4.5381,4.538,4.558,4.568,4.5738,4.5998,4.6679,4.8007,4.9586,5.0721,5.072,5.072,5.0738,5.0793,5.0793,5.0829,5.0829,5.081,5.081,5.0827,5.0863,5.088,5.0916,5.0893,5.089,5.0906,5.0906,5.0906,5.0906,5.0906,5.0906,3.1218,3.1242,3.1111,3.1242,3.1613,3.2318,3.3087,3.3882,3.4,3.405,3.4101,3.425,3.4349,3.4497,3.4594,3.4756,3.493,3.5776,3.619,3.6256,3.715,3.7577,3.7577,3.7577,3.7577,3.7577,3.7577,3.7577,3.7649,3.7915,3.8153,3.8433,3.8713,3.8921,3.9073,3.9101,3.9101,3.9101,3.9101,3.9045,3.8915,3.7466,3.6259,3.5312,3.3807,3.2191,3.0541,3.1076,3.1043,3.0169,3.0702,3.0832,3.0293,3.0674,3.0812,3.0561,3.084,3.1748,3.3382,3.3718,3.4774,3.6922,3.8118,3.8248,3.7266,3.8803,4.0224,4.1163,4.2054,4.2946,4.3726,4.3931,4.4005,4.4005,4.4005,4.4005,4.4036,4.4308,4.4493,4.4546,4.4928,4.5246,4.5265,4.5473,4.5632,4.5648,4.568,4.5696,4.5908,4.6992,4.7882,4.8422,4.9695,5.064,5.0696,5.0773,5.0715,5.0812,5.0713,5.0634,5.0651,5.0745,5.0764,5.0835,5.0851,5.0909,5.0909,5.0909,5.0906,5.0906,5.0906,5.0906,5.0906,5.0906,5.0906,3.1138,3.1457,3.1423,3.1461,3.1737,3.2512,3.3342,3.4133,3.4186,3.4118,3.4101,3.43,3.4448,3.4497,3.4691,3.4835,3.493,3.582,3.6215,3.6256,3.7167,3.7577,3.7577,3.7577,3.7577,3.7577,3.7577,3.7577,3.7613,3.788,3.8119,3.8415,3.8785,3.9017,3.9101,3.9101,3.9101,3.9101,3.9101,3.9101,3.9064,3.7522,3.6519,3.6129,3.4531,3.3101,3.1949,3.2247,3.2061,3.1281,3.1597,3.1819,3.1912,3.2159,3.2604,3.3194,3.342,3.409,3.5332,3.5851,3.6811,3.8414,3.8878,3.9129,3.9155,4.0288,4.1181,4.1609,4.2705,4.3578,4.3968,4.4005,4.4005,4.4005,4.4005,4.4048,4.4221,4.4465,4.4726,4.4919,4.5264,4.5528,4.556,4.5665,4.5746,4.5742,4.5776,4.5757,4.5776,4.6819,4.7619,4.7761,4.8998,4.9961,5.0152,5.0132,5.0149,5.0185,4.9779,4.9563,4.9579,4.9869,5.0213,5.0271,5.0577,5.0887,5.0906,5.0906,5.0906,5.0906,5.0906,5.0906,5.0906,5.0906,5.0906,3.0896,3.1609,3.1455,3.165,3.2019,3.279,3.3516,3.4178,3.4227,3.424,3.4191,3.4415,3.4497,3.4546,3.4804,3.4899,3.5024,3.582,3.6215,3.6298,3.715,3.7577,3.7577,3.7577,3.7577,3.7577,3.7577,3.7577,3.7613,3.7791,3.8099,3.846,3.8844,3.9045,3.9101,3.9101,3.9101,3.9101,3.9101,3.9101,3.9045,3.7689,3.6946,3.6872,3.5367,3.4197,3.3584,3.3361,3.2971,3.2395,3.2548,3.2915,3.351,3.3714,3.4401,3.5609,3.5757,3.611,3.6909,3.7708,3.8432,3.9045,3.9101,3.9472,4.0308,4.1126,4.1683,4.1999,4.3169,4.3986,4.4005,4.4005,4.4036,4.4079,4.4091,4.425,4.4493,4.4757,4.5033,4.5303,4.5547,4.5735,4.5781,4.5795,4.581,4.58,4.58,4.58,4.5877,4.6419,4.6738,4.7059,4.8147,4.9186,4.9331,4.9331,4.9347,4.9397,4.8914,4.8624,4.8624,4.9049,4.9339,4.9475,5.0074,5.048,5.0616,5.0809,5.0887,5.0906,5.0906,5.0906,5.0906,5.0906,5.0906,3.1095,3.1928,3.1439,3.1839,3.2703,3.296,3.3517,3.4229,3.4337,3.4403,3.4351,3.446,3.4562,3.4707,3.4851,3.4899,3.4977,3.5803,3.6172,3.6298,3.7167,3.7577,3.7577,3.7577,3.7577,3.7577,3.7577,3.7577,3.7613,3.7665,3.802,3.8695,3.8803,3.8902,3.9073,3.9101,3.9101,3.9101,3.9101,3.9101,3.9045,3.8247,3.7801,3.7782,3.6222,3.5349,3.52,3.4513,3.4067,3.4048,3.4699,3.5163,3.5293,3.5925,3.6408,3.6575,3.6593,3.6946,3.7726,3.8544,3.899,3.9082,3.9138,3.9528,4.0364,4.1163,4.1924,4.2649,4.3503,4.3986,4.4005,4.4036,4.414,4.4346,4.4411,4.4591,4.4825,4.5144,4.5342,4.5399,4.5645,4.5819,4.5819,4.5819,4.5819,4.58,4.58,4.58,4.5819,4.5916,4.6051,4.625,4.7371,4.8338,4.8473,4.8508,4.8508,4.8508,4.843,4.8198,4.8159,4.8295,4.8527,4.8604,4.9223,4.9745,4.9958,5.0345,5.0813,5.077,5.0809,5.0906,5.0906,5.0906,5.0906,3.0291,3.1167,3.0956,3.1299,3.2125,3.2591,3.3165,3.3669,3.4182,3.4395,3.4381,3.445,3.4507,3.4707,3.4851,3.4899,3.4947,3.5571,3.5977,3.6215,3.69,3.7319,3.7577,3.7577,3.7577,3.7577,3.7577,3.7577,3.7649,3.7773,3.7995,3.83,3.8496,3.8683,3.8921,3.8921,3.8979,3.9101,3.9101,3.9101,3.9045,3.8803,3.8375,3.7838,3.6779,3.6203,3.6166,3.585,3.5665,3.5683,3.6017,3.6185,3.6203,3.65,3.6909,3.7373,3.7875,3.8247,3.8581,3.8915,3.9101,3.9101,3.9565,4.0215,4.1062,4.192,4.2779,4.3562,4.399,4.4177,4.4207,4.4327,4.4457,4.4591,4.4663,4.4858,4.5104,4.5265,4.5399,4.5596,4.5731,4.5805,4.58,4.58,4.58,4.58,4.58,4.58,4.58,4.58,4.58,4.5877,4.6457,4.7018,4.7482,4.7637,4.7637,4.754,4.7173,4.6864,4.698,4.7386,4.7637,4.7637,4.8372,4.8875,4.8933,4.9591,5.019,5.0302,5.0712,5.0906,5.0906,5.0906,5.0906,2.8966,2.9884,3.0506,3.1044,3.1589,3.239,3.2891,3.3321,3.4011,3.4395,3.4451,3.451,3.459,3.4709,3.4838,3.4851,3.493,3.5362,3.5732,3.6105,3.6643,3.7091,3.7411,3.754,3.7577,3.7577,3.7577,3.7577,3.7613,3.7774,3.7915,3.8018,3.8186,3.8415,3.8652,3.8743,3.8844,3.8952,3.9055,3.9101,3.9082,3.91,3.8821,3.8209,3.7448,3.7021,3.7002,3.6816,3.6705,3.6705,3.6891,3.7021,3.7021,3.7225,3.7615,3.8172,3.8767,3.9101,3.9101,3.9129,3.9156,3.9212,3.9779,4.0617,4.1549,4.2324,4.3184,4.4223,4.4401,4.4401,4.4383,4.4541,4.4688,4.4776,4.4905,4.5104,4.5399,4.5435,4.5541,4.5761,4.581,4.581,4.5819,4.58,4.58,4.58,4.58,4.58,4.58,4.58,4.58,4.58,4.5819,4.6051,4.6612,4.6748,4.6728,4.6651,4.6225,4.5974,4.58,4.6438,4.6748,4.6825,4.756,4.8005,4.8135,4.8701,4.9533,4.9852,5.0317,5.0845,5.1011,5.099,5.0961,2.7023,2.833,3.0303,3.1119,3.1516,3.2434,3.2989,3.3128,3.4074,3.4448,3.4485,3.4697,3.4826,3.4768,3.466,3.4739,3.4947,3.5362,3.5571,3.5732,3.6481,3.69,3.6956,3.7356,3.7594,3.7594,3.7577,3.7577,3.7577,3.7631,3.7757,3.7984,3.8018,3.8153,3.8415,3.8652,3.8718,3.8704,3.8952,3.9101,3.9082,3.9082,3.9064,3.8915,3.8265,3.7838,3.7782,3.7113,3.676,3.6742,3.7466,3.7838,3.7894,3.8544,3.8934,3.9008,3.9045,3.9101,3.9129,3.9219,3.9298,3.9317,3.957,4.0265,4.174,4.216,4.2938,4.4337,4.4632,4.4659,4.4551,4.4613,4.4758,4.5052,4.5161,4.5362,4.5715,4.5742,4.5786,4.58,4.5819,4.58,4.58,4.58,4.58,4.58,4.58,4.58,4.58,4.58,4.5814,4.5814,4.5814,4.5833,4.5891,4.6051,4.5993,4.5974,4.6013,4.58,4.58,4.5838,4.5896,4.6065,4.6723,4.7163,4.7318,4.7882,4.8805,4.9443,5.0149,5.0627,5.0464,5.0903,5.0809,2.6058,2.7256,2.8231,2.9057,2.9845,3.082,3.1636,3.2407,3.3306,3.3915,3.4259,3.4137,3.4098,3.4101,3.4188,3.4448,3.4883,3.5055,3.5316,3.5616,3.5907,3.6357,3.69,3.7073,3.7337,3.7577,3.7577,3.7577,3.7577,3.7577,3.7649,3.7721,3.7739,3.7898,3.8153,3.8433,3.8566,3.8626,3.8933,3.9101,3.9101,3.9101,3.9101,3.9082,3.8841,3.8655,3.8674,3.8377,3.8228,3.8247,3.8525,3.8674,3.8692,3.8934,3.9101,3.9082,3.9165,3.9219,3.9245,3.935,3.9408,3.9471,4.0002,4.0766,4.1837,4.2585,4.3446,4.4403,4.487,4.4967,4.4991,4.5019,4.5159,4.5362,4.5526,4.561,4.5757,4.5819,4.58,4.58,4.58,4.58,4.58,4.58,4.58,4.58,4.58,4.5814,4.5814,4.5841,4.5848,4.5848,4.5848,4.5867,4.5861,4.5827,4.5819,4.5819,4.58,4.5814,4.5814,4.5827,4.5886,4.5951,4.6358,4.6474,4.67,4.7299,4.8174,4.8846,4.9584,4.9847,4.9526,4.9886,4.9787,2.5147,2.6235,2.6588,2.7325,2.845,2.9356,3.0342,3.1489,3.2362,3.3237,3.3828,3.3741,3.3817,3.4083,3.4225,3.4533,3.4906,3.4903,3.5055,3.5362,3.5526,3.5907,3.6399,3.662,3.6939,3.7319,3.754,3.7577,3.7577,3.7577,3.7577,3.7613,3.7577,3.7685,3.788,3.8153,3.8314,3.8486,3.8807,3.897,3.8952,3.9055,3.9101,3.9101,3.9156,3.9137,3.9101,3.9101,3.9101,3.9101,3.9137,3.9165,3.9183,3.9165,3.9183,3.9183,3.9298,3.9376,3.9376,3.9502,3.9556,3.9575,4.0126,4.0941,4.1977,4.2769,4.3611,4.4499,4.4943,4.5125,4.5258,4.5361,4.5457,4.558,4.5677,4.5752,4.578,4.58,4.58,4.58,4.58,4.58,4.5814,4.5827,4.5841,4.5841,4.5854,4.588,4.588,4.5886,4.5922,4.5941,4.5941,4.5941,4.5941,4.5898,4.5841,4.5827,4.5848,4.5835,4.5848,4.5848,4.5886,4.5914,4.5947,4.5986,4.6288,4.6833,4.7466,4.8108,4.8739,4.9186,4.8963,4.8798,4.8827,2.4039,2.5147,2.5411,2.6235,2.7452,2.8275,2.9359,3.0581,3.1429,3.2321,3.3128,3.3502,3.3937,3.4559,3.4763,3.5045,3.4836,3.4857,3.4932,3.4994,3.5362,3.5571,3.5732,3.6062,3.655,3.7044,3.7392,3.7594,3.7593,3.7594,3.7577,3.7577,3.7577,3.7613,3.7631,3.788,3.8036,3.8171,3.8541,3.8718,3.8674,3.8905,3.9073,3.9101,3.9219,3.9264,3.9129,3.911,3.9137,3.9156,3.9245,3.9298,3.9298,3.9298,3.9298,3.9324,3.9408,3.9483,3.9508,3.9623,3.9693,3.9735,3.9841,4.0662,4.2063,4.2465,4.3166,4.4578,4.4967,4.5084,4.5361,4.5419,4.5493,4.558,4.5645,4.5692,4.5786,4.58,4.58,4.58,4.5814,4.5814,4.5808,4.5848,4.5905,4.5898,4.5953,4.5975,4.5975,4.5986,4.5997,4.5997,4.5997,4.5997,4.5997,4.5977,4.5917,4.5867,4.5898,4.5902,4.5928,4.5949,4.5978,4.6013,4.6029,4.6068,4.6142,4.6663,4.6957,4.7548,4.8087,4.8366,4.8132,4.7969,4.8207,2.2541,2.4221,2.4478,2.5147,2.6224,2.7348,2.8366,2.9282,3.048,3.1415,3.2222,3.2694,3.3025,3.3375,3.3879,3.4007,3.377,3.4481,3.4906,3.4916,3.5071,3.5333,3.5571,3.5749,3.6337,3.7195,3.7185,3.7291,3.7527,3.7573,3.7577,3.7577,3.7577,3.7577,3.7613,3.7863,3.7929,3.7837,3.8263,3.8436,3.8308,3.87,3.895,3.9045,3.9192,3.9305,3.9357,3.9357,3.9357,3.9376,3.9427,3.9433,3.9433,3.9433,3.9433,3.9452,3.9556,3.9647,3.9628,3.9758,3.9826,3.9845,3.9889,4.0704,4.2109,4.2393,4.3179,4.4775,4.5175,4.5361,4.551,4.5629,4.5677,4.5723,4.5737,4.5757,4.58,4.5814,4.58,4.5814,4.5854,4.588,4.5873,4.5922,4.5975,4.5975,4.5997,4.6007,4.6007,4.6056,4.6075,4.6075,4.6075,4.6075,4.6075,4.6047,4.6007,4.5966,4.5959,4.5979,4.5996,4.6025,4.606,4.6078,4.6108,4.6153,4.6221,4.6386,4.6683,4.6706,4.6986,4.706,4.7021,4.7167,4.7423,2.0764,2.2092,2.262,2.3481,2.4511,2.5786,2.7012,2.8195,2.9188,3.0215,3.1249,3.1823,3.2347,3.2958,3.3687,3.3817,3.3563,3.4169,3.4371,3.4366,3.4787,3.5055,3.5379,3.5577,3.5868,3.6466,3.6509,3.6678,3.7056,3.7235,3.7319,3.7319,3.7485,3.7577,3.7631,3.7739,3.7738,3.7665,3.8013,3.8198,3.8176,3.8455,3.8695,3.8785,3.8952,3.9119,3.9298,3.9376,3.9427,3.9483,3.9483,3.9526,3.9556,3.9556,3.9556,3.9599,3.9693,3.9762,3.9762,3.9826,3.9889,3.9889,3.9889,4.0479,4.1692,4.2166,4.3126,4.4341,4.496,4.5302,4.5493,4.5596,4.5692,4.58,4.58,4.5814,4.5841,4.5841,4.5867,4.5893,4.5917,4.5941,4.5953,4.5977,4.6027,4.6027,4.6066,4.6056,4.6084,4.6102,4.613,4.6138,4.6138,4.6138,4.6138,4.6111,4.6083,4.6072,4.6057,4.6052,4.6066,4.6114,4.614,4.6147,4.6175,4.6192,4.6256,4.6237,4.6373,4.6217,4.6217,4.6368,4.658,4.6475,4.6639,1.8772,1.9231,2.0133,2.1364,2.2746,2.375,2.5284,2.7128,2.7706,2.8821,3.019,3.0878,3.1847,3.324,3.4098,3.4385,3.403,3.3851,3.363,3.3682,3.4201,3.4723,3.5024,3.5446,3.5481,3.5256,3.5634,3.5916,3.6155,3.6643,3.686,3.6978,3.7319,3.7577,3.7594,3.7613,3.7613,3.765,3.7845,3.7984,3.7984,3.8234,3.8382,3.8428,3.8597,3.8807,3.9082,3.9219,3.9331,3.9458,3.9508,3.9599,3.967,3.9693,3.9717,3.9717,3.9826,3.9848,3.987,3.9889,3.9889,3.9889,3.9908,4.029,4.12,4.2014,4.2815,4.3809,4.4577,4.5113,4.5362,4.5475,4.5596,4.5752,4.5827,4.5841,4.5873,4.5905,4.5929,4.5975,4.5997,4.6007,4.6007,4.6047,4.6093,4.6102,4.6146,4.6162,4.6162,4.6181,4.6196,4.6196,4.6189,4.6181,4.6181,4.6154,4.6127,4.6123,4.6118,4.6128,4.6128,4.6175,4.6208,4.621,4.621,4.623,4.6249,4.623,4.623,4.623,4.6229,4.6207,4.6204,4.6219,4.6215,1.736,1.8872,1.9314,2.0206,2.1551,2.2591,2.3912,2.5316,2.6389,2.7441,2.856,2.9628,3.0618,3.1756,3.3794,3.4222,3.3427,3.3619,3.3686,3.3395,3.3509,3.4152,3.4739,3.5058,3.5102,3.4985,3.5346,3.5518,3.5348,3.6027,3.6545,3.69,3.7017,3.7281,3.754,3.7613,3.7577,3.7577,3.7649,3.7721,3.7757,3.7984,3.8168,3.8281,3.8517,3.8828,3.9208,3.9357,3.9433,3.9483,3.958,3.967,3.9717,3.9804,3.9826,3.9826,3.9848,3.9889,3.9889,3.9889,3.9889,3.9889,3.9889,4.0268,4.1143,4.1939,4.2803,4.3751,4.4701,4.5322,4.551,4.5629,4.5752,4.5854,4.5893,4.5893,4.5917,4.5933,4.5986,4.5997,4.6056,4.6056,4.6084,4.6111,4.6181,4.6181,4.6189,4.6196,4.6196,4.6196,4.6196,4.6196,4.6196,4.6196,4.6196,4.6196,4.6196,4.6183,4.6181,4.6206,4.6223,4.6249,4.6264,4.6276,4.6262,4.6264,4.628,4.6276,4.6261,4.6246,4.6248,4.625,4.625,4.6249,4.6207,1.5089,1.6324,1.726,1.818,1.9082,2.0523,2.2133,2.374,2.466,2.5837,2.7105,2.8457,2.9462,3.0392,3.2362,3.2942,3.2491,3.2951,3.293,3.2669,3.2811,3.3491,3.4366,3.4742,3.4921,3.4899,3.5195,3.5124,3.5081,3.5586,3.6172,3.6563,3.6803,3.7167,3.7595,3.7631,3.7649,3.7649,3.7649,3.7649,3.7649,3.7774,3.7915,3.8068,3.83,3.8548,3.8857,3.9154,3.9305,3.9338,3.9464,3.967,3.9762,3.9867,3.9889,3.9889,3.9889,3.9889,3.9889,3.9889,3.9889,3.9889,3.9889,4.0157,4.0764,4.1673,4.2746,4.3321,4.4555,4.5303,4.5626,4.5775,4.5905,4.5941,4.5975,4.5986,4.5966,4.6017,4.6066,4.6084,4.6111,4.6127,4.6166,4.6169,4.6196,4.6196,4.6196,4.6196,4.6196,4.6196,4.6196,4.6203,4.6203,4.6203,4.6203,4.6203,4.6196,4.6203,4.6201,4.6217,4.6248,4.6284,4.6297,4.6293,4.6306,4.63,4.63,4.63,4.6287,4.6276,4.6297,4.63,4.6284,4.6268,4.623,1.2533,1.2823,1.4721,1.5752,1.649,1.8095,2.0172,2.2124,2.2824,2.4033,2.5753,2.7256,2.8299,2.9294,3.0768,3.1433,3.1773,3.2047,3.1798,3.1723,3.1936,3.2734,3.3745,3.4311,3.4693,3.4851,3.4883,3.4913,3.5068,3.5453,3.5776,3.619,3.6563,3.7094,3.7468,3.7631,3.7667,3.7721,3.7721,3.7721,3.7721,3.7757,3.7828,3.7916,3.807,3.8171,3.8415,3.8737,3.9008,3.8952,3.9313,3.9599,3.9804,3.9826,3.9889,3.9889,3.9889,3.9889,3.9889,3.9889,3.9889,3.9889,3.9889,3.9965,4.046,4.1598,4.2595,4.3071,4.4324,4.5246,4.5688,4.5886,4.5986,4.6026,4.6047,4.6093,4.6122,4.6122,4.6138,4.6169,4.6196,4.6196,4.6196,4.6196,4.6196,4.6196,4.6196,4.6196,4.6203,4.6203,4.6203,4.6203,4.6209,4.6209,4.6209,4.6216,4.6209,4.6201,4.6202,4.6223,4.6226,4.6269,4.6286,4.6301,4.629,4.63,4.63,4.63,4.63,4.6303,4.629,4.6306,4.6284,4.6293,4.6261,1.1463,1.2436,1.3108,1.4429,1.6014,1.6584,1.8164,2.0486,2.1542,2.2659,2.4214,2.5525,2.7035,2.8652,2.9757,3.0808,3.1382,3.1469,3.1225,3.0775,3.0822,3.1622,3.2695,3.3393,3.4101,3.4577,3.4675,3.4804,3.5152,3.5337,3.5543,3.595,3.6147,3.6522,3.7226,3.7356,3.7522,3.7775,3.7846,3.781,3.781,3.7846,3.7846,3.7934,3.8171,3.8271,3.8289,3.8541,3.8707,3.8865,3.9261,3.958,3.9551,3.9754,3.9867,3.9889,3.9889,3.9889,3.9889,3.9889,3.9889,3.9889,3.9908,4.0192,4.0934,4.1787,4.2743,4.3501,4.4565,4.536,4.5747,4.591,4.6017,4.6075,4.6093,4.613,4.6174,4.6181,4.6189,4.6196,4.6196,4.6196,4.6196,4.6196,4.6196,4.6196,4.6196,4.6196,4.6203,4.6209,4.6209,4.6209,4.6196,4.6209,4.6197,4.6201,4.621,4.6218,4.6219,4.6211,4.623,4.6249,4.628,4.6293,4.6303,4.63,4.63,4.63,4.63,4.63,4.63,4.63,4.63,4.63,4.63,1.01,1.0886,1.1663,1.2705,1.3837,1.462,1.6223,1.8187,1.9198,2.0738,2.2503,2.3988,2.5419,2.6685,2.8171,2.9414,3.0202,3.0678,3.0664,3.042,3.0273,3.0778,3.1664,3.2226,3.2864,3.4102,3.435,3.4725,3.5243,3.5345,3.5515,3.5864,3.589,3.6316,3.69,3.7013,3.7129,3.7337,3.7577,3.7649,3.7685,3.7863,3.8003,3.8038,3.8256,3.8307,3.8241,3.8465,3.851,3.8646,3.9154,3.9551,3.9489,3.9712,3.9872,3.9889,3.9889,3.9889,3.9889,3.9889,3.9889,3.9889,3.9889,4.0444,4.1146,4.1984,4.2936,4.3923,4.4804,4.5552,4.5933,4.6027,4.6102,4.6138,4.6127,4.6174,4.6196,4.6196,4.6196,4.6196,4.6196,4.6196,4.6196,4.6203,4.6196,4.6203,4.6196,4.6196,4.6203,4.6209,4.6196,4.6203,4.6209,4.6211,4.6206,4.6198,4.6204,4.6225,4.6248,4.6225,4.6206,4.6241,4.6257,4.628,4.6284,4.63,4.63,4.63,4.63,4.63,4.63,4.63,4.63,4.63,4.63,0.8425,0.8931,1.0194,1.0774,1.1365,1.263,1.425,1.6041,1.6901,1.8656,2.0593,2.2484,2.37,2.4565,2.6262,2.7636,2.8549,2.9153,2.9416,2.9619,2.9295,2.9922,3.0734,3.1013,3.161,3.3297,3.3761,3.4379,3.4923,3.5179,3.5115,3.5565,3.5732,3.6037,3.6557,3.6736,3.6816,3.6974,3.7301,3.745,3.7541,3.7845,3.8106,3.8158,3.8192,3.8225,3.8259,3.8387,3.8415,3.8274,3.8894,3.9234,3.9439,3.9726,3.9896,3.9889,3.9889,3.9889,3.9889,3.9889,3.9889,3.9889,3.9889,4.035,4.1209,4.205,4.298,4.4018,4.4958,4.5711,4.6074,4.6154,4.6181,4.6196,4.6196,4.6196,4.6196,4.6196,4.6196,4.6196,4.6203,4.6209,4.6209,4.6209,4.6203,4.6203,4.6203,4.6203,4.6209,4.6203,4.622,4.6186,4.6199,4.6163,4.6172,4.6189,4.6186,4.6207,4.6245,4.6225,4.6195,4.622,4.6236,4.6261,4.6267,4.628,4.63,4.63,4.63,4.63,4.63,4.63,4.63,4.63,4.63,0.6329,0.7229,0.7915,0.9197,1.0779,1.137,1.2624,1.4453,1.5859,1.7252,1.8648,2.0747,2.223,2.3355,2.4735,2.6084,2.7124,2.7678,2.7934,2.8266,2.817,2.8693,2.9662,2.9875,3.0642,3.1862,3.271,3.333,3.3912,3.4036,3.4496,3.4783,3.4988,3.5509,3.6097,3.6367,3.6474,3.6719,3.7132,3.7321,3.7432,3.781,3.8106,3.8158,3.8158,3.8192,3.8192,3.8259,3.8241,3.8225,3.8354,3.8554,3.8923,3.9514,3.9819,3.9867,3.9889,3.9889,3.9889,3.9889,3.9889,3.9889,3.9911,4.0388,4.1247,4.2069,4.3037,4.4059,4.5051,4.5725,4.577,4.6046,4.6189,4.6196,4.6196,4.6196,4.6196,4.6196,4.6203,4.6203,4.6209,4.6196,4.6196,4.6203,4.6203,4.6203,4.6203,4.6203,4.6203,4.6211,4.6222,4.62,4.617,4.6149,4.6128,4.6162,4.6181,4.6177,4.6197,4.6206,4.6183,4.6203,4.6228,4.6211,4.6225,4.6245,4.6264,4.6273,4.6277,4.6273,4.6296,4.63,4.63,4.63,4.63,0.502,0.6429,0.6822,0.8014,0.9406,0.9998,1.117,1.2727,1.3861,1.5184,1.6872,1.8724,2.0271,2.1603,2.3231,2.4817,2.6132,2.6868,2.7237,2.7532,2.7229,2.763,2.8734,2.8925,2.9648,3.06,3.1347,3.2407,3.3471,3.3834,3.3953,3.4301,3.4609,3.5052,3.5464,3.581,3.6028,3.6333,3.6661,3.69,3.696,3.7487,3.781,3.7898,3.8088,3.8192,3.8192,3.8192,3.8192,3.8225,3.8354,3.8541,3.8876,3.9287,3.9693,3.9712,3.9804,3.9889,3.9889,3.9889,3.9889,3.9911,3.997,4.0659,4.1635,4.2479,4.3291,4.4532,4.5259,4.5883,4.5978,4.6111,4.6189,4.6196,4.6196,4.6203,4.6209,4.6203,4.6203,4.6209,4.6196,4.6203,4.6203,4.6209,4.6201,4.6201,4.6215,4.6215,4.6215,4.623,4.6234,4.6191,4.6168,4.6136,4.6099,4.6112,4.6135,4.615,4.615,4.6154,4.6146,4.6138,4.6146,4.615,4.617,4.6209,4.622,4.6245,4.6255,4.6264,4.6273,4.6277,4.63,4.63,4.63,0.3513,0.5225,0.5625,0.6623,0.7928,0.8421,0.96,1.0974,1.1848,1.3193,1.5019,1.6778,1.8172,1.9571,2.1453,2.3487,2.5563,2.6221,2.6569,2.682,2.6454,2.6786,2.763,2.8271,2.873,2.9582,3.0303,3.1291,3.2336,3.2933,3.3391,3.3751,3.4202,3.4673,3.4927,3.5407,3.5487,3.5711,3.6045,3.6326,3.6557,3.7094,3.7505,3.7542,3.7949,3.8225,3.8192,3.8225,3.8225,3.8241,3.8368,3.8566,3.8828,3.9227,3.9452,3.9483,3.9717,3.9848,3.9889,3.9889,4.0006,4.0293,4.0279,4.118,4.2238,4.3044,4.3841,4.5307,4.5871,4.6017,4.6065,4.6162,4.6196,4.6196,4.6196,4.6203,4.6216,4.6196,4.6196,4.6203,4.6209,4.6215,4.6215,4.625,4.624,4.6255,4.625,4.6231,4.6236,4.6218,4.6223,4.6166,4.6147,4.6132,4.6098,4.6064,4.6072,4.6072,4.6083,4.6093,4.6075,4.6047,4.6056,4.6074,4.6102,4.6127,4.6169,4.6196,4.6228,4.6245,4.626,4.6264,4.6255,4.626,4.6264,0.0804,0.2515,0.3519,0.4822,0.6126,0.6623,0.7816,0.9505,1.0667,1.2032,1.3403,1.521,1.6438,1.774,1.9827,2.2016,2.3566,2.4342,2.4884,2.5443,2.5598,2.5918,2.6663,2.7324,2.8076,2.8815,2.9586,3.0136,3.0837,3.1289,3.2043,3.2779,3.3391,3.3818,3.461,3.5148,3.5379,3.5441,3.6028,3.6498,3.6781,3.7208,3.7395,3.7632,3.7949,3.8241,3.8207,3.8274,3.8274,3.8207,3.8241,3.8274,3.8387,3.9005,3.9229,3.9357,3.9561,3.9889,3.9911,4.0025,4.0331,4.0829,4.1098,4.178,4.2757,4.378,4.4604,4.5515,4.5879,4.5997,4.6066,4.6138,4.6189,4.6196,4.6196,4.6209,4.6203,4.6203,4.6203,4.622,4.6245,4.6226,4.6226,4.6264,4.6296,4.6288,4.6303,4.6284,4.6257,4.6237,4.6226,4.6166,4.6108,4.6079,4.6099,4.6052,4.6026,4.6017,4.6027,4.6037,4.6027,4.6017,4.6007,4.6027,4.6056,4.6075,4.6138,4.6162,4.6203,4.6216,4.6228,4.6222,4.6209,4.6222,4.6226,-0.2107,-0.0,0.0502,0.2005,0.4012,0.431,0.5613,0.7717,0.9513,1.0699,1.1853,1.3674,1.5488,1.7152,1.9183,2.0665,2.1977,2.2614,2.3246,2.4089,2.4499,2.5063,2.5812,2.665,2.7445,2.8182,2.8648,2.8762,2.9352,3.054,3.1622,3.1987,3.2756,3.3391,3.4168,3.4771,3.5148,3.5424,3.5854,3.6259,3.6433,3.6781,3.7094,3.734,3.7792,3.8052,3.8238,3.8336,3.8354,3.8303,3.8322,3.8419,3.8621,3.9064,3.9343,3.9508,3.9785,3.9975,4.0032,4.0433,4.0908,4.1328,4.1808,4.2543,4.3465,4.4362,4.5079,4.5549,4.5736,4.5879,4.6007,4.613,4.6181,4.6196,4.6203,4.6196,4.6209,4.6203,4.6209,4.6245,4.626,4.626,4.626,4.6269,4.6296,4.6296,4.6292,4.6292,4.6276,4.623,4.621,4.6187,4.6108,4.6044,4.6052,4.6054,4.6018,4.6008,4.6008,4.6017,4.6007,4.6007,4.5977,4.5977,4.6017,4.6047,4.6093,4.613,4.6146,4.6154,4.6181,4.6181,4.6181,4.6203,4.6228,-0.5114,-0.3306,-0.2408,-0.0501,0.1805,0.1805,0.3409,0.6022,0.773,0.9027,1.0288,1.2221,1.4613,1.6707,1.8006,1.9293,2.0702,2.1264,2.1964,2.2688,2.34,2.4082,2.4898,2.5812,2.6799,2.7484,2.8143,2.8274,2.8853,2.978,3.0807,3.1276,3.2155,3.2917,3.3475,3.4136,3.4754,3.5304,3.5667,3.5844,3.5958,3.6367,3.6759,3.7094,3.7469,3.7809,3.805,3.8252,3.8285,3.8219,3.835,3.8496,3.8695,3.897,3.9279,3.9513,3.9807,4.0036,4.0285,4.0724,4.1352,4.1945,4.2773,4.3809,4.4307,4.5074,4.5475,4.5669,4.5756,4.5883,4.6008,4.6174,4.6189,4.6203,4.6203,4.6203,4.622,4.622,4.6245,4.626,4.6292,4.6288,4.6292,4.6296,4.63,4.63,4.63,4.63,4.6282,4.6249,4.6211,4.6191,4.6123,4.606,4.6072,4.6063,4.6018,4.5988,4.5988,4.5977,4.5977,4.5977,4.5977,4.5977,4.5977,4.6017,4.6037,4.6066,4.6075,4.6084,4.6093,4.6111,4.6138,4.6162,4.6203,-0.8024,-0.8004,-0.4604,-0.2305,-0.0702,-0.0602,0.1404,0.4214,0.5413,0.6907,0.8803,1.1044,1.3137,1.476,1.6183,1.7777,1.9671,2.0517,2.1017,2.1671,2.267,2.3265,2.3975,2.4957,2.5951,2.6377,2.7271,2.8026,2.8481,2.8739,2.9752,3.0482,3.1289,3.2351,3.3055,3.3598,3.4333,3.4897,3.527,3.5453,3.5722,3.6156,3.6615,3.6776,3.715,3.7413,3.7321,3.7809,3.8034,3.7966,3.8234,3.8415,3.8603,3.8876,3.9189,3.9396,3.9747,4.0034,4.044,4.1147,4.1852,4.285,4.3867,4.4747,4.4863,4.5321,4.5678,4.5699,4.5699,4.5956,4.6093,4.6196,4.6189,4.6209,4.6203,4.6215,4.6226,4.6275,4.6284,4.6296,4.63,4.6296,4.6296,4.63,4.63,4.63,4.63,4.63,4.6273,4.625,4.623,4.6191,4.6133,4.6092,4.6111,4.6088,4.6046,4.6018,4.5998,4.5988,4.5977,4.5977,4.5977,4.5977,4.5977,4.5977,4.6007,4.6017,4.6027,4.6017,4.6017,4.6047,4.6083,4.6107,4.6164,-1.0956,-1.1039,-0.9637,-0.7362,-0.4505,-0.3613,-0.1607,0.0903,0.2104,0.4397,0.7486,1.0048,1.1718,1.2847,1.4275,1.5718,1.7148,1.8357,1.9243,2.0167,2.1125,2.2199,2.3084,2.4036,2.5052,2.5709,2.6552,2.6824,2.6756,2.7762,2.8117,2.8947,3.0257,3.1159,3.1998,3.2992,3.3802,3.4366,3.48,3.5018,3.5605,3.6071,3.6533,3.6838,3.7261,3.7613,3.7774,3.7913,3.8,3.8068,3.83,3.8415,3.8541,3.8876,3.9154,3.932,3.9724,4.0169,4.088,4.1721,4.2849,4.3958,4.4517,4.4633,4.471,4.4651,4.4685,4.4903,4.5428,4.5738,4.5928,4.6046,4.6135,4.6177,4.6215,4.622,4.625,4.6275,4.6288,4.63,4.63,4.63,4.63,4.63,4.63,4.63,4.63,4.6303,4.6273,4.6261,4.623,4.6211,4.6172,4.6147,4.6153,4.6112,4.606,4.6046,4.6027,4.6008,4.5988,4.5977,4.5977,4.5977,4.5977,4.5977,4.5977,4.5977,4.5977,4.5977,4.5977,4.6007,4.6027,4.6044,4.6118,-1.3915,-1.4011,-1.3701,-1.1468,-0.8266,-0.7093,-0.5293,-0.3189,-0.1891,0.1194,0.5468,0.7887,0.9845,1.117,1.332,1.4763,1.603,1.7145,1.7985,1.8868,1.9797,2.0884,2.1941,2.2829,2.3649,2.4791,2.5594,2.5791,2.5849,2.6867,2.7404,2.809,2.9073,3.0061,3.1489,3.2384,3.3443,3.402,3.4235,3.4671,3.5379,3.5677,3.6071,3.6416,3.6895,3.715,3.7395,3.7614,3.7966,3.8083,3.8281,3.8491,3.8707,3.8923,3.92,3.9464,3.9777,4.0264,4.1111,4.2507,4.3769,4.4781,4.4419,4.4229,4.3999,4.3866,4.3866,4.4359,4.4922,4.5399,4.568,4.5958,4.6037,4.6074,4.6137,4.6157,4.6215,4.625,4.6288,4.63,4.63,4.63,4.63,4.63,4.6303,4.6303,4.6306,4.6303,4.6284,4.6276,4.6269,4.625,4.623,4.6204,4.6195,4.6167,4.6125,4.6076,4.6044,4.6027,4.6008,4.5998,4.5988,4.5977,4.5977,4.5977,4.5977,4.5977,4.5977,4.5977,4.5977,4.5997,4.6008,4.6044,4.6118,-1.6686,-1.6979,-1.6044,-1.3962,-1.1707,-1.0969,-0.9563,-0.7284,-0.5917,-0.2763,0.1677,0.3953,0.6255,0.8914,1.0299,1.1922,1.3625,1.5338,1.6806,1.7502,1.8541,1.9395,2.0401,2.139,2.2456,2.3441,2.4385,2.5028,2.5392,2.6252,2.6892,2.7297,2.809,2.9324,3.126,3.2586,3.3435,3.3781,3.3598,3.4053,3.469,3.483,3.5186,3.5732,3.6207,3.6522,3.6821,3.7339,3.7667,3.7808,3.8216,3.8491,3.8695,3.8844,3.9137,3.9532,3.967,3.9994,4.0538,4.2738,4.4075,4.4801,4.4287,4.3829,4.3771,4.3503,4.3305,4.3885,4.448,4.5032,4.548,4.5922,4.5956,4.6027,4.6103,4.6151,4.6195,4.6195,4.6236,4.6277,4.63,4.63,4.63,4.63,4.6303,4.6306,4.629,4.629,4.6287,4.6293,4.628,4.6262,4.6249,4.625,4.6229,4.6217,4.6171,4.6111,4.6091,4.606,4.6046,4.6027,4.6018,4.5998,4.5977,4.5977,4.5977,4.5977,4.5977,4.5977,4.5977,4.5988,4.6018,4.6026,4.6098,-2.089,-2.1733,-2.118,-2.0642,-1.947,-1.4759,-1.1697,-0.9656,-0.7865,-0.5766,-0.3284,-0.113,-0.1163,-0.0255,0.1301,0.3791,0.6217,0.7829,0.9494,1.6312,1.6975,1.885,1.9519,1.9535,2.0949,2.2446,2.3396,2.3428,2.4409,2.4425,2.5329,2.6057,2.6652,2.8643,2.986,3.0778,3.1042,3.1972,3.218,3.2493,3.3598,3.3989,3.4397,3.5203,3.5742,3.6045,3.635,3.6956,3.7303,3.7506,3.7964,3.8332,3.8523,3.8646,3.9027,3.9305,3.9452,4.0087,4.0813,4.224,4.334,4.3865,4.3867,4.3158,4.2564,4.2379,4.2722,4.3487,4.4084,4.482,4.5774,4.5977,4.6068,4.6151,4.6206,4.6181,4.6206,4.615,4.6156,4.6249,4.63,4.6306,4.6306,4.6287,4.629,4.6293,4.6297,4.6297,4.6295,4.6297,4.6282,4.6297,4.628,4.6262,4.6247,4.6229,4.6221,4.6163,4.6158,4.6144,4.6118,4.608,4.6046,4.6027,4.5998,4.5977,4.5977,4.5977,4.5977,4.5977,4.5977,4.5977,4.5998,4.6018,4.6035,-2.4797,-2.5524,-2.5524,-2.5552,-2.4844,-1.969,-1.6331,-1.4714,-1.3383,-1.178,-0.9798,-0.8283,-0.8016,-0.8675,-0.7492,-0.598,-0.2804,-0.1398,0.3586,1.0964,1.2277,1.2669,1.3683,1.4989,1.4548,1.6773,1.8056,1.8657,2.2966,2.0684,1.9432,2.0154,2.4169,2.6557,2.8101,2.9059,3.0719,3.1649,3.1946,3.2155,3.3024,3.3566,3.3872,3.4703,3.5278,3.5559,3.6028,3.6487,3.6946,3.723,3.7667,3.8135,3.8364,3.8585,3.8913,3.9091,3.9477,4.0201,4.1136,4.162,4.2565,4.3024,4.2852,4.2469,4.189,4.1857,4.2133,4.2777,4.3615,4.4486,4.5298,4.5529,4.5947,4.6008,4.6098,4.6072,4.6181,4.6138,4.6181,4.6273,4.6303,4.6287,4.6293,4.6295,4.6295,4.63,4.6301,4.6301,4.6301,4.6303,4.6301,4.63,4.6295,4.6278,4.6282,4.6265,4.623,4.6208,4.6198,4.6191,4.6167,4.6118,4.6103,4.6063,4.6054,4.6046,4.5998,4.5977,4.5977,4.5977,4.5977,4.5977,4.5977,4.5998,4.6018,-2.8276,-2.8433,-2.8954,-2.8509,-2.7258,-2.5196,-2.3526,-2.2247,-2.2125,-1.9975,-1.6826,-1.6524,-1.6105,-1.4228,-1.2633,-1.1851,-1.1372,-1.0252,-0.4535,0.0703,0.2644,0.3391,0.3713,0.4045,0.5297,0.6639,0.8567,1.2201,1.9601,1.3431,0.9772,1.1202,1.5999,1.9817,2.2787,2.5306,2.8152,2.9914,3.1072,3.1462,3.2275,3.2703,3.3082,3.3754,3.4349,3.475,3.5244,3.5831,3.6423,3.6953,3.7631,3.815,3.8496,3.864,3.8796,3.9054,3.9481,4.0182,4.0791,4.1121,4.1341,4.1705,4.224,4.2068,4.1812,4.154,4.1803,4.2154,4.2847,4.3615,4.4311,4.4955,4.557,4.5685,4.5823,4.5935,4.6099,4.6176,4.6245,4.63,4.6303,4.6287,4.6295,4.63,4.6301,4.6305,4.6306,4.6306,4.6306,4.6307,4.6306,4.6303,4.6301,4.6297,4.6282,4.6284,4.6268,4.6249,4.6229,4.6219,4.6206,4.6186,4.6147,4.6125,4.6105,4.6088,4.6018,4.5988,4.5977,4.5977,4.5977,4.5977,4.5977,4.5988,4.6018,-3.0751,-3.1721,-3.1635,-3.1554,-3.146,-3.0815,-2.8459,-2.5168,-2.5236,-2.4223,-2.2612,-2.2165,-2.2943,-2.4973,-2.4343,-2.2476,-2.1125,-1.915,-1.4296,-1.0174,-0.6786,-0.641,-0.6002,-0.5454,-0.4596,-0.2537,0.0186,0.2697,0.2276,-0.0552,-0.0121,0.0358,0.4475,0.8854,1.338,1.6394,2.1502,2.6374,2.7708,3.0211,3.0852,3.1174,3.1758,3.2501,3.3203,3.3652,3.451,3.5098,3.5728,3.6475,3.7058,3.7559,3.7931,3.8147,3.8431,3.8942,3.9119,3.9266,3.9533,3.9745,4.0028,4.0507,4.1201,4.134,4.1127,4.1166,4.1428,4.1816,4.2265,4.3009,4.3582,4.418,4.4842,4.522,4.5371,4.5523,4.5754,4.6098,4.6186,4.6287,4.629,4.6295,4.6301,4.6303,4.6305,4.6287,4.6289,4.6288,4.6289,4.6289,4.6289,4.6306,4.6305,4.6303,4.6305,4.6286,4.6287,4.6289,4.6269,4.6249,4.6223,4.6195,4.6186,4.6167,4.6131,4.6068,4.5998,4.5988,4.5977,4.5977,4.5977,4.5977,4.5977,4.5988,4.6018,-3.2779,-3.3479,-3.3581,-3.3794,-3.391,-3.4156,-3.2227,-2.9628,-2.924,-2.8816,-2.8414,-2.8366,-2.9933,-3.1951,-3.1967,-3.1177,-2.9782,-2.8987,-2.4586,-1.7912,-1.6138,-1.581,-1.5334,-1.5063,-1.4577,-1.2168,-0.9263,-0.6403,-0.8181,-0.7589,-0.6909,-1.1217,-0.8451,-0.2325,0.2474,0.4991,0.7957,1.5287,2.1659,2.7043,2.8844,2.9421,3.0631,3.12,3.187,3.2625,3.3264,3.3794,3.4279,3.4873,3.5304,3.6232,3.665,3.7016,3.7541,3.7969,3.7983,3.8227,3.8633,3.8925,3.9219,3.9708,4.0437,4.069,4.0957,4.1099,4.126,4.1487,4.1934,4.2393,4.2859,4.3335,4.4024,4.4684,4.4848,4.5021,4.5448,4.591,4.6104,4.6251,4.63,4.6303,4.6305,4.6306,4.6307,4.6289,4.6289,4.6289,4.6289,4.6289,4.6289,4.6289,4.6288,4.6307,4.6288,4.6288,4.6288,4.6289,4.6289,4.6269,4.6249,4.6229,4.6225,4.6186,4.6142,4.6091,4.6054,4.5998,4.5977,4.6007,4.6007,4.5988,4.5988,4.5977,4.6027,-3.4484,-3.4207,-3.4897,-3.5023,-3.5062,-3.5531,-3.5217,-3.4659,-3.3477,-3.3316,-3.3508,-3.42,-3.4722,-3.5437,-3.5631,-3.619,-3.5392,-3.5009,-3.2052,-2.4898,-2.5392,-2.5315,-2.5186,-2.507,-2.4467,-2.2804,-2.0745,-1.8105,-1.3261,-1.4264,-1.8394,-2.2016,-1.5711,-1.0638,-0.8435,-0.6865,-0.3739,0.1905,1.2398,2.0602,2.4996,2.7543,2.9362,3.0321,3.0661,3.1041,3.1113,3.1336,3.1631,3.2204,3.2937,3.4237,3.4931,3.5463,3.6099,3.6654,3.6811,3.7147,3.7623,3.8026,3.8748,3.9331,4.0004,4.0196,4.044,4.087,4.1036,4.0988,4.1332,4.1575,4.1966,4.2299,4.2845,4.349,4.386,4.416,4.4584,4.502,4.5367,4.5558,4.5805,4.5889,4.6288,4.6289,4.6289,4.6289,4.6289,4.6289,4.6289,4.6289,4.6289,4.6289,4.6289,4.6289,4.6289,4.6289,4.6289,4.6289,4.6289,4.6289,4.6269,4.6269,4.6269,4.6223,4.6171,4.6156,4.6111,4.6063,4.6018,4.6027,4.6027,4.5998,4.5988,4.6008,4.6052,-3.5848,-3.598,-3.5441,-3.5367,-3.5663,-3.5488,-3.5633,-3.5881,-3.5694,-3.5424,-3.5402,-3.5369,-3.5795,-3.6724,-3.6786,-3.7152,-3.7613,-3.772,-3.6613,-3.4428,-3.3865,-3.2861,-3.4109,-3.2838,-3.3339,-3.3786,-3.2535,-3.0342,-2.8333,-2.8965,-3.0187,-3.2723,-2.7743,-2.4181,-1.928,-1.7969,-1.5016,-1.0246,-0.3974,0.6499,1.2578,1.6422,1.8743,2.394,2.7053,2.744,2.7959,2.9418,3.0219,3.1091,3.1268,3.2086,3.3126,3.3614,3.4384,3.5246,3.5445,3.5675,3.6207,3.6788,3.7543,3.8254,3.8864,3.9425,3.9925,4.0476,4.0723,4.0623,4.0669,4.0868,4.1084,4.1376,4.1712,4.233,4.2884,4.3296,4.3705,4.4094,4.4526,4.4855,4.5168,4.5614,4.6053,4.6289,4.6289,4.6289,4.6289,4.6289,4.6289,4.6289,4.6289,4.6289,4.6289,4.6289,4.6289,4.6289,4.6289,4.6289,4.6289,4.6289,4.6289,4.6289,4.6269,4.6229,4.6195,4.6171,4.6156,4.6111,4.608,4.6083,4.6047,4.6018,4.6044,4.606,4.6112,-3.5951,-3.5894,-3.5497,-3.5557,-3.582,-3.5723,-3.5924,-3.6199,-3.635,-3.6433,-3.6474,-3.6316,-3.6586,-3.7226,-3.7173,-3.7379,-3.8,-3.8289,-3.7796,-3.8059,-3.8382,-3.782,-3.8194,-3.8092,-3.7337,-3.7725,-3.7936,-3.7642,-3.8608,-3.7891,-3.6998,-3.7754,-3.6524,-3.4335,-2.9206,-2.8286,-2.5859,-2.1516,-1.9621,-1.3619,-0.3661,0.1403,0.5694,1.2174,1.4049,1.6372,2.0415,2.1886,2.4469,2.6489,2.7813,2.8856,2.9753,3.0332,3.1267,3.2191,3.28,3.3304,3.4063,3.4851,3.5815,3.6701,3.8089,3.8827,3.8774,3.9331,4.0346,4.0341,4.0511,4.0723,4.0673,4.0877,4.1305,4.1832,4.2179,4.253,4.2869,4.3228,4.3681,4.4103,4.4547,4.5138,4.562,4.6152,4.6191,4.6289,4.6289,4.6289,4.6289,4.6133,4.6172,4.6133,4.6016,4.6152,4.625,4.6246,4.6269,4.6289,4.6289,4.6289,4.6289,4.6289,4.6289,4.6249,4.6225,4.6195,4.6171,4.6142,4.6138,4.6131,4.6088,4.6056,4.6088,4.6118,4.6153,-3.5678,-3.5217,-3.5471,-3.5705,-3.5958,-3.6259,-3.6392,-3.6392,-3.6498,-3.6803,-3.7173,-3.736,-3.7614,-3.7756,-3.8032,-3.8249,-3.8428,-3.8559,-3.846,-3.8517,-3.8748,-3.8663,-3.8615,-3.8578,-3.8453,-3.8496,-3.8674,-3.8881,-3.9111,-3.8805,-3.8511,-3.8132,-3.8032,-3.7817,-3.7771,-3.7433,-3.5031,-3.397,-3.2524,-3.0976,-2.3119,-1.3715,-0.7338,-0.5038,-0.3758,0.0485,0.5891,0.9838,1.3972,1.5651,1.7754,1.8255,2.0522,2.1229,2.4138,2.5047,2.8144,2.9405,3.1086,3.2029,3.3557,3.5135,3.6736,3.7116,3.6561,3.7514,3.8512,3.9772,3.9948,4.0279,4.0245,4.0379,4.0821,4.1234,4.1495,4.1716,4.2021,4.2302,4.2723,4.3194,4.3791,4.443,4.5158,4.5717,4.5995,4.6132,4.625,4.6289,4.6211,4.5898,4.5742,4.5586,4.5391,4.5625,4.6055,4.6184,4.6191,4.6288,4.6289,4.6289,4.6289,4.6289,4.6289,4.6289,4.6268,4.6191,4.6191,4.6183,4.6191,4.6099,4.6157,4.6103,4.6086,4.6123,4.6152,-3.6422,-3.6014,-3.6326,-3.6568,-3.6764,-3.6878,-3.7111,-3.7376,-3.7413,-3.7667,-3.798,-3.8328,-3.8405,-3.792,-3.845,-3.8685,-3.8603,-3.8778,-3.8839,-3.884,-3.8915,-3.8934,-3.8989,-3.8995,-3.896,-3.9048,-3.9202,-3.9331,-3.9498,-3.9368,-3.9229,-3.9027,-3.8711,-3.8752,-3.8906,-3.8783,-3.8612,-3.8681,-3.8738,-3.6467,-3.3886,-2.4671,-1.5072,-1.0862,-0.6855,-0.5439,-0.3846,-0.3332,-0.2357,-0.1489,0.0435,0.1919,0.48,0.9045,1.2036,1.4955,1.8447,2.1777,2.3057,2.3956,2.4934,2.7255,2.8495,3.0543,3.1115,3.3204,3.4978,3.7977,3.8529,3.9384,3.9545,3.9806,4.0171,4.0517,4.0811,4.0877,4.107,4.1235,4.1473,4.2024,4.2594,4.3493,4.4532,4.502,4.5397,4.5579,4.5878,4.5898,4.5762,4.5547,4.5254,4.5039,4.4766,4.5391,4.5936,4.6033,4.6094,4.621,4.6289,4.6289,4.6289,4.6289,4.6289,4.6289,4.623,4.6152,4.6152,4.5848,4.5961,4.5893,4.6123,4.6181,4.6133,4.6128,4.617]}]]